GEFSSGP_500_meanwind_144.txt.gz
Wind_Speed
8 8 7 7 6 9 9 6 8 8 9 8 7 8 8 8 7 6 6 5 4 5 5 6 7 8 7 7 7 6 6 6 6 6 7 7 7 7 6 6 6 6 6 6 5 5 4 4 5
8 6 6 6 7 11 8 5 9 9 9 9 8 7 8 8 7 7 7 6 5 6 5 6 7 7 8 8 7 7 7 7 7 7 6 6 6 6 6 6 5 5 5 4 4 4 4 4 4
7 5 5 5 8 9 7 8 11 11 9 9 8 7 8 9 8 8 8 8 7 7 7 7 8 8 8 8 8 7 7 7 7 7 6 6 6 6 5 5 5 5 4 3 3 3 3 3 3
6 5 4 5 7 4 7 10 10 10 10 9 9 8 8 9 9 8 8 8 7 7 7 8 8 8 8 8 8 8 8 7 7 7 7 6 6 5 5 4 4 4 3 3 2 2 2 2 2
5 4 4 6 5 4 10 11 9 9 9 9 10 10 7 8 8 9 8 8 7 7 8 9 9 9 9 9 8 9 9 8 8 8 7 6 6 5 5 4 3 3 2 2 2 2 2 1 1
5 4 5 6 3 6 12 11 8 8 9 9 10 11 10 8 8 9 9 8 7 7 8 9 10 10 10 9 9 9 9 9 9 8 7 7 6 5 5 4 3 2 2 2 2 2 2 2 1
6 5 3 3 4 9 14 11 9 8 9 9 11 12 10 8 9 10 9 9 7 7 9 10 10 10 11 11 10 10 10 9 9 9 8 8 7 6 5 4 3 3 2 2 2 2 2 2 2
6 5 1 0 5 10 15 13 10 9 11 11 12 13 11 11 10 11 11 9 8 7 8 9 10 11 11 12 12 11 11 11 10 10 9 8 8 7 6 5 4 3 3 2 2 2 2 2 2
6 4 0 1 5 10 14 13 11 10 13 13 14 14 12 11 11 11 11 10 9 8 8 9 10 12 12 13 13 13 12 12 11 11 10 9 8 8 7 6 4 3 3 3 2 3 3 2 2
6 4 1 3 7 10 12 12 11 12 13 14 14 13 12 12 12 11 11 11 10 9 9 10 11 12 13 14 15 14 13 13 13 12 11 10 9 9 8 7 5 4 3 3 3 3 3 3 2
8 7 6 8 11 12 12 12 12 12 14 15 15 14 13 12 12 12 12 12 11 10 10 11 12 13 13 15 16 15 15 15 14 13 13 11 10 9 8 7 6 5 4 4 3 4 3 3 2
10 9 10 10 12 14 13 12 12 12 15 17 16 16 15 14 13 13 13 12 12 11 11 12 13 14 14 15 17 17 16 15 15 14 14 12 11 10 9 7 6 6 5 4 4 4 4 3 3
13 12 12 13 14 14 13 13 12 12 15 16 16 16 16 15 14 14 13 13 13 12 12 12 13 14 15 15 17 17 17 17 16 15 14 13 12 10 9 8 7 6 6 5 5 5 4 4 3
14 14 13 14 14 14 13 12 11 13 15 16 16 17 17 16 16 15 15 15 14 14 13 13 14 14 15 15 16 17 17 17 16 15 15 13 12 11 10 9 7 7 6 6 5 5 4 3 3
15 14 13 13 13 13 12 12 12 14 14 16 17 17 17 17 16 16 16 16 16 15 14 14 14 15 16 16 16 17 17 17 17 16 15 14 13 12 11 10 8 7 7 6 6 5 5 4 4
13 13 13 11 11 12 13 12 13 14 15 16 17 18 18 17 17 17 17 17 17 17 16 16 15 15 16 17 17 17 17 18 18 17 16 15 14 12 11 10 9 8 7 7 6 5 5 5 4
12 12 11 10 13 14 13 13 14 14 15 16 16 17 18 17 17 17 17 18 18 18 17 17 17 16 16 17 17 18 18 19 19 18 17 16 15 13 12 10 10 8 7 7 7 6 5 5 4
10 10 11 13 15 14 13 14 14 15 15 16 16 17 17 17 17 18 18 18 19 18 18 17 17 16 16 17 17 17 18 19 19 18 18 17 15 14 12 11 11 10 9 8 7 7 6 5 5
13 14 15 15 15 15 14 14 15 16 14 15 17 17 17 17 18 20 18 18 19 19 19 18 18 17 17 17 17 17 18 19 19 19 18 18 16 15 14 12 11 11 10 9 8 8 7 6 5
15 15 14 15 14 14 15 14 15 16 16 16 18 18 18 18 19 19 17 19 18 19 19 19 18 17 17 17 17 18 18 19 20 20 19 18 17 16 14 13 12 11 11 10 9 9 8 7 7
17 17 15 15 14 14 15 15 16 17 17 16 16 17 18 18 18 18 18 17 16 17 17 17 18 18 18 18 17 17 18 19 20 20 20 19 18 17 15 14 13 12 11 11 10 9 9 8 7
17 16 16 16 16 15 16 17 17 17 18 16 15 15 17 18 17 16 17 16 16 16 16 15 17 17 17 18 17 18 20 20 20 21 21 20 19 18 16 15 15 14 12 12 11 11 10 10 9
17 15 16 17 18 18 18 17 17 17 17 17 16 14 17 17 16 17 17 16 15 15 14 14 17 17 17 18 18 19 20 20 21 21 20 20 19 18 18 17 16 15 14 13 13 12 11 11 10
17 17 17 16 16 17 16 16 16 17 17 16 14 14 17 17 16 16 15 15 13 12 13 13 15 16 16 18 19 18 19 20 20 21 20 20 19 19 19 18 17 16 15 14 13 13 12 11 10
18 17 16 16 16 16 16 17 17 15 15 16 17 17 17 16 15 15 14 12 10 10 11 11 12 13 14 16 18 18 18 20 20 20 20 20 20 19 19 19 18 17 16 15 14 13 13 12 11
18 17 17 16 16 16 18 17 14 12 15 17 18 19 18 16 14 13 12 11 9 9 9 9 9 10 12 15 16 17 17 18 19 20 20 20 20 20 20 19 18 18 17 16 15 14 13 12 12
18 18 17 17 18 17 15 12 14 12 13 16 17 17 16 14 13 11 10 9 9 9 8 7 8 9 11 13 15 16 17 18 19 19 19 19 19 19 19 19 18 18 17 16 15 15 14 13 13
19 17 17 19 19 17 15 12 12 11 12 14 15 15 14 12 12 10 8 7 7 8 7 7 6 8 10 12 13 15 17 18 18 19 19 19 19 19 19 19 18 17 17 16 16 16 15 14 14
19 19 19 17 18 17 16 15 14 12 13 13 14 14 13 12 12 10 7 7 7 6 6 6 6 7 9 10 11 13 15 16 17 18 19 18 18 18 18 19 19 18 17 16 17 17 16 16 15
19 20 21 20 20 19 18 20 18 14 14 12 13 14 12 13 11 10 8 7 7 6 5 5 5 5 7 8 10 11 13 14 15 16 17 17 18 18 18 18 18 18 17 17 17 17 17 17 17

GEFSSGP_500_meanwind_150.txt.gz
Wind_Speed
6 5 4 5 5 5 6 10 12 14 14 13 12 11 10 9 7 5 3 2 1 0 1 3 4 4 4 4 4 3 2 1 1 1 1 1 0 1 2 2 3 3 3 4 4 4 4 5 5
5 4 3 3 4 3 5 9 12 14 14 13 12 10 9 8 6 5 3 2 1 1 2 3 4 4 5 5 5 4 3 2 1 1 1 1 1 1 1 1 2 2 2 3 3 3 4 4 4
5 3 2 2 1 2 5 8 12 14 15 15 13 10 8 8 6 5 4 2 1 2 3 4 5 5 5 5 5 5 4 3 2 2 2 2 2 2 1 1 1 1 1 2 2 2 3 3 4
4 3 2 1 2 3 4 6 10 14 16 15 13 10 8 8 6 6 5 3 2 1 3 4 6 7 6 6 6 5 4 4 3 3 2 3 3 2 2 1 1 0 1 1 1 1 2 2 3
5 4 3 3 4 3 3 5 9 15 15 15 13 11 9 8 6 5 5 4 2 1 2 5 7 7 7 7 6 6 5 5 5 4 3 3 3 3 3 2 2 2 1 1 1 1 1 1 2
6 5 4 5 5 3 3 6 10 15 17 16 14 11 10 8 6 6 5 4 3 2 2 4 7 7 8 7 7 7 6 6 6 5 4 4 4 4 3 3 3 2 2 1 1 1 1 1 1
6 5 5 6 6 4 3 6 11 15 18 17 14 13 11 7 6 6 6 5 5 4 3 4 6 8 8 8 8 8 7 7 6 6 5 5 5 4 4 4 3 3 2 2 1 1 0 1 1
7 6 7 7 6 4 4 7 12 16 17 16 13 13 12 10 7 6 6 6 5 4 3 4 6 8 9 9 9 8 8 8 8 7 6 6 6 5 5 4 4 3 3 2 2 1 1 1 1
8 8 9 8 6 4 5 8 12 15 16 15 14 14 13 11 8 6 6 6 5 5 4 4 6 7 9 10 11 10 9 8 8 8 7 7 7 6 5 5 4 3 3 2 2 2 1 2 2
9 9 10 10 8 5 6 9 13 15 15 15 15 14 13 12 9 7 7 6 6 5 4 4 6 7 8 9 11 12 11 10 9 9 8 8 7 6 6 5 4 4 3 3 2 2 2 2 2
11 12 13 12 10 7 7 10 13 16 16 15 14 13 12 12 10 8 6 6 6 6 5 5 6 7 8 9 10 12 12 11 10 10 10 9 8 7 6 6 5 4 4 3 3 2 2 2 2
13 14 14 14 12 10 10 12 15 16 16 15 15 13 12 12 11 9 7 6 6 7 6 5 6 7 8 9 10 11 12 12 11 11 11 10 9 8 7 6 6 5 4 4 4 2 3 3 3
15 15 15 15 14 13 13 15 16 16 17 16 14 13 12 13 12 10 8 6 7 7 7 6 6 7 8 9 10 10 11 12 12 12 12 12 10 9 8 7 7 6 5 4 4 3 3 3 2
17 18 16 15 15 14 14 15 16 15 16 16 15 14 14 15 14 11 9 8 7 8 8 7 7 7 8 9 10 11 11 12 11 13 13 12 10 9 8 8 7 6 5 5 5 4 4 3 3
19 18 15 14 14 14 14 15 15 15 16 16 16 16 16 16 14 12 11 9 8 8 8 8 9 9 9 10 11 12 12 11 12 13 13 12 11 10 9 8 8 7 6 5 5 5 5 4 4
19 17 14 13 14 14 14 14 15 15 16 16 17 17 16 15 13 11 11 10 10 9 9 9 10 10 10 10 11 12 12 12 13 14 14 14 13 11 10 9 9 8 7 6 6 5 5 5 5
17 16 15 14 13 12 13 12 14 16 16 17 18 18 17 14 13 11 11 11 11 10 10 10 11 11 12 11 11 13 13 14 14 14 15 15 14 11 11 10 9 9 8 7 7 6 6 6 6
16 17 16 16 14 13 14 14 16 17 17 18 18 17 17 15 13 12 11 11 11 11 11 11 12 12 13 12 13 14 14 15 16 15 15 16 15 13 12 11 10 10 9 8 8 7 7 6 7
19 19 18 16 15 15 15 15 17 18 18 18 17 17 16 15 14 12 12 12 12 12 11 12 13 13 13 13 14 14 15 16 16 16 16 16 16 15 14 13 11 10 10 9 9 8 7 7 7
20 19 17 16 13 13 15 16 18 18 19 19 18 18 17 15 14 12 12 12 12 13 13 13 13 14 14 14 16 16 16 17 16 17 17 17 17 17 16 14 13 12 11 11 10 9 9 8 8
20 18 16 15 13 14 15 18 18 19 19 19 18 17 17 15 13 13 12 12 12 13 13 12 12 13 14 15 16 17 16 16 16 16 17 18 18 18 17 16 15 14 12 12 11 11 10 10 9
19 18 17 16 16 16 17 17 17 18 19 18 17 17 15 14 15 12 11 12 12 13 12 12 12 13 14 15 16 17 17 17 18 18 18 19 19 19 18 17 16 15 14 13 13 12 12 11 11
19 18 18 18 19 19 19 18 17 17 17 17 17 16 14 14 13 12 12 13 13 13 13 13 13 14 15 16 17 17 17 19 19 18 17 19 20 19 19 18 18 17 16 15 14 13 13 13 12
19 19 20 21 21 21 20 20 19 18 18 18 18 16 14 15 13 12 12 13 12 12 13 13 14 14 15 15 15 17 18 19 20 19 19 20 21 20 20 19 19 18 17 16 15 14 14 14 13
20 20 21 22 22 21 21 22 22 21 20 19 19 17 14 12 10 11 11 12 11 11 12 12 12 13 14 15 15 17 19 19 19 20 20 20 21 21 21 20 20 19 18 17 16 15 15 15 14
21 21 22 22 21 19 20 21 19 19 20 19 18 15 12 11 10 10 9 9 9 10 10 10 11 11 13 15 16 17 20 20 19 21 21 21 21 21 22 22 22 20 19 18 17 17 16 16 15
20 21 20 21 20 19 18 18 17 17 19 19 17 14 12 10 10 8 7 8 8 9 9 9 10 11 12 14 15 17 19 20 19 21 22 21 22 21 22 22 22 21 20 19 18 18 17 16 16
19 19 20 21 20 20 18 16 15 15 15 14 15 14 11 9 7 7 6 7 7 7 7 7 8 9 11 13 15 16 17 19 20 21 22 21 20 21 22 23 22 21 20 19 19 18 18 18 17
19 21 22 21 20 20 20 17 14 12 12 12 12 12 10 9 7 6 6 6 7 6 6 7 7 7 8 10 13 14 16 17 19 20 20 21 20 21 21 22 22 21 20 20 20 20 19 19 19
20 21 21 22 21 21 21 18 14 13 12 12 11 10 10 8 6 6 6 7 7 6 5 6 6 6 7 8 10 12 14 16 17 19 19 20 21 21 21 21 21 21 20 20 20 20 20 19 19

GEFSSGP_500_meanwind_156.txt.gz
Wind_Speed
8 7 6 5 6 7 8 10 11 13 13 13 13 12 11 10 8 5 4 3 2 2 1 2 2 3 4 6 6 7 8 8 8 8 7 7 7 6 6 6 6 6 6 7 7 7 7 7 7
7 7 6 5 5 6 8 9 11 13 13 13 13 12 11 10 8 6 4 3 2 1 1 1 2 3 4 5 6 7 7 7 7 7 7 6 6 6 6 6 6 6 6 6 6 6 6 6 6
7 7 6 6 6 6 7 8 10 12 13 14 14 13 12 10 8 6 5 3 1 0 1 2 2 3 4 5 6 6 6 6 6 6 6 6 5 5 5 5 6 6 6 6 5 5 5 5 5
7 7 6 6 6 6 8 8 9 10 12 13 13 13 12 11 9 7 4 3 2 1 2 2 3 4 5 5 5 5 6 6 6 6 5 5 5 5 4 5 5 5 5 5 5 4 4 4 5
7 7 7 6 7 6 6 7 8 9 12 12 13 12 11 10 8 7 5 3 2 1 1 3 4 4 5 5 5 5 5 5 5 5 5 4 4 4 4 4 4 5 5 4 4 4 3 3 4
8 8 7 7 7 7 6 6 7 8 11 12 12 12 12 11 8 7 5 3 2 1 1 2 4 5 5 5 5 5 5 4 4 4 4 3 3 3 3 3 4 4 4 4 4 3 2 2 3
9 9 9 9 8 8 7 6 6 7 9 11 11 11 11 10 8 7 5 3 2 1 0 2 4 5 6 5 5 5 5 4 4 4 3 2 2 2 2 2 3 3 4 3 3 3 2 2 3
10 10 10 10 10 9 8 7 8 7 8 10 10 10 11 10 9 7 6 4 3 2 0 2 4 5 6 6 6 6 5 5 4 3 3 2 1 1 1 1 2 3 3 3 2 2 2 2 2
11 11 11 11 11 11 10 10 9 7 6 8 9 10 10 10 10 8 6 5 3 2 1 2 3 4 5 6 6 7 6 6 5 4 3 2 1 1 0 1 1 2 2 2 2 2 2 1 1
12 12 12 13 13 13 12 11 10 8 6 6 8 9 10 11 10 8 6 5 3 2 1 2 3 4 5 6 7 7 7 6 6 5 4 3 2 2 1 1 1 1 1 1 1 1 1 1 1
12 13 14 14 14 14 14 12 11 10 6 5 7 8 9 11 11 9 7 5 4 3 3 3 4 5 5 6 7 7 8 8 7 6 5 4 3 2 2 2 1 1 1 1 0 0 0 0 1
14 15 16 15 15 15 15 14 13 12 8 6 6 8 9 10 10 10 8 6 5 4 4 4 5 6 6 7 7 8 9 9 9 8 7 6 5 4 4 3 2 1 1 1 1 1 1 1 1
16 16 17 17 17 17 17 16 14 12 10 8 8 9 10 10 10 10 9 8 6 6 5 5 5 6 7 8 9 8 9 9 9 9 9 8 7 6 6 4 3 2 2 1 1 1 1 2 2
17 18 19 19 19 18 18 17 15 13 13 10 9 9 10 11 11 11 10 8 7 7 6 6 6 6 7 9 10 10 10 10 10 9 9 9 8 7 7 6 5 4 3 3 3 2 2 2 2
18 18 19 20 20 20 19 17 16 15 14 11 10 11 11 11 11 11 11 10 9 9 8 7 7 8 8 10 11 12 11 12 11 10 10 9 9 9 8 7 6 5 4 5 4 3 3 2 2
19 19 20 21 21 21 21 18 17 16 14 13 12 11 12 11 11 12 12 11 11 11 9 9 9 9 10 10 11 13 13 13 13 12 11 11 10 10 9 9 7 6 5 5 5 4 4 3 3
20 21 20 21 22 23 22 20 18 17 15 14 13 11 11 11 13 13 12 12 12 10 10 10 11 11 12 13 13 13 14 14 14 13 13 12 12 12 11 10 9 7 6 6 6 5 5 4 4
21 21 21 22 23 23 23 21 19 18 16 14 13 12 11 12 14 14 13 12 12 12 12 13 12 13 14 15 14 14 14 15 14 14 13 13 12 13 13 11 10 9 8 8 8 7 6 6 5
22 21 21 22 24 24 23 21 20 19 17 15 13 12 12 12 13 14 14 12 13 12 13 14 14 14 15 16 17 16 15 15 15 15 14 14 13 14 14 13 12 11 10 9 9 8 8 8 7
22 20 20 22 24 23 23 21 20 19 17 14 13 13 13 13 15 15 14 14 14 14 13 14 14 15 16 16 18 19 18 17 17 16 15 14 14 15 15 15 14 13 12 11 10 10 9 9 8
22 20 20 23 24 24 23 22 20 19 18 15 14 13 13 14 15 16 15 15 15 15 15 15 15 16 16 17 18 19 19 17 16 16 16 15 15 16 16 16 16 15 14 13 12 11 11 10 9
22 21 22 25 25 24 23 22 20 18 17 15 14 13 14 15 15 16 16 16 15 15 15 15 15 15 16 17 18 18 19 20 18 18 18 17 16 17 17 18 17 17 16 15 14 13 12 12 11
23 24 25 26 26 25 24 22 19 18 16 14 14 15 15 15 15 15 16 17 17 16 16 15 15 15 16 18 18 18 18 20 20 21 19 18 17 18 19 20 19 18 18 17 16 16 15 14 13
26 27 27 27 26 25 24 23 20 18 16 16 16 16 15 15 15 16 17 17 17 17 17 16 16 16 16 17 17 17 17 18 20 21 21 20 18 18 20 21 21 20 20 19 18 17 16 15 15
27 27 27 27 26 25 24 24 21 18 18 18 17 16 16 16 16 16 17 17 17 17 16 16 16 17 18 17 18 19 19 19 20 21 22 21 20 20 20 22 22 21 21 20 20 19 18 17 17
26 27 26 26 25 23 23 22 21 19 19 18 17 16 17 17 17 16 16 17 16 15 15 14 15 15 17 17 17 19 20 21 21 21 22 22 22 21 21 22 22 22 22 22 21 20 20 18 18
27 26 25 25 24 23 22 20 19 18 18 17 17 17 17 17 16 15 16 16 14 13 13 13 13 13 14 16 16 18 19 19 21 21 21 22 23 22 23 23 23 22 22 22 21 20 20 20 19
27 26 26 25 23 22 20 18 17 16 15 15 15 15 14 13 12 12 13 13 13 13 13 12 12 11 12 14 15 16 17 18 19 21 21 23 23 23 23 24 24 23 22 22 22 21 21 21 20
27 27 26 25 23 21 19 16 14 14 15 14 14 13 12 12 11 10 11 11 11 11 11 11 12 12 11 12 14 15 17 17 19 21 21 22 22 22 22 22 23 23 24 23 23 22 22 22 21
27 26 24 23 21 19 18 15 13 13 12 12 12 12 11 11 9 9 10 9 9 10 10 9 11 11 11 12 13 15 16 17 18 20 21 21 22 22 21 21 21 22 23 24 23 23 22 22 22

GEFSSGP_500_meanwind_162.txt.gz
Wind_Speed
10 10 10 10 11 11 9 9 9 9 8 9 8 8 8 8 7 6 5 5 5 6 7 7 7 8 8 9 9 10 11 12 12 12 12 12 11 11 11 10 10 9 9 9 8 8 8 8 7
9 9 9 9 11 9 7 7 8 8 8 8 8 7 7 7 6 6 5 4 5 5 6 7 7 8 9 9 9 10 11 11 11 11 11 11 11 10 10 10 9 9 8 8 8 7 7 7 7
8 8 8 8 9 6 6 6 7 7 7 8 8 7 7 7 5 4 4 4 4 5 5 6 7 8 8 9 9 10 10 10 11 11 11 10 10 9 9 9 9 8 7 7 7 7 7 7 7
6 6 7 7 6 5 6 6 6 6 7 7 7 7 7 6 6 4 3 4 4 5 5 6 7 8 9 9 9 9 10 10 10 10 10 10 9 9 8 8 8 7 7 6 6 6 6 6 6
4 5 6 5 4 4 5 6 6 7 7 7 7 7 7 6 5 5 3 3 3 4 5 6 7 9 9 9 9 9 10 10 10 10 9 9 8 8 7 7 7 6 6 6 5 5 5 6 6
3 4 4 3 3 4 5 5 6 7 7 7 7 7 7 7 6 5 4 3 3 4 4 5 7 8 9 9 10 9 9 10 10 9 9 8 8 7 7 7 6 6 6 5 5 5 5 5 5
2 3 2 2 3 3 4 4 5 6 6 5 5 6 7 7 6 5 4 3 2 2 3 5 7 8 9 9 9 9 9 10 9 9 8 8 8 7 6 6 6 5 5 5 4 4 5 5 5
4 3 2 3 3 3 3 3 4 5 5 4 4 5 6 7 6 5 4 2 1 1 2 4 6 8 9 9 9 9 10 10 10 9 8 8 7 7 6 6 5 5 5 4 4 4 5 5 5
6 4 4 4 3 3 2 3 3 5 4 4 3 4 5 6 6 5 4 2 0 1 2 4 6 7 8 9 10 9 10 10 10 9 8 7 6 6 5 6 5 5 4 4 4 4 4 5 5
7 6 6 6 5 4 3 3 3 4 4 4 4 4 4 5 5 5 4 3 1 1 2 4 6 7 8 9 10 10 10 10 10 9 8 7 6 6 5 6 5 5 4 4 4 4 4 4 4
10 9 9 8 7 5 4 3 3 5 5 5 5 4 3 4 4 4 4 4 3 3 3 4 5 7 8 9 10 10 10 10 10 10 9 7 7 6 5 5 5 5 4 4 4 4 4 4 3
12 11 11 10 9 7 6 4 4 5 5 6 6 5 5 5 5 4 4 5 4 3 3 4 6 7 8 9 10 10 10 10 11 10 9 8 8 7 6 5 5 5 4 3 3 4 4 4 4
13 13 13 12 11 9 8 6 5 6 6 6 6 6 5 5 5 5 4 5 5 4 4 4 6 7 8 9 11 11 11 10 11 11 10 9 9 8 7 6 5 5 5 4 3 4 4 3 4
15 15 15 14 13 11 10 8 7 7 7 7 7 7 6 6 6 6 6 6 7 6 6 4 6 6 8 9 10 12 12 12 11 12 11 11 10 9 8 8 7 6 6 4 4 4 4 3 3
16 16 17 17 15 13 12 10 9 9 8 8 8 8 8 7 7 7 7 7 8 8 7 7 6 7 8 9 11 12 13 14 13 12 12 12 11 10 9 9 8 8 7 6 5 4 4 4 3
18 18 18 18 16 14 13 12 12 11 10 9 9 9 10 9 9 8 8 8 8 8 8 8 8 8 9 10 11 12 13 14 14 14 13 12 11 11 11 10 10 9 8 7 6 5 5 4 4
19 19 19 20 17 16 14 13 14 12 11 10 10 10 10 10 10 10 9 9 8 8 8 8 9 10 10 11 12 12 14 15 15 15 14 13 12 11 12 12 11 10 9 8 7 6 5 5 4
20 19 20 21 19 17 16 15 14 13 12 11 11 11 10 11 12 12 11 10 9 8 8 9 9 10 10 12 12 14 15 15 16 16 16 15 13 13 12 13 12 11 10 10 8 7 6 6 6
22 21 21 22 20 18 17 16 15 14 12 12 12 12 12 13 14 13 11 11 10 9 8 9 10 11 11 11 13 14 15 16 17 17 16 16 14 14 14 14 13 13 12 11 10 9 8 7 7
23 22 22 23 21 19 18 17 15 13 13 13 14 14 14 15 14 14 13 13 12 11 11 11 12 13 13 13 14 14 15 16 16 17 17 17 16 15 15 15 15 14 13 12 11 10 10 9 8
24 23 23 23 21 19 18 17 16 14 13 13 14 14 15 15 15 15 14 14 13 13 13 14 14 13 14 14 15 16 15 16 16 17 17 18 17 16 16 17 16 15 15 13 12 11 11 11 10
24 24 24 23 20 20 18 16 16 14 14 14 15 15 16 16 16 15 15 15 14 14 15 15 14 13 14 15 16 16 15 16 18 18 18 18 17 17 17 18 18 17 16 15 14 13 12 12 12
26 25 24 22 21 20 18 16 16 15 14 14 14 15 16 16 16 16 16 15 15 15 15 14 14 14 15 15 16 16 17 17 18 19 19 18 18 18 18 18 19 18 18 17 16 15 14 13 13
27 25 24 22 21 20 19 16 16 16 15 15 15 15 15 15 15 15 14 15 15 15 15 15 15 15 16 17 16 16 17 17 19 20 21 20 19 19 19 19 20 20 19 19 18 18 16 15 14
27 25 23 22 22 19 20 17 17 17 16 16 16 15 15 15 15 14 15 15 15 15 15 15 16 16 17 17 17 16 17 17 19 20 21 21 20 20 20 19 20 20 20 20 20 19 18 17 16
25 24 22 19 18 18 20 18 18 16 16 16 15 15 15 15 14 15 15 15 14 15 15 15 17 17 16 15 15 15 17 17 18 19 21 22 22 21 20 21 21 21 21 20 20 21 20 19 18
26 25 23 21 19 17 18 18 17 15 15 15 15 15 15 15 14 14 14 14 14 15 15 15 16 16 15 14 14 15 17 18 19 20 21 22 22 22 21 21 22 23 22 22 21 21 21 20 19
27 25 25 22 19 16 16 17 16 15 15 15 15 15 14 14 14 14 14 14 14 13 14 15 15 15 14 14 15 14 16 18 19 20 20 21 22 22 22 22 21 22 22 22 22 21 21 21 21
26 26 25 22 20 16 13 14 15 15 15 15 14 13 13 14 14 14 13 13 12 13 13 14 15 15 14 15 15 14 15 16 17 18 19 21 22 22 22 21 21 21 21 22 22 22 22 22 22
26 25 24 23 22 20 15 15 16 15 14 14 13 12 12 12 12 12 12 12 12 12 12 13 13 13 14 15 16 16 15 16 17 17 18 20 20 20 21 21 21 21 22 22 22 22 22 22 23

GEFSSGP_500_meanwind_168.txt.gz
Wind_Speed
11 11 11 11 13 17 12 9 7 7 7 7 5 4 3 2 2 1 1 2 2 3 4 5 6 7 6 6 6 6 6 6 7 7 8 8 9 9 9 9 9 9 8 8 8 8 8 8 8
10 9 9 11 14 13 10 9 8 8 7 6 5 4 4 2 1 0 0 1 1 2 4 4 5 6 6 5 5 5 5 5 5 6 6 7 8 8 8 8 8 8 8 8 8 7 7 7 7
8 8 8 12 14 11 9 8 8 8 7 6 6 5 5 4 2 1 1 1 1 2 3 4 4 5 6 5 5 5 5 5 5 6 6 6 7 7 7 7 7 6 6 6 6 6 6 6 6
7 7 10 12 9 7 7 7 7 8 8 7 6 5 5 4 3 2 1 1 1 2 3 4 4 5 5 5 5 5 5 5 5 5 5 5 5 5 5 6 6 5 5 6 6 6 6 5 5
6 6 9 9 6 5 6 6 7 7 7 8 7 6 6 5 4 3 2 1 1 2 4 4 4 5 5 5 5 5 5 5 5 5 5 4 4 4 4 5 5 5 5 5 5 5 5 5 5
3 6 9 6 3 4 8 6 5 5 6 8 8 7 6 5 5 4 3 1 0 1 2 3 4 4 5 5 5 5 5 6 5 5 4 3 3 3 3 4 4 4 4 4 4 5 5 4 4
2 4 7 3 2 6 8 6 5 6 5 7 7 5 5 6 5 4 3 2 0 1 1 3 4 4 5 5 5 5 6 6 5 5 4 4 3 3 3 3 4 3 3 4 4 4 4 4 4
2 2 7 3 3 7 9 7 6 6 5 6 8 7 7 6 5 5 4 2 1 1 2 3 4 5 5 6 6 6 6 6 6 6 5 4 3 3 2 3 3 3 3 3 4 4 4 4 3
4 3 6 3 3 8 10 7 6 6 6 6 7 7 7 6 5 5 4 3 2 2 2 2 4 5 6 6 7 6 7 7 6 6 5 5 3 3 3 2 2 2 2 2 3 3 3 3 3
6 5 4 3 6 8 9 7 6 7 9 7 6 6 7 6 6 5 5 4 3 3 3 3 4 5 6 6 7 7 7 7 6 6 5 5 4 3 4 3 3 2 2 2 2 2 3 3 2
8 6 6 6 8 9 7 7 7 8 11 10 5 6 7 7 6 6 5 5 4 4 4 4 4 5 6 6 7 8 8 7 7 7 6 5 5 4 4 3 2 2 2 2 2 2 3 3 3
9 8 8 9 10 10 8 7 8 9 12 12 9 6 7 7 6 6 6 5 5 5 4 4 5 5 6 7 7 8 8 8 8 7 7 6 6 5 4 3 2 3 2 2 3 3 3 2 2
12 10 10 11 11 11 10 9 10 10 12 12 10 8 8 7 7 7 7 7 6 6 5 5 5 5 6 7 8 8 8 9 9 8 7 7 6 6 5 5 3 3 3 3 3 3 2 2 2
13 13 12 12 12 12 11 10 11 10 12 12 11 10 9 8 8 8 7 7 7 7 6 6 6 6 6 7 7 8 9 10 10 9 9 8 7 7 7 6 5 4 4 4 4 4 3 2 2
15 15 14 12 12 12 11 10 10 11 13 14 13 11 11 10 9 9 9 9 9 9 8 7 6 6 7 7 8 8 9 10 11 10 10 9 8 8 8 7 6 5 5 5 4 4 3 2 2
17 15 14 12 12 13 12 11 12 14 14 15 14 12 11 10 10 10 10 10 10 9 9 8 7 7 7 8 9 9 9 10 11 12 11 10 9 8 9 8 8 7 7 6 5 4 4 3 3
17 15 13 12 14 15 13 12 14 14 14 16 16 14 12 12 11 11 11 11 10 10 9 9 8 7 7 8 8 8 10 10 11 12 12 11 11 10 9 9 9 8 8 7 6 6 5 4 4
15 13 13 13 16 17 14 13 15 14 14 17 17 15 13 12 12 11 11 11 11 10 10 10 9 8 8 8 8 8 9 10 11 12 12 12 12 12 10 10 10 10 9 9 8 8 7 6 5
18 16 15 15 19 20 17 15 16 15 16 18 17 16 15 14 13 12 12 12 12 11 11 10 9 9 9 9 9 9 9 10 11 11 12 13 13 13 12 12 12 11 11 11 10 9 8 7 6
23 21 19 19 21 21 19 17 16 17 18 18 18 17 17 16 15 13 13 13 13 13 12 11 11 11 10 10 10 10 10 10 10 11 13 14 14 15 14 13 13 12 12 12 12 11 10 9 8
25 23 21 20 21 21 20 18 17 17 18 18 18 18 17 16 15 13 13 13 13 13 13 13 12 12 11 11 11 11 11 11 10 11 12 14 15 15 15 15 14 13 13 13 13 13 12 11 10
25 23 22 22 22 21 19 17 18 19 20 19 18 18 17 17 16 14 13 14 14 14 14 12 13 13 13 12 12 11 12 12 12 12 12 14 14 14 15 16 16 15 14 14 14 14 13 13 12
24 23 23 23 23 21 20 19 19 21 21 18 17 18 17 17 16 15 14 14 14 14 13 13 14 14 14 14 13 13 13 12 12 12 13 14 15 15 15 17 17 17 16 16 16 15 15 14 13
24 24 24 23 23 23 20 19 20 21 21 19 16 16 17 17 16 15 14 14 14 13 13 14 14 15 15 14 14 14 14 14 13 13 14 14 15 15 15 16 17 18 18 17 17 17 16 15 15
26 25 23 22 21 20 16 19 21 22 22 19 16 16 17 16 16 15 14 14 14 14 14 15 15 15 15 15 14 14 14 14 14 14 14 15 15 16 16 16 17 18 19 19 18 18 18 17 16
26 25 22 17 15 14 16 20 21 21 21 19 17 17 17 17 18 17 15 14 15 15 15 16 16 16 16 15 15 14 14 14 14 14 15 15 16 16 17 17 17 18 19 20 20 20 19 19 18
25 25 21 19 15 14 16 19 21 21 20 20 18 17 17 17 18 16 15 15 15 15 16 16 16 16 16 15 15 14 14 14 14 15 16 15 16 16 17 17 18 18 19 20 21 21 21 21 21
25 23 24 25 21 19 19 21 21 20 18 18 17 17 17 17 16 15 15 16 16 16 16 17 17 16 16 16 15 15 15 15 15 16 16 16 16 17 17 18 19 19 19 21 21 21 22 22 22
26 26 25 24 22 19 19 20 18 20 18 17 17 17 16 16 17 16 16 16 16 16 16 16 16 16 16 15 15 15 15 14 15 15 15 16 15 15 17 18 19 19 19 20 21 21 22 22 22
25 26 26 27 25 22 20 19 18 18 18 15 16 16 16 17 17 16 16 16 16 15 16 16 16 16 16 15 15 15 15 15 15 16 15 15 16 17 17 17 18 18 19 20 20 20 21 21 22

GEFSSGP_500_meanwind_174.txt.gz
Wind_Speed
11 12 12 13 13 15 17 17 17 16 14 13 12 12 12 10 8 8 7 4 4 4 4 4 3 3 4 4 3 3 3 3 2 2 3 3 4 5 6 6 6 6 6 6 7 7 7 7 7
9 10 11 12 12 14 16 16 16 14 14 13 12 11 10 8 7 7 6 5 4 4 3 3 3 3 3 3 3 2 3 3 2 2 3 3 4 4 4 4 5 5 5 5 6 6 6 7 7
6 7 9 9 10 13 15 16 16 15 15 13 13 12 10 8 7 6 5 5 5 4 3 3 2 2 3 3 2 2 2 2 2 2 2 2 3 3 3 3 4 4 4 4 5 5 6 6 6
4 5 5 6 9 11 13 14 15 16 15 13 12 12 10 9 8 7 5 5 4 4 3 3 2 2 2 2 2 2 1 2 2 2 2 2 2 2 2 2 2 3 3 4 4 5 5 5 5
2 2 4 6 8 10 12 13 14 15 15 13 11 11 10 9 8 7 6 5 5 4 3 2 1 1 2 2 2 2 1 1 2 2 2 2 1 1 1 1 2 2 3 3 4 4 4 5 5
2 2 3 4 6 7 10 12 14 14 14 13 11 11 10 10 9 8 7 6 5 4 3 1 1 1 2 2 2 1 1 1 1 2 1 1 1 1 1 1 1 2 2 2 3 3 4 4 5
3 3 2 4 5 5 7 11 13 14 14 12 10 10 10 10 9 8 7 7 5 4 2 1 1 1 2 2 1 1 1 0 1 1 1 1 1 1 1 1 1 1 2 2 3 3 3 3 4
4 3 3 3 4 3 5 9 12 13 13 13 11 10 10 9 9 8 7 6 5 4 3 2 1 1 2 2 2 1 1 1 0 0 1 1 1 0 0 0 1 1 1 2 2 3 3 4 3
6 5 3 2 3 2 3 7 10 11 13 13 12 10 10 8 8 8 7 6 5 4 3 2 1 1 1 2 2 1 1 1 1 1 0 0 0 0 0 1 1 1 1 1 2 3 3 3 2
8 8 6 4 1 1 3 7 10 10 12 13 13 12 10 8 7 7 7 6 5 4 4 3 1 1 1 2 2 2 2 2 1 1 1 0 1 0 0 1 1 1 1 1 2 2 2 2 2
11 10 8 6 3 3 4 8 10 10 11 11 11 11 10 8 6 6 6 6 6 5 4 3 1 0 1 2 2 2 2 2 2 2 2 1 1 1 1 1 1 0 0 1 1 1 2 2 2
14 14 12 9 6 6 6 8 10 11 11 10 10 10 10 8 5 5 5 5 6 5 5 3 2 1 2 3 3 2 2 3 3 3 3 2 2 2 1 1 2 1 1 1 2 2 2 2 2
16 15 14 11 10 9 10 10 12 12 11 11 10 10 11 9 6 5 4 5 5 5 5 4 3 2 2 3 3 3 3 3 3 4 4 3 3 2 2 2 2 2 1 1 1 2 2 2 2
16 16 14 13 11 11 12 11 12 12 11 10 10 10 10 10 8 6 5 4 5 4 4 4 3 2 2 3 4 4 4 4 5 5 4 4 4 4 3 3 2 2 2 2 2 2 2 2 2
17 16 14 13 11 11 12 12 11 12 12 11 11 10 10 9 8 7 6 4 4 4 4 4 3 2 2 3 4 4 5 5 6 6 6 6 5 4 4 4 3 3 3 2 2 3 3 3 2
18 16 14 13 12 11 12 12 12 12 13 12 11 11 11 9 9 8 6 5 5 4 4 4 3 3 3 2 3 4 5 6 6 7 7 7 6 6 5 5 5 5 4 3 3 3 3 3 3
19 17 15 14 12 13 13 12 11 13 14 13 13 12 10 9 9 8 6 5 5 4 4 4 3 4 4 3 3 4 4 5 6 7 7 8 8 7 7 6 6 5 5 4 4 4 4 4 3
19 19 18 16 14 14 13 12 12 14 14 13 13 12 10 10 10 9 7 6 5 5 4 4 4 4 4 4 3 4 4 5 6 7 8 7 8 8 8 7 7 7 7 6 6 6 5 5 5
22 22 21 18 15 14 14 14 14 15 15 14 13 12 12 12 11 10 9 8 7 6 5 4 4 5 5 5 5 5 5 6 6 7 8 8 9 10 10 9 9 8 8 8 8 7 6 6 6
25 24 22 20 16 15 15 16 17 16 15 15 15 13 13 12 12 11 10 9 8 6 5 5 6 6 5 6 6 6 6 6 6 6 8 9 9 10 11 11 11 10 10 10 10 9 9 8 8
26 25 23 20 18 18 18 18 18 17 16 16 15 14 13 12 11 11 11 11 10 7 6 6 7 7 7 7 8 7 7 7 7 7 8 9 9 10 10 11 12 12 11 11 12 12 11 11 10
26 25 25 23 22 22 22 21 19 19 18 17 16 15 14 12 13 12 12 13 12 10 8 7 7 8 8 8 8 8 8 8 7 7 8 9 10 11 11 10 12 12 13 13 13 13 13 13 12
25 26 27 26 25 24 23 23 20 20 20 18 17 16 16 13 14 14 13 13 12 11 9 9 9 9 9 9 9 9 9 8 8 8 9 9 10 11 11 11 11 13 13 13 14 15 15 14 13
26 27 28 28 27 26 24 24 21 20 20 19 18 18 16 16 16 15 14 14 13 11 10 10 9 10 10 10 9 9 9 9 9 9 9 10 10 11 12 12 13 13 14 13 14 15 15 16 15
29 29 29 30 29 26 23 26 22 19 20 19 18 18 18 17 16 15 14 14 13 12 11 11 11 11 11 11 10 9 10 9 10 11 10 10 11 11 11 13 13 14 14 14 15 15 16 17 17
29 29 28 28 26 23 23 25 21 19 19 19 17 17 17 16 15 14 14 13 13 12 12 12 12 12 12 12 12 11 10 10 10 11 11 10 11 12 12 13 13 14 14 14 15 16 17 18 18
29 28 26 27 26 25 24 22 19 18 18 17 16 16 15 14 14 12 13 13 13 13 13 12 12 12 11 11 12 11 10 10 11 11 11 11 12 13 14 14 14 14 15 16 16 17 18 18 18
28 26 28 28 27 26 23 21 18 17 16 16 15 15 15 14 13 13 12 11 13 13 12 12 12 11 12 12 12 12 11 10 10 11 12 12 13 13 14 15 15 15 16 16 16 17 18 18 19
28 28 29 28 28 27 24 21 19 17 16 14 13 15 15 15 14 12 11 11 12 12 12 11 12 12 12 12 13 12 12 11 11 11 13 14 14 14 15 15 16 16 16 16 17 18 19 19 19
26 27 28 29 28 26 25 21 20 18 15 14 13 13 13 14 14 13 11 10 12 12 11 11 12 12 12 13 13 12 12 12 12 12 13 14 14 15 16 16 16 16 17 17 17 18 19 19 20

GEFSSGP_500_meanwind_180.txt.gz
Wind_Speed
12 12 13 14 15 17 18 20 20 19 18 17 16 14 13 11 10 8 8 8 6 5 5 6 7 8 8 9 10 11 11 10 10 9 9 9 8 7 7 7 7 7 7 7 7 7 6 6 6
9 10 11 13 15 16 18 19 20 19 17 17 17 15 13 11 9 8 8 7 6 5 5 6 7 7 8 8 9 10 10 10 9 9 9 8 7 7 7 7 7 7 6 6 6 6 6 6 6
7 8 9 12 14 15 17 18 19 18 17 17 17 15 13 11 9 8 8 7 5 5 6 6 7 7 7 8 8 9 9 10 9 9 8 7 7 7 6 7 7 6 6 6 6 6 6 6 6
5 5 7 10 12 14 15 17 18 18 17 17 16 15 13 11 9 8 7 7 5 4 5 6 6 6 7 7 8 8 8 9 8 8 7 7 7 6 7 7 6 6 6 6 5 5 5 5 5
4 4 6 8 9 12 14 15 16 17 17 17 16 15 13 11 9 8 7 6 5 4 5 6 6 6 7 7 8 8 8 8 7 7 6 6 6 6 6 6 6 6 6 5 5 5 5 5 5
2 3 4 5 7 9 12 13 15 16 17 16 16 14 12 11 9 8 7 6 5 4 5 5 6 6 6 6 7 7 7 7 6 6 6 5 6 6 6 6 5 5 5 4 4 4 5 5 5
0 2 2 3 5 7 9 12 14 16 16 16 15 14 12 11 9 8 7 6 6 5 5 5 5 5 6 6 7 7 7 6 6 5 5 5 5 5 5 5 5 5 4 4 4 4 4 4 4
2 2 2 3 4 6 8 10 12 14 15 16 15 14 12 11 10 8 7 6 6 6 6 5 5 5 5 6 6 6 5 5 5 5 4 4 4 4 4 4 4 4 4 3 3 3 4 4 3
5 4 3 3 4 5 7 9 10 12 14 15 15 14 13 12 10 9 8 6 6 5 6 5 5 4 4 5 5 5 4 4 4 4 4 4 4 4 3 4 4 3 3 3 3 3 3 3 3
7 6 5 4 3 5 6 7 9 10 12 13 13 14 13 12 11 10 8 7 6 5 5 4 4 3 3 3 3 4 4 3 3 3 3 3 3 3 3 3 3 3 3 3 2 2 2 3 3
9 8 8 6 5 5 6 6 7 9 10 11 12 13 13 12 11 10 8 7 6 5 5 4 3 2 2 2 3 3 3 3 3 2 2 1 2 2 3 3 2 2 2 2 2 1 2 2 2
11 10 10 8 7 6 5 5 6 8 9 9 10 11 12 11 10 10 8 7 6 5 4 4 3 2 2 1 2 2 3 3 3 2 2 2 2 1 1 2 1 2 2 2 2 1 1 2 2
12 11 11 10 9 8 7 5 6 7 8 8 8 9 10 11 10 9 8 7 6 5 4 3 3 2 1 1 1 2 3 3 3 3 3 2 2 1 1 1 1 1 1 1 1 1 1 1 1
14 13 13 13 12 11 9 7 6 6 6 7 7 8 10 10 10 9 8 6 6 5 4 3 2 1 1 2 2 3 3 3 3 3 3 2 2 2 2 2 1 2 2 2 2 1 1 1 1
16 16 16 15 15 14 11 9 7 5 5 5 6 7 9 9 9 8 7 6 5 5 5 4 2 1 1 0 2 3 4 3 3 3 4 3 3 3 3 3 3 2 2 2 2 2 1 1 1
18 18 17 17 16 15 13 10 9 6 5 5 5 6 7 8 9 7 7 7 6 5 5 5 4 2 1 1 2 3 4 4 5 5 4 4 5 4 5 5 4 4 3 3 3 2 2 2 2
20 19 18 18 18 17 15 12 10 8 6 5 5 5 6 7 7 7 7 6 7 7 6 5 4 4 3 2 3 4 4 5 5 5 5 6 6 6 6 7 6 5 5 5 4 3 3 3 3
21 20 19 20 20 18 16 14 12 11 8 6 6 6 6 6 7 7 7 7 7 8 7 6 4 4 4 4 4 4 4 5 6 6 6 7 8 8 8 8 7 7 7 7 6 5 4 4 4
23 22 21 22 22 20 18 16 14 13 10 8 7 6 6 7 7 6 7 8 8 8 8 6 5 5 6 5 4 4 5 6 6 7 7 8 9 9 9 9 9 9 8 8 8 7 6 6 6
25 24 23 24 25 23 21 19 17 15 12 10 9 7 7 7 7 7 8 9 9 9 8 7 7 6 6 6 5 4 4 5 6 7 8 9 10 10 10 10 9 9 10 10 9 9 9 8 8
27 25 24 26 27 25 23 22 20 17 15 13 10 8 8 8 9 10 10 10 10 9 8 8 8 7 7 7 6 6 6 6 7 7 8 9 9 10 10 10 10 10 10 10 11 11 11 10 10
27 26 27 28 29 28 26 24 21 18 16 14 12 11 10 10 10 10 11 11 11 10 9 9 9 8 7 7 8 8 8 8 8 9 9 9 9 10 10 10 11 11 11 11 11 12 12 13 13
28 29 29 30 31 30 29 26 22 20 17 15 14 13 13 12 11 11 12 12 12 11 10 10 10 9 9 9 9 9 9 9 9 10 10 10 10 10 10 10 11 11 12 12 12 13 13 14 14
31 31 31 32 32 32 29 28 24 21 18 17 16 15 15 14 13 13 13 14 14 13 13 12 12 11 11 10 10 10 10 10 10 10 11 11 11 11 11 11 12 12 13 13 13 13 14 14 15
32 32 32 32 33 32 29 29 26 21 19 18 18 17 16 15 15 15 14 14 14 14 14 13 12 12 11 11 12 11 11 11 11 11 12 12 11 11 12 12 13 13 14 15 15 14 15 16 16
32 32 32 32 32 31 29 29 26 22 20 19 18 18 17 16 16 16 15 15 15 15 14 14 13 13 12 12 13 12 12 12 11 11 12 13 13 13 13 14 14 14 14 14 15 15 15 16 17
33 32 31 32 32 31 30 28 25 22 20 19 18 17 16 15 15 16 16 15 15 15 14 14 13 12 13 13 13 13 12 12 12 13 12 13 13 13 13 14 15 16 16 16 16 16 16 16 17
33 32 32 33 32 31 29 27 24 22 21 19 17 17 15 15 15 15 15 15 15 15 15 15 13 12 12 13 13 14 14 13 13 12 13 13 12 13 14 14 15 15 16 17 17 18 18 18 19
33 33 33 33 32 30 29 25 22 22 20 18 16 15 14 15 16 16 16 15 15 15 15 14 13 13 13 14 14 14 14 14 14 13 14 13 13 14 14 15 15 16 16 17 18 19 19 20 20
33 33 32 32 31 29 27 23 21 20 21 19 17 15 14 15 17 16 15 16 15 14 14 13 13 13 13 14 15 14 14 14 14 14 14 14 14 14 15 15 16 16 17 18 19 19 19 19 19

GEFSSGP_500_meanwind_186.txt.gz
Wind_Speed
17 17 17 17 19 16 14 15 15 16 15 15 14 14 13 12 11 11 10 9 9 8 8 7 7 8 9 10 11 12 12 13 13 12 12 12 11 11 10 10 10 9 9 9 8 8 8 8 8
15 16 16 17 18 14 14 14 15 15 15 14 14 14 14 12 11 10 9 9 8 8 7 7 7 7 8 9 9 11 12 12 12 12 11 11 10 10 9 9 9 9 8 8 8 8 8 7 7
13 14 14 16 15 14 14 14 14 14 14 14 13 13 13 12 11 9 9 8 7 7 6 6 6 7 7 8 9 10 11 11 11 11 10 10 10 9 9 9 8 8 8 7 8 8 7 7 7
12 13 13 14 13 14 14 14 14 14 14 14 13 13 13 12 11 9 8 7 7 6 6 6 6 6 7 8 8 9 11 11 11 11 10 10 9 10 9 8 8 8 8 7 7 7 6 6 6
11 12 12 10 11 12 14 13 13 14 14 14 13 13 13 12 11 9 8 7 6 6 5 5 5 6 6 7 8 8 9 10 10 10 9 9 9 9 9 8 8 8 7 7 7 6 6 6 6
9 10 10 8 9 11 12 13 14 14 14 14 14 14 13 12 11 10 9 8 7 5 5 4 5 5 6 7 7 8 8 9 9 9 9 8 8 8 8 8 7 7 7 7 6 6 5 5 5
7 8 8 8 8 9 11 12 13 14 13 13 14 14 13 12 11 10 9 8 7 5 4 4 4 5 6 6 6 6 7 7 8 8 8 7 7 7 7 7 7 6 6 6 6 5 6 5 5
5 6 6 7 7 7 9 10 12 12 13 13 13 13 13 12 10 9 8 8 7 5 4 3 3 4 4 5 6 6 6 7 7 7 7 6 6 7 6 6 6 6 6 6 5 5 5 5 5
4 5 4 4 5 6 7 8 10 11 11 12 12 13 12 12 10 9 8 7 6 4 3 3 2 3 3 5 5 5 5 6 6 6 6 6 6 6 6 6 6 6 5 5 5 4 4 4 4
3 4 3 3 4 5 6 7 8 9 10 10 11 11 11 11 11 9 8 6 5 4 3 2 2 2 2 4 4 5 5 5 5 6 6 5 5 5 5 5 5 5 6 5 5 4 4 4 4
3 4 3 3 3 3 4 5 6 8 9 9 9 9 10 10 10 9 8 6 5 3 2 2 2 1 2 3 4 4 5 5 5 5 5 5 5 5 5 4 5 5 5 5 4 4 4 4 4
5 4 4 3 2 3 3 4 5 6 7 7 7 8 9 9 9 8 7 6 5 4 3 2 1 1 1 2 3 3 4 4 5 5 5 5 5 5 4 4 4 4 4 4 4 4 3 3 3
7 6 6 4 2 2 2 2 3 4 5 5 6 7 8 9 8 7 6 6 5 4 3 3 2 1 1 2 3 3 4 4 4 4 4 5 5 4 4 4 4 4 4 4 4 3 3 3 2
9 8 8 6 4 3 2 1 1 2 3 4 4 5 7 8 8 7 7 6 5 4 3 3 2 2 1 2 3 3 3 4 4 4 4 4 5 4 4 4 3 3 3 4 4 3 3 2 2
11 10 10 9 7 5 4 3 2 1 2 2 3 4 6 7 7 7 6 6 5 4 4 3 3 3 2 2 2 3 3 4 5 5 5 5 5 4 4 4 3 3 3 4 4 3 2 2 1
14 13 12 12 9 7 5 5 4 3 3 2 3 4 5 6 6 6 6 5 5 5 4 4 4 4 3 3 3 3 3 4 5 6 6 5 5 5 5 5 5 4 3 4 4 3 3 2 2
16 15 14 14 11 9 8 7 7 5 5 4 4 4 4 5 6 5 5 5 5 5 5 5 4 4 3 2 3 3 4 4 4 5 5 6 6 5 5 6 6 5 5 4 4 4 3 3 3
18 17 17 17 13 11 10 9 8 7 6 5 5 5 5 5 5 5 5 5 5 5 6 5 4 4 3 3 3 4 5 5 5 5 6 7 7 6 6 6 7 7 6 6 5 5 5 5 5
20 19 19 19 16 14 12 11 10 9 7 7 7 7 6 6 6 6 6 6 6 6 7 6 5 4 3 4 4 4 5 6 6 7 8 7 8 8 8 8 8 8 7 7 6 7 7 6 6
22 21 21 20 17 15 14 13 12 11 9 9 8 8 8 7 6 7 7 8 7 8 8 8 6 4 4 4 4 4 4 5 6 7 8 9 8 8 8 8 9 9 8 8 9 8 8 8 8
24 23 22 21 19 17 16 15 14 13 12 11 10 10 9 9 8 8 8 8 9 9 10 9 8 7 6 6 7 7 6 6 7 7 8 9 9 10 9 9 9 10 10 10 10 10 10 10 10
26 25 24 22 21 20 18 17 17 15 14 13 12 11 11 11 10 10 10 10 10 11 11 11 10 8 8 8 9 9 8 7 7 7 8 8 9 9 9 8 9 10 10 10 10 11 11 12 12
28 26 25 24 23 23 21 19 19 17 16 15 13 13 13 13 12 12 12 12 12 13 12 12 11 10 10 10 9 9 9 9 8 8 9 10 9 9 9 9 9 9 10 11 11 11 11 12 13
29 27 26 25 25 25 23 21 20 19 16 16 15 15 14 14 14 14 14 14 14 14 13 13 12 12 11 11 10 10 10 11 10 9 10 11 11 10 10 10 10 10 11 12 12 12 13 13 14
29 28 27 27 27 25 24 23 21 20 17 17 17 16 15 15 15 15 14 14 14 14 14 13 12 12 11 12 12 12 11 11 11 11 11 12 12 12 11 11 11 11 12 12 13 14 14 15 15
29 29 28 25 23 24 25 24 22 20 18 18 18 17 16 15 15 15 15 14 14 14 13 12 12 13 12 13 13 13 13 12 12 13 12 12 13 13 13 13 13 13 13 13 14 15 15 15 16
30 30 29 28 26 23 25 23 22 20 18 18 18 18 16 16 16 16 16 14 14 14 13 13 14 14 13 13 13 13 13 12 12 12 12 12 12 13 13 14 14 14 15 15 15 15 16 17 17
31 30 30 29 27 24 24 23 21 20 19 19 19 18 17 17 16 16 16 15 15 14 14 15 16 15 15 14 14 13 14 14 13 13 13 13 14 14 13 13 14 14 15 16 16 16 16 17 18
30 31 30 29 28 23 20 21 21 19 19 19 19 19 18 17 17 17 17 16 16 16 15 16 16 14 15 15 15 14 14 14 14 14 14 14 15 14 14 14 14 15 16 16 16 17 18 18 19
30 30 29 29 28 25 21 20 21 19 19 19 19 19 18 18 17 17 17 17 17 17 16 16 16 15 15 15 15 15 15 15 14 14 14 14 15 16 15 15 16 16 16 16 17 18 19 19 20

GEFSSGP_500_meanwind_192.txt.gz
Wind_Speed
21 21 21 21 23 16 11 9 9 8 8 8 7 7 7 7 6 5 6 6 7 6 6 6 5 4 4 4 3 4 5 6 7 7 8 8 8 9 10 10 10 10 9 9 9 9 9 9 8
20 18 21 24 18 12 11 11 10 9 8 7 6 6 7 6 6 6 6 7 7 6 6 5 4 4 3 2 2 3 4 5 6 7 7 7 8 8 9 9 9 9 8 9 9 9 8 8 8
19 18 23 20 11 10 10 11 11 10 9 7 7 6 6 7 7 6 6 6 6 6 6 5 4 4 3 2 1 1 2 4 5 6 6 6 7 8 8 8 8 8 8 8 9 8 8 7 7
17 21 22 13 10 11 10 11 11 10 9 8 8 6 6 7 7 6 6 6 5 5 5 5 4 3 2 2 1 1 2 3 4 5 5 6 6 7 7 7 7 8 8 8 8 7 7 7 7
17 20 16 10 10 10 11 11 10 9 9 9 8 7 7 7 7 7 6 6 6 5 5 4 4 3 3 2 1 1 1 2 3 4 5 5 5 6 6 6 7 7 7 7 7 7 7 7 6
17 17 11 8 7 8 9 10 9 9 9 9 9 8 8 7 6 6 6 7 6 5 5 4 4 3 3 2 2 1 0 1 2 2 3 4 4 5 5 6 6 6 6 6 6 6 6 6 6
14 13 9 7 7 7 8 8 9 9 10 9 10 9 9 8 7 7 7 7 6 6 6 5 5 4 3 2 2 2 1 1 1 1 2 2 3 4 4 5 5 5 5 5 5 5 5 5 5
13 13 8 4 5 6 7 7 8 8 10 9 10 10 9 9 8 7 7 6 6 6 6 5 5 4 3 3 3 2 2 1 0 1 1 1 2 3 3 4 4 4 5 5 5 4 4 5 5
11 11 5 3 2 4 6 6 7 8 9 10 10 10 10 9 9 8 8 7 6 6 6 6 5 5 4 3 3 2 2 2 1 1 1 1 2 2 3 4 4 4 4 4 4 4 4 4 4
8 7 4 2 1 2 4 5 6 7 8 9 10 10 10 9 9 9 8 8 7 7 6 5 5 5 5 4 3 3 2 2 1 1 1 1 1 2 3 3 3 3 3 3 3 3 3 3 3
6 4 3 2 3 1 1 3 5 7 8 9 8 10 10 9 9 9 9 8 7 7 7 6 6 6 5 5 4 3 2 2 1 1 1 1 1 2 2 2 2 2 2 3 2 2 3 3 3
7 6 4 5 4 3 1 1 3 6 7 7 8 9 10 10 9 9 9 9 8 7 7 7 7 6 6 5 4 3 2 2 2 2 1 1 1 1 1 1 2 2 2 2 2 2 3 3 3
8 7 6 5 4 4 2 3 4 5 7 7 8 9 10 10 10 9 9 9 9 8 8 7 8 7 6 5 5 4 3 3 3 2 2 1 0 1 1 1 1 1 1 1 1 1 1 2 2
9 8 7 5 5 5 3 4 4 6 7 7 8 8 9 10 10 10 9 9 10 9 8 8 8 8 7 6 5 4 4 4 3 2 2 1 0 0 0 1 1 1 0 0 0 0 0 0 1
10 8 7 7 6 5 4 4 6 8 9 8 8 9 9 10 10 10 10 10 10 9 9 9 8 8 7 6 6 5 4 4 3 2 2 2 1 1 1 1 1 1 1 1 1 1 0 0 1
9 8 7 8 9 7 5 6 7 10 9 9 9 9 9 10 10 10 10 10 10 10 10 9 9 9 8 6 6 6 5 4 4 3 3 3 3 3 2 2 2 2 2 2 2 2 1 1 1
10 9 7 9 12 10 8 9 10 11 10 10 9 9 9 9 10 10 11 11 10 10 10 10 9 9 8 7 6 6 6 5 4 4 3 3 3 4 4 4 4 4 3 3 3 3 3 3 2
9 9 9 11 15 13 11 11 12 13 12 10 9 9 9 9 9 10 11 11 11 10 10 10 10 9 9 8 7 7 7 6 5 5 5 4 4 4 5 5 5 5 5 4 4 4 4 4 4
14 14 13 14 18 16 13 12 14 13 13 12 10 10 9 10 9 10 11 10 10 11 11 11 10 10 9 9 8 7 7 6 5 5 6 5 5 5 6 6 7 6 6 6 5 5 5 5 6
18 18 16 16 18 18 15 14 14 13 13 12 11 11 11 10 10 10 11 11 11 11 12 12 11 11 10 10 10 8 7 7 6 6 7 7 7 7 7 7 7 7 8 7 7 7 7 7 7
22 19 18 17 18 17 15 14 14 13 13 14 14 13 12 11 11 10 11 11 11 12 13 13 12 11 11 10 10 10 9 8 7 7 8 8 8 8 8 8 8 8 8 8 8 8 8 8 9
23 21 20 19 18 17 15 14 16 16 16 16 15 14 13 13 12 11 11 11 12 13 14 14 13 13 12 12 11 11 10 9 9 7 7 8 8 9 9 9 8 8 9 9 9 10 10 10 10
23 22 20 19 19 19 17 16 15 18 19 18 17 15 15 14 13 12 11 12 13 14 14 14 14 13 13 12 12 11 11 11 10 9 9 9 9 9 9 9 9 9 9 9 10 10 11 11 11
24 22 21 21 20 21 18 17 17 17 19 18 17 17 16 15 15 14 12 13 14 14 14 13 14 13 13 12 12 12 13 13 12 10 10 10 9 9 9 8 9 9 9 9 10 11 11 12 13
26 24 23 21 20 18 16 18 18 18 19 18 18 18 18 17 16 15 14 13 14 14 14 13 13 12 12 12 12 13 14 13 12 11 10 10 10 9 9 10 10 10 10 11 11 11 12 14 14
27 26 23 19 16 15 16 18 18 19 20 20 20 19 19 18 17 16 15 14 14 14 14 13 13 12 12 12 13 13 13 13 12 11 11 10 10 10 10 10 10 10 10 11 12 13 14 14 15
28 27 23 19 17 15 14 16 19 22 21 21 20 20 20 18 17 17 16 16 15 15 13 13 13 12 13 13 13 13 13 12 12 13 12 12 12 12 11 11 11 11 11 12 12 13 14 14 15
28 26 25 25 23 19 15 16 19 22 20 20 20 19 19 18 18 18 17 16 16 15 15 14 13 13 13 13 14 14 14 14 14 14 14 14 13 12 12 12 12 12 12 12 13 13 14 15 16
28 28 27 26 25 20 17 16 18 22 22 20 18 18 18 18 18 19 18 17 16 15 15 15 15 15 14 14 15 16 16 16 16 15 14 14 13 13 13 13 13 13 13 13 14 14 15 16 17
28 28 27 28 27 24 20 17 17 20 22 21 19 18 19 19 19 19 18 16 16 16 16 16 16 16 15 16 17 18 17 17 16 15 14 14 14 13 13 13 14 14 14 15 15 15 16 17 17

GEFSSGP_500_meanwind_198.txt.gz
Wind_Speed
18 18 18 19 21 20 21 21 20 18 16 17 16 15 14 11 10 10 10 10 11 12 11 10 10 10 10 9 8 7 6 6 6 6 6 7 7 8 9 9 9 9 9 9 9 9 9 9 9
18 18 18 19 21 21 22 21 20 18 18 17 16 14 13 11 10 10 10 10 12 11 11 10 10 10 9 9 8 7 6 6 6 6 6 6 7 7 8 8 8 8 8 8 8 9 9 9 9
16 16 18 20 21 22 23 22 21 20 18 17 16 15 13 11 11 11 10 10 11 11 10 10 10 9 9 8 8 7 6 6 5 5 5 5 6 6 7 7 7 7 8 8 8 8 8 8 9
14 14 17 19 21 22 22 22 21 19 18 18 17 16 13 12 12 11 11 11 11 10 9 9 9 9 8 8 7 6 6 5 5 5 5 5 5 5 6 6 7 7 7 7 8 8 8 8 8
12 13 16 18 20 21 21 22 21 19 18 18 17 16 14 13 13 12 12 11 11 10 9 9 9 9 8 8 7 6 6 5 5 5 5 4 4 4 4 5 6 6 7 7 7 7 7 7 8
10 13 14 15 17 18 20 21 21 18 18 17 17 17 16 14 13 12 12 11 11 10 9 9 9 9 8 8 8 7 6 5 5 5 5 4 4 4 4 5 5 5 6 6 6 7 7 7 7
8 12 12 14 15 17 19 19 19 18 17 17 17 17 17 15 13 12 12 12 11 10 9 9 9 9 8 8 7 6 5 5 5 5 4 3 3 3 4 4 4 5 5 5 6 6 7 7 7
8 10 10 11 12 14 16 17 17 17 18 17 17 17 17 16 15 13 13 12 11 10 9 9 9 8 7 7 7 6 5 5 4 4 4 3 3 3 3 3 4 4 5 5 6 6 6 6 6
7 8 7 8 9 11 13 15 16 17 17 18 18 18 16 15 14 14 13 13 12 11 10 9 9 9 8 7 7 6 5 5 5 4 3 3 3 3 2 3 4 4 4 4 5 5 5 5 5
6 6 6 7 7 9 11 12 14 16 17 18 18 17 16 15 14 14 13 13 12 12 11 11 10 9 8 8 7 6 6 5 4 4 3 3 3 3 3 3 3 3 4 4 4 4 4 5 4
3 3 4 5 4 6 8 10 12 14 16 17 17 17 16 15 14 14 13 13 13 11 11 10 10 9 9 8 8 7 6 5 4 3 3 3 4 4 4 4 3 3 3 4 4 4 4 4 4
5 2 1 2 3 5 7 9 10 12 14 15 16 16 15 15 14 14 13 13 13 12 11 9 9 9 9 8 7 7 6 5 4 4 4 4 4 4 4 4 4 3 3 3 4 3 4 4 4
7 6 3 1 1 3 5 8 10 11 12 14 15 14 14 14 13 13 13 13 13 13 12 10 8 8 8 8 7 6 6 5 4 3 3 4 4 4 3 3 3 3 3 3 3 3 3 3 3
9 8 5 3 2 3 5 7 9 10 11 12 13 12 12 13 13 13 13 13 13 13 12 11 9 8 8 8 7 7 6 5 4 3 3 3 3 3 3 3 3 2 2 2 2 3 3 3 3
9 8 6 4 3 4 6 7 8 9 10 11 11 11 11 12 12 13 13 13 13 13 13 12 10 9 8 8 7 7 6 5 4 4 3 3 2 2 2 2 2 2 1 2 2 2 2 2 2
11 10 8 5 3 4 6 8 8 9 10 10 10 11 11 11 11 12 13 13 13 13 13 13 12 10 9 8 7 7 6 5 4 4 3 3 2 2 1 1 1 1 1 1 1 1 1 1 0
13 11 10 8 5 6 7 9 9 9 9 9 9 9 10 10 11 11 12 12 12 13 13 13 12 11 10 9 8 7 6 5 4 3 3 2 1 1 0 1 1 1 1 1 1 2 2 2 2
14 12 12 9 7 8 9 10 10 9 8 8 8 9 10 10 10 10 11 11 11 12 13 13 12 11 10 9 9 7 5 4 3 3 2 2 1 0 1 2 2 2 2 2 3 3 3 3 3
16 15 13 11 10 11 11 12 11 11 9 9 9 9 9 9 9 9 9 10 10 11 11 12 12 11 10 9 9 7 6 4 3 3 3 1 1 1 2 2 2 3 3 3 4 4 4 4 4
19 17 16 13 12 12 13 13 13 12 11 10 9 8 8 8 8 9 10 8 9 10 11 11 11 10 9 9 8 7 5 4 4 4 3 2 2 2 3 4 3 4 5 5 5 5 5 6 5
20 20 18 16 13 13 14 14 14 14 12 10 10 9 8 8 9 10 10 10 9 9 10 10 10 10 9 8 8 7 6 5 5 5 5 4 4 4 4 5 5 5 6 6 7 7 7 7 7
21 20 20 18 16 16 16 16 13 14 13 10 10 10 9 9 10 10 10 10 10 9 10 10 10 10 9 8 7 6 6 5 6 6 5 5 5 6 6 6 6 6 7 7 7 7 8 9 9
21 21 21 20 19 17 17 18 15 15 13 11 11 12 11 10 10 11 10 10 10 10 10 10 10 10 9 8 7 6 6 6 6 6 5 6 6 6 7 7 7 7 7 8 8 9 9 10 10
24 24 24 23 22 20 18 20 18 16 14 13 13 12 12 11 11 11 10 10 10 10 10 10 10 9 8 8 7 7 6 6 7 6 6 6 6 6 7 7 7 7 8 9 9 10 11 11 11
26 26 26 25 24 22 20 20 17 15 14 13 13 13 12 11 11 11 11 10 10 10 10 10 9 9 9 8 7 7 8 8 8 8 8 7 6 6 7 6 6 7 8 9 9 10 11 12 12
28 27 27 26 25 21 20 20 16 14 14 14 14 13 12 11 12 12 12 11 10 11 11 10 9 8 9 9 8 8 9 9 9 9 8 8 8 8 8 8 8 8 9 10 10 10 11 12 12
28 28 27 27 26 23 20 17 15 15 14 14 14 14 13 12 12 13 13 11 11 12 12 9 9 8 9 9 9 9 9 9 9 9 9 9 9 10 10 10 9 10 10 10 11 11 11 12 12
28 28 28 28 27 25 21 18 16 14 15 14 15 15 14 14 13 13 13 12 12 13 12 10 9 9 9 9 10 10 9 10 11 10 10 10 11 11 11 10 10 10 10 10 11 11 11 11 12
28 29 29 28 28 26 23 21 18 16 16 16 15 16 16 15 14 14 13 13 13 14 12 11 11 10 10 10 10 10 10 11 11 11 11 12 12 11 11 10 9 9 9 10 11 12 13 13 13
27 27 28 29 29 28 25 22 20 18 17 17 16 16 16 15 14 14 14 14 15 14 13 12 12 12 11 11 11 11 11 11 12 13 13 13 12 11 11 10 10 10 10 12 12 13 14 14 14

GEFSSGP_500_meanwind_204.txt.gz
Wind_Speed
20 21 21 21 21 20 21 23 23 22 20 19 18 18 17 16 14 14 13 12 11 10 11 12 12 12 13 12 12 12 11 10 10 10 9 9 9 8 8 8 8 9 9 9 9 9 9 9 9
19 19 20 21 22 21 23 24 23 21 20 20 20 18 17 15 14 13 13 11 10 10 11 12 12 12 12 11 11 10 10 10 10 10 9 9 8 8 7 8 8 8 8 9 9 9 9 9 9
18 19 19 20 21 23 24 24 23 22 20 20 20 19 16 15 14 13 12 10 9 10 11 12 12 12 12 11 10 10 9 9 9 9 8 9 8 7 7 7 8 8 8 9 9 8 9 9 9
18 19 19 20 22 23 24 24 23 22 21 20 19 18 16 14 13 12 11 9 8 9 10 11 12 11 11 11 10 9 9 8 8 8 8 8 8 8 7 7 7 8 8 8 8 8 8 8 8
16 18 18 19 21 22 23 23 23 22 20 19 19 18 16 14 13 12 11 10 9 9 10 10 11 11 11 11 10 9 9 8 8 8 8 8 7 7 7 7 7 7 7 8 8 7 7 8 7
14 16 18 18 19 21 23 23 23 22 20 19 19 18 17 15 14 13 12 10 9 9 9 10 10 10 10 10 10 10 9 8 7 7 8 7 7 7 7 6 6 7 7 7 7 7 7 7 7
12 14 17 17 19 21 22 23 23 22 20 19 18 18 17 15 14 14 13 11 10 10 10 10 9 9 9 9 9 9 8 7 7 7 7 7 6 6 6 6 6 6 7 7 7 6 6 7 7
10 12 15 17 18 20 21 22 22 21 20 19 18 18 17 16 15 15 14 13 12 11 11 10 9 9 9 9 8 8 8 7 6 6 6 6 6 6 6 6 6 6 6 6 6 6 6 6 6
7 10 13 15 17 18 19 20 20 19 19 19 19 18 17 16 15 15 15 14 13 12 11 10 9 9 8 8 8 7 7 7 6 6 6 6 5 5 6 6 6 6 6 6 5 5 6 6 5
5 7 10 12 15 16 18 19 19 19 19 19 18 18 17 16 15 15 15 15 14 13 11 10 9 8 7 7 7 7 7 6 6 6 5 5 5 5 6 6 6 6 6 6 5 5 5 5 5
2 4 6 9 12 13 16 17 17 17 17 18 18 17 16 16 15 15 15 15 15 14 12 10 9 8 7 7 6 6 6 6 6 6 5 5 5 5 6 6 6 6 6 5 5 4 4 4 4
1 2 4 6 9 11 13 15 15 16 17 16 16 16 16 16 16 15 15 15 15 14 12 11 9 8 7 7 7 6 5 5 5 5 5 4 5 5 5 5 5 5 5 4 4 3 3 3 3
3 1 1 4 6 9 11 13 14 15 15 15 15 15 15 16 15 15 15 14 15 14 13 11 9 8 7 7 7 6 5 5 5 5 5 5 5 5 5 4 4 5 4 4 4 3 3 3 2
5 4 1 2 4 7 9 11 12 14 14 14 14 15 15 16 16 15 15 14 14 14 13 12 11 10 8 7 7 7 6 5 5 5 4 4 4 4 4 4 4 3 3 3 3 3 2 2 2
7 5 3 0 2 5 7 9 10 12 12 12 12 13 14 15 16 16 15 14 14 14 13 13 11 10 9 8 7 6 5 5 5 5 4 3 3 4 4 3 3 2 2 2 2 2 2 1 1
9 8 5 3 1 2 5 7 8 10 10 11 11 12 13 14 15 16 16 15 14 14 14 13 12 11 9 8 6 5 4 4 4 4 4 3 3 3 2 2 2 1 1 2 2 1 0 1 1
11 10 8 6 4 2 2 4 6 7 8 9 10 10 11 13 14 14 15 14 14 14 13 12 11 11 10 8 6 4 3 3 3 3 3 2 2 2 1 1 1 1 1 2 2 2 2 2 2
13 11 10 9 7 5 3 2 4 5 6 7 8 8 9 11 13 13 13 13 13 12 12 12 11 10 9 8 6 4 3 3 2 1 1 1 1 2 1 1 1 1 2 2 3 3 3 3 4
16 14 12 11 10 8 6 4 3 4 5 5 6 6 8 9 11 12 13 13 12 12 11 10 10 10 9 8 6 5 3 3 1 1 1 1 2 2 3 3 2 2 2 3 4 4 5 5 5
19 16 14 13 13 11 9 7 5 4 4 4 4 5 5 8 10 11 12 12 11 11 11 10 10 10 10 8 7 5 3 3 2 1 2 2 2 3 4 4 4 4 4 4 5 6 6 7 6
20 18 17 16 15 14 12 10 8 7 5 4 3 4 4 5 7 9 10 11 12 11 10 10 9 9 9 8 7 5 4 3 3 2 3 4 3 3 5 5 6 5 6 6 7 8 8 8 8
22 20 19 19 18 17 15 13 10 9 6 5 4 4 5 5 6 7 8 10 11 11 11 10 9 9 8 8 8 7 6 5 4 4 4 5 4 4 5 6 7 7 7 8 9 9 9 10 10
23 22 21 20 20 19 18 15 12 10 7 5 4 5 6 7 7 8 8 10 10 11 10 10 10 10 8 8 8 8 7 6 6 6 7 6 5 5 5 6 7 9 9 10 10 11 11 11 12
25 24 23 22 21 21 19 17 13 11 8 7 7 7 6 7 8 9 10 10 10 10 10 10 9 9 9 8 8 8 8 7 7 8 7 7 6 6 6 7 7 9 10 11 11 12 12 13 13
27 26 25 25 24 22 19 18 14 12 10 9 8 7 7 8 9 9 10 10 10 11 10 10 9 9 9 9 8 8 8 8 9 8 8 7 7 7 8 8 8 10 11 11 11 12 13 13 13
27 27 27 26 25 23 21 19 16 14 12 11 10 9 8 8 10 10 10 11 11 12 11 10 10 9 9 9 9 9 9 9 9 8 8 7 8 8 8 8 9 10 11 11 12 12 12 13 14
28 28 28 28 27 25 23 20 18 16 14 12 11 10 9 10 10 10 11 11 12 12 12 11 10 10 9 9 9 9 9 9 9 9 9 9 10 10 10 9 9 10 11 12 12 13 13 13 13
30 29 30 30 29 28 25 22 20 18 16 13 12 11 11 11 11 12 12 12 13 12 12 12 10 10 10 10 10 10 10 10 10 10 10 10 11 11 11 11 11 11 11 11 12 13 13 13 13
31 31 30 30 30 29 26 23 21 19 18 15 13 12 12 11 12 12 12 13 13 13 14 13 12 11 11 11 11 12 12 11 11 11 12 12 12 11 11 11 11 12 12 13 13 13 14 14 14
32 31 31 30 30 29 27 25 23 21 19 17 15 14 12 13 13 13 13 13 13 14 14 14 14 13 12 12 12 13 13 13 13 14 14 14 13 12 12 12 13 13 13 13 13 13 13 14 14

GEFSSGP_500_meanwind_210.txt.gz
Wind_Speed
20 19 19 19 21 18 18 19 19 19 18 18 17 17 16 14 14 13 13 12 11 10 9 9 9 10 10 11 11 12 11 11 11 11 11 12 12 12 11 11 11 11 11 11 11 10 10 10 10
19 19 19 20 20 17 18 19 20 19 18 18 17 17 16 14 14 13 12 11 10 9 8 8 8 8 9 10 11 11 11 11 10 11 11 11 11 12 11 11 11 11 11 11 11 10 10 10 10
19 19 20 20 18 18 19 19 20 19 18 18 17 17 16 15 14 12 11 11 10 9 8 8 7 8 9 9 9 10 11 10 10 10 10 10 10 10 10 11 11 11 11 10 10 10 10 9 9
19 20 21 19 18 19 19 19 20 20 19 18 18 17 16 15 14 12 11 10 9 8 8 7 7 8 9 9 9 9 10 10 10 9 9 9 10 10 10 10 11 10 10 9 9 9 9 9 9
18 21 19 18 19 19 20 20 20 20 20 19 18 18 17 16 14 12 11 9 8 7 7 7 7 8 8 8 8 8 8 9 9 9 8 9 10 10 10 9 9 9 9 9 9 8 9 9 9
18 19 17 18 18 19 20 20 21 21 20 19 18 17 17 16 15 13 12 10 8 7 7 7 7 7 7 8 8 8 8 8 8 9 9 9 9 9 10 9 8 8 8 8 8 8 8 8 8
17 16 16 17 17 18 19 20 20 20 20 19 18 18 17 16 15 13 12 10 9 8 7 7 7 7 7 7 8 8 8 8 8 8 8 8 8 9 9 8 8 8 8 8 8 8 8 8 8
14 15 14 16 16 17 18 19 20 20 20 19 18 18 17 16 15 13 12 10 9 8 7 6 7 7 6 7 7 7 8 8 7 7 7 8 8 8 8 8 8 8 8 7 7 7 7 7 7
13 13 12 13 14 15 16 17 18 18 19 19 19 18 17 16 15 13 12 11 10 8 8 7 6 6 6 6 6 7 7 7 6 6 7 7 8 8 8 7 7 8 8 7 7 7 6 6 6
11 10 11 12 13 14 15 16 16 17 18 18 18 17 17 16 16 14 13 12 11 9 8 7 6 6 6 5 5 6 6 6 6 6 6 6 7 7 7 7 7 8 8 7 7 7 6 6 6
9 10 10 10 11 12 13 14 15 16 17 17 17 17 17 17 16 14 13 12 11 9 8 7 6 5 6 5 5 5 5 5 6 6 6 6 6 6 7 7 7 7 7 7 6 6 5 5 5
8 8 8 9 9 10 12 13 14 15 15 16 16 16 17 17 16 15 14 12 11 10 9 8 6 5 5 5 5 5 5 5 5 5 6 6 6 6 6 5 6 6 6 6 5 5 5 5 5
6 6 6 7 8 9 10 11 12 13 14 14 15 16 16 16 16 16 15 13 12 11 10 9 8 6 5 5 5 5 4 4 4 4 5 5 5 5 5 4 5 5 5 5 5 5 4 4 3
6 5 5 5 6 7 8 9 10 11 12 12 13 14 15 16 16 16 15 14 13 12 11 11 9 8 6 5 5 4 4 3 3 3 3 4 4 4 4 4 5 5 4 4 4 4 4 3 3
5 4 4 4 5 6 6 8 9 9 10 11 11 12 13 15 15 15 14 14 13 12 12 11 10 9 7 5 5 4 4 4 3 3 3 3 3 3 3 3 4 4 3 3 2 3 2 2 2
6 5 3 3 3 4 5 5 6 7 8 9 10 11 12 13 14 14 14 14 13 12 12 11 11 11 9 6 5 4 4 3 3 3 3 3 3 2 2 2 2 2 3 2 2 2 2 2 1
8 7 6 4 3 2 3 3 3 5 7 8 8 9 10 11 12 13 13 13 13 12 12 11 11 11 11 9 6 5 4 4 3 2 2 2 3 2 2 1 1 2 2 2 2 1 1 1 2
10 9 7 5 4 2 1 1 2 3 4 6 7 7 9 9 10 11 12 12 12 12 11 11 11 10 10 9 8 6 5 3 3 2 1 1 2 2 2 2 2 2 2 2 2 2 2 2 3
11 10 9 8 6 4 3 2 3 3 3 5 6 6 7 8 9 9 10 10 11 11 11 10 11 11 10 9 8 7 6 4 3 2 2 0 1 1 2 3 3 3 3 3 3 4 4 4 4
13 12 11 9 8 6 5 4 4 4 4 4 5 6 7 8 9 9 9 9 10 10 10 10 10 10 10 10 9 7 6 5 3 3 2 2 1 2 3 4 4 4 5 5 5 5 5 5 5
16 14 12 11 9 8 6 6 6 5 5 5 5 5 6 7 8 9 10 10 10 11 10 10 9 10 10 10 9 8 7 5 4 3 3 3 4 5 5 5 5 6 6 7 7 6 6 7 7
18 16 14 12 11 10 9 8 8 7 6 6 6 6 6 7 8 9 9 10 11 11 11 10 10 10 10 10 9 9 8 6 5 4 4 5 5 5 6 6 7 8 8 8 9 8 9 9 10
20 18 16 14 13 12 11 10 10 9 7 7 7 7 7 7 8 8 9 10 10 10 11 10 10 10 10 10 9 9 8 6 5 5 6 6 7 6 7 7 8 9 9 9 10 10 11 11 12
22 19 18 16 15 15 13 11 11 10 9 8 9 8 8 8 8 8 9 10 11 11 11 10 10 10 10 10 10 9 9 8 7 7 7 7 7 7 7 8 8 9 9 10 11 11 12 12 12
23 21 19 18 18 17 15 14 13 11 10 10 10 10 9 9 8 9 10 12 12 12 12 11 10 10 10 10 10 9 9 9 9 8 8 8 8 8 8 9 9 9 9 10 10 11 11 12 13
24 23 21 19 17 17 17 16 14 12 11 11 11 11 10 10 9 10 11 12 13 13 12 11 11 11 11 10 10 10 10 10 10 9 9 9 9 8 9 9 8 8 9 9 10 10 11 12 13
26 25 22 21 19 18 18 17 15 14 13 12 11 11 11 10 10 10 11 12 13 13 12 12 12 12 12 11 11 11 10 10 10 10 10 10 10 10 10 10 9 9 9 10 10 10 11 12 12
28 26 25 23 21 19 18 18 17 15 13 12 12 12 12 12 12 12 12 13 13 13 13 13 13 13 13 12 12 12 12 12 12 12 12 12 12 11 12 12 11 11 11 11 11 12 12 12 13
30 29 27 25 24 19 17 18 18 16 14 13 13 13 13 13 13 13 13 13 13 13 12 12 13 13 13 14 14 13 13 13 13 13 13 13 13 12 13 13 12 12 12 12 12 12 13 13 13
30 29 28 27 25 23 19 20 19 17 16 15 15 15 15 14 13 13 13 13 13 13 13 13 14 14 14 14 14 14 14 14 14 14 14 14 14 14 14 14 14 13 14 14 14 14 14 14 14

GEFSSGP_500_meanwind_216.txt.gz
Wind_Speed
22 22 23 23 22 14 13 13 13 13 12 12 12 12 11 10 10 10 10 10 10 10 9 9 7 6 6 6 6 6 6 7 8 9 10 10 10 10 11 11 11 11 11 11 11 11 11 11 11
22 21 24 23 15 12 13 13 13 13 13 13 13 12 11 11 10 10 10 10 10 10 9 8 7 6 5 5 5 5 5 6 7 8 9 9 9 10 10 10 10 11 11 11 11 11 11 11 11
24 25 24 16 11 12 14 14 13 13 13 14 13 12 11 10 10 10 10 10 10 9 8 7 7 6 5 5 4 5 6 6 7 7 8 8 8 9 9 10 10 10 11 11 11 10 10 10 11
25 28 20 14 13 14 14 14 14 13 14 14 14 12 11 11 10 10 10 9 10 9 8 8 7 5 5 4 4 4 5 5 6 6 7 7 8 9 9 10 10 10 10 10 10 10 10 10 10
26 24 15 14 14 14 14 14 15 14 15 15 15 14 13 12 12 11 10 10 10 9 9 8 7 5 4 3 3 4 4 5 5 5 6 7 8 8 9 9 9 9 9 10 10 10 9 10 10
23 17 11 13 13 14 14 14 14 14 15 15 15 15 14 13 13 12 12 11 11 10 9 8 6 5 4 4 4 4 4 5 5 5 5 5 6 7 7 8 8 8 9 9 9 9 9 9 9
19 14 10 11 12 13 13 14 14 15 15 15 16 15 15 14 14 13 12 12 11 10 9 8 7 6 5 4 5 4 4 5 5 5 5 5 6 7 7 7 7 8 8 9 8 8 9 9 9
15 11 9 9 10 11 12 14 14 15 15 15 16 15 15 15 14 13 12 11 10 10 9 8 7 6 5 5 5 4 4 5 5 6 6 6 6 6 6 7 7 7 7 8 8 8 8 8 8
12 9 8 7 8 10 12 14 14 15 15 15 15 16 15 15 14 13 12 11 10 10 9 7 7 6 5 5 5 5 4 5 5 5 6 5 5 5 5 6 6 6 7 7 7 7 7 7 7
8 7 7 6 7 9 11 13 14 15 15 15 15 16 16 16 15 14 13 13 12 10 9 8 6 6 6 6 6 6 5 4 5 5 5 5 5 5 5 5 5 5 6 6 6 6 6 6 6
6 6 6 5 5 8 10 12 12 13 14 15 15 16 17 16 16 15 14 13 13 13 11 9 7 6 6 6 6 5 5 4 5 5 5 5 5 5 5 5 5 5 5 6 6 6 5 5 5
4 4 4 4 5 6 8 10 10 12 13 14 15 16 17 17 17 17 16 14 14 13 12 10 9 8 7 6 6 6 5 4 4 4 4 5 5 4 4 5 4 4 5 5 5 5 5 4 4
2 2 3 4 4 5 6 8 11 13 14 14 15 16 17 18 18 17 16 15 14 15 14 12 10 9 8 6 6 5 4 4 3 3 4 4 4 4 4 4 4 4 4 4 4 4 3 3 4
3 2 2 4 4 4 4 8 10 12 14 14 15 16 17 18 18 18 17 16 16 16 16 13 11 10 8 7 7 6 5 5 4 3 3 3 3 3 3 3 3 3 3 3 3 3 2 2 2
5 3 1 3 5 6 6 7 8 10 13 14 15 16 16 17 18 18 18 17 17 17 17 16 13 12 10 8 7 7 6 5 4 3 3 2 2 2 2 2 2 3 2 2 1 1 1 1 1
4 3 3 2 2 5 5 6 8 11 12 13 14 15 16 16 17 18 18 17 16 16 17 16 14 14 13 10 9 8 7 6 5 4 3 2 1 2 2 1 1 1 1 1 1 0 0 0 0
4 4 5 5 4 3 4 5 8 11 12 13 13 13 15 15 16 17 17 17 16 16 16 16 15 14 13 12 10 9 8 7 5 4 3 2 2 2 2 1 0 0 0 0 0 1 1 2 2
8 7 6 8 6 3 5 4 7 10 11 12 13 13 14 14 15 16 16 16 16 16 16 15 14 14 13 13 11 10 9 8 6 4 3 3 2 3 3 2 2 1 2 2 2 2 2 3 3
10 9 9 10 9 5 5 5 7 8 9 11 12 13 13 13 14 15 15 15 16 16 15 14 14 14 14 13 11 10 9 8 7 6 4 4 4 4 5 4 4 3 3 3 3 3 4 4 4
13 11 10 10 10 6 6 7 7 9 10 11 12 12 12 13 13 14 14 14 15 15 15 14 13 13 13 13 12 10 9 8 7 6 5 4 5 5 6 5 5 4 5 5 5 5 6 6 6
15 12 11 10 9 7 7 9 10 11 10 11 11 12 12 12 12 13 13 14 14 14 15 14 14 13 13 12 12 11 9 9 8 6 6 5 5 6 7 7 6 6 6 6 6 6 7 8 8
16 14 13 11 9 8 10 11 14 13 11 11 11 12 12 12 12 12 13 13 14 14 14 14 15 14 13 12 12 11 10 10 9 8 6 6 6 6 7 7 7 7 6 6 7 8 8 9 9
17 16 14 13 12 11 11 12 13 14 12 12 13 12 11 11 11 12 12 13 13 13 14 14 14 14 14 13 13 12 11 10 10 9 7 7 6 7 7 7 8 7 7 7 8 9 9 10 11
18 16 14 12 13 14 13 13 13 13 14 14 14 13 12 11 11 12 12 13 13 13 13 14 14 14 14 13 13 13 12 11 10 9 9 8 8 8 8 8 8 8 8 8 8 9 10 10 10
20 17 13 13 13 15 13 14 16 14 14 13 13 13 12 11 11 11 12 12 13 13 13 13 14 14 14 14 13 13 13 12 12 11 10 10 10 9 8 8 8 8 9 9 10 10 10 10 9
21 19 17 14 13 13 13 15 17 16 15 14 13 13 12 12 12 12 13 13 13 13 13 13 14 14 14 14 14 13 13 13 13 13 12 12 11 10 10 10 10 10 10 10 11 11 10 10 10
23 21 19 17 14 13 13 16 17 17 17 15 15 14 14 12 13 13 13 13 12 13 13 14 13 14 14 14 14 14 13 13 13 13 13 13 12 11 11 11 11 11 11 12 11 11 11 11 11
24 21 21 21 20 16 14 15 18 19 17 15 16 15 14 14 13 14 14 14 14 13 13 14 14 13 14 14 14 14 14 14 13 13 14 14 12 12 12 12 12 12 12 13 13 13 13 12 12
25 23 22 22 21 18 16 16 19 20 19 18 16 16 14 14 14 14 15 15 14 14 14 14 14 14 14 14 15 15 15 15 14 15 15 14 14 12 12 13 13 12 13 13 13 14 13 13 13
25 25 24 24 24 23 20 19 19 20 21 21 19 17 16 17 16 15 16 15 15 15 14 14 14 15 15 15 15 15 15 16 16 16 16 15 15 14 13 13 13 13 13 13 13 13 13 14 14

GEFSSGP_500_meanwind_222.txt.gz
Wind_Speed
22 21 21 20 22 22 22 22 21 19 17 18 17 17 16 15 14 13 12 12 12 11 11 11 11 11 10 10 10 9 8 8 8 8 8 9 10 10 11 11 11 11 11 11 12 12 12 12 12
21 21 21 22 23 23 24 23 21 20 19 18 17 17 16 15 14 14 13 13 12 11 10 11 10 10 10 9 9 9 8 8 8 8 8 8 9 10 10 10 11 11 11 11 12 12 12 12 11
20 21 22 22 22 23 24 23 21 21 20 19 17 17 16 15 15 14 14 14 13 11 11 10 10 9 9 9 9 9 8 7 7 7 7 8 8 9 9 10 10 11 11 11 12 12 12 11 11
20 21 22 22 22 24 24 23 22 21 20 19 18 17 17 16 15 15 15 14 13 12 11 11 11 9 9 9 8 9 9 8 7 7 7 8 8 9 9 10 10 10 11 11 11 11 11 11 11
18 20 21 22 23 23 23 23 22 21 20 20 20 19 17 17 15 14 14 14 14 13 11 10 10 9 9 8 9 9 9 8 7 8 8 8 8 9 9 9 9 10 11 11 11 11 11 11 11
17 18 19 21 22 23 23 23 22 21 21 21 20 19 19 17 16 15 15 14 14 13 12 10 10 9 8 8 8 8 8 8 8 7 8 8 8 8 8 8 8 9 10 10 10 10 10 10 10
17 16 18 20 21 22 22 22 21 22 22 21 21 20 19 19 17 16 16 15 14 12 11 10 10 9 8 8 8 7 7 8 8 8 8 8 7 8 7 7 8 8 9 9 9 9 9 9 9
14 15 16 19 20 21 22 22 21 21 22 22 22 21 20 20 19 17 16 15 14 13 12 11 10 10 10 9 8 8 8 8 8 8 7 7 7 7 6 7 7 7 8 8 8 8 9 9 9
13 12 14 17 18 20 21 21 21 22 22 22 22 22 20 20 19 18 17 16 15 14 12 11 10 10 10 10 9 8 8 8 8 7 7 7 7 6 6 7 7 7 7 7 7 8 8 8 8
12 11 13 16 17 20 21 21 22 22 22 22 22 21 21 20 19 19 18 17 16 14 13 11 10 10 10 9 9 8 8 8 7 7 7 7 7 6 6 6 6 6 6 6 7 7 7 7 7
11 10 13 15 17 19 20 20 21 21 21 22 21 21 21 21 20 19 18 17 16 15 13 12 12 11 10 10 9 9 8 8 8 8 8 7 7 6 6 6 5 6 6 6 6 6 6 6 6
8 9 11 14 16 18 19 19 20 20 20 21 21 20 21 21 20 20 19 18 16 15 14 12 13 12 10 10 10 9 7 7 7 7 7 7 6 6 6 6 5 6 6 5 5 5 5 5 5
8 7 10 12 15 16 17 18 18 19 20 20 20 20 21 21 21 20 20 19 18 16 15 14 14 13 12 11 11 9 7 7 7 6 6 6 6 5 5 5 5 5 5 4 4 4 4 4 3
7 6 8 11 13 15 15 16 17 18 19 20 20 20 21 22 21 21 20 20 18 17 16 15 14 13 13 11 11 10 8 7 7 6 6 6 6 5 5 5 5 4 4 3 3 3 2 2 2
7 6 5 8 10 12 13 14 15 17 19 19 19 19 20 20 21 20 20 20 19 17 16 16 15 14 13 12 11 10 8 8 7 7 6 5 5 5 4 3 3 4 3 3 2 2 2 2 2
6 5 3 5 8 10 11 13 14 15 17 18 19 19 20 20 19 19 20 19 18 18 17 16 16 15 13 12 11 10 8 8 7 6 6 5 5 4 3 3 3 3 2 2 2 2 2 2 2
6 4 1 2 4 7 10 11 12 14 15 17 18 18 19 19 19 18 19 18 18 17 17 17 17 16 14 13 12 11 9 8 7 6 6 5 4 3 3 2 2 2 1 1 2 2 3 3 3
7 5 4 2 3 5 8 10 11 12 13 14 16 17 18 19 18 18 18 17 17 17 17 16 16 15 14 13 12 11 10 8 7 6 5 4 3 3 2 2 1 1 2 2 2 2 3 4 4
9 7 5 3 3 4 6 8 9 10 11 13 14 16 17 18 17 17 17 17 16 16 16 16 15 15 14 13 12 11 10 9 7 6 5 4 3 2 2 1 1 1 2 2 2 2 3 4 5
13 11 8 6 5 4 7 9 9 11 9 11 12 14 15 15 16 15 15 15 15 15 15 15 15 15 14 13 11 9 8 8 7 6 5 5 3 2 1 1 1 1 1 2 3 3 4 5 5
17 14 12 9 6 5 6 8 8 10 9 9 11 12 12 13 14 14 14 15 14 14 14 14 13 13 13 12 11 10 8 7 6 6 6 5 4 3 2 2 2 2 2 3 4 5 5 5 6
18 16 14 12 9 8 7 8 7 8 8 9 10 10 11 12 13 13 13 14 14 14 14 13 12 12 12 12 11 10 9 8 7 6 6 5 4 4 3 4 3 3 4 4 5 5 6 6 7
20 19 17 15 14 11 10 9 7 8 8 10 10 11 10 11 11 12 12 12 12 13 12 12 11 11 11 11 10 10 9 8 8 7 6 6 5 5 4 4 5 5 5 5 6 6 7 7 8
21 21 21 19 17 15 12 11 9 9 9 9 11 10 9 9 9 10 10 11 11 11 11 11 11 11 11 10 10 9 9 8 8 8 7 7 7 6 6 5 5 5 6 6 7 7 8 8 9
23 23 23 22 20 17 13 13 10 9 9 9 10 11 10 9 10 10 11 11 11 11 11 11 10 10 10 10 10 10 9 8 8 8 8 8 8 7 7 6 6 6 7 8 8 9 9 8 8
25 24 24 22 21 18 16 15 12 10 10 10 11 11 11 11 11 11 11 11 10 11 11 10 10 10 10 10 10 11 10 9 10 9 8 8 8 7 8 7 6 6 7 8 9 10 9 9 9
25 23 22 21 21 20 19 16 13 11 11 11 11 11 11 12 13 12 11 10 10 11 11 10 10 11 10 10 10 10 10 10 10 9 8 8 8 8 8 8 7 7 7 8 8 9 10 10 10
25 24 23 22 21 21 19 17 13 11 12 12 11 11 12 12 12 12 11 11 11 11 12 12 12 11 11 11 10 10 10 10 10 10 10 9 9 9 9 9 8 7 7 8 9 9 10 10 11
26 26 25 24 23 22 22 19 14 12 12 11 11 11 13 13 13 12 12 12 12 12 12 13 13 12 12 11 11 11 11 12 12 11 10 10 10 10 10 9 8 8 9 9 10 10 11 11 12
26 26 26 25 24 24 23 21 16 15 14 13 12 12 14 14 14 13 13 13 13 13 14 14 13 12 11 12 13 13 13 13 13 13 12 11 11 11 11 10 9 9 10 11 11 11 12 13 13

GEFSSGP_500_meanwind_228.txt.gz
Wind_Speed
22 22 20 19 20 19 20 22 22 22 21 20 19 18 17 16 14 13 12 11 10 10 11 12 13 12 12 13 12 12 11 11 11 10 11 11 11 11 11 11 11 11 11 11 11 11 11 11 10
22 22 20 20 20 20 22 23 23 22 21 20 20 19 18 16 14 13 11 10 10 10 11 12 12 12 12 12 12 12 11 11 10 10 10 11 11 11 10 11 11 11 11 11 11 11 10 10 10
21 21 20 19 20 22 23 24 24 23 22 21 20 19 17 16 15 13 11 10 10 11 11 11 12 11 11 11 10 10 10 10 10 10 10 10 10 10 10 10 11 10 10 10 10 10 10 10 10
21 20 19 19 20 22 24 24 24 23 22 21 20 19 17 16 15 14 12 10 10 11 11 11 11 11 11 10 10 11 10 10 10 10 10 10 10 11 10 10 10 10 10 10 10 10 10 10 10
20 20 20 20 21 23 24 24 25 24 23 22 21 20 18 17 16 15 13 11 11 11 11 11 11 11 11 10 10 10 10 10 10 10 10 10 10 10 10 10 10 10 10 10 10 10 10 10 9
19 19 20 22 23 23 24 25 25 25 23 22 22 20 18 17 16 15 14 13 12 11 11 11 10 10 10 9 10 10 9 10 10 10 10 11 10 10 9 9 9 9 9 9 9 10 9 9 9
19 18 20 22 23 24 25 25 26 25 23 22 22 21 19 18 17 16 15 14 13 12 11 11 11 10 9 9 9 10 10 10 10 10 10 10 9 9 9 9 9 9 9 9 9 9 9 9 9
18 18 21 23 23 24 25 25 25 24 23 22 22 21 20 18 18 17 16 14 14 13 12 11 11 10 9 9 9 9 9 9 10 10 9 9 8 8 7 7 8 8 8 8 8 8 8 8 8
17 18 20 23 24 24 24 25 24 24 23 22 22 21 20 18 18 18 17 16 15 14 12 12 11 10 10 9 9 9 9 9 9 9 8 8 8 7 7 6 7 7 7 7 7 7 7 7 7
16 17 20 22 23 23 23 23 23 23 23 22 22 21 20 19 18 18 18 17 16 15 13 12 12 11 11 10 9 9 8 8 8 7 7 7 7 7 7 6 6 7 7 7 7 6 7 6 6
15 16 18 21 22 22 22 22 22 22 22 22 22 21 20 19 18 18 18 17 17 16 15 13 13 11 11 11 10 9 8 8 7 7 7 7 7 6 6 5 5 6 6 6 6 6 6 6 5
13 14 16 19 20 21 21 21 21 22 22 22 22 22 20 20 19 18 18 17 17 16 16 14 13 12 11 10 10 9 8 8 8 7 7 6 6 5 5 5 5 5 5 5 5 5 5 5 4
10 12 15 17 19 20 21 21 21 20 21 21 22 22 21 20 20 19 18 17 17 16 15 14 13 12 11 10 8 8 8 8 7 7 6 6 5 5 4 4 3 4 3 4 4 3 3 3 2
8 10 13 15 17 19 20 20 19 19 19 20 21 22 22 21 20 19 19 18 17 17 16 15 14 13 11 10 8 8 8 7 7 6 5 5 4 4 3 3 2 2 2 2 2 2 2 1 1
6 8 10 13 15 17 18 18 18 18 19 19 20 21 21 21 21 20 19 18 18 17 16 15 14 13 11 10 9 8 7 7 6 5 5 4 4 3 2 2 1 1 1 2 2 2 1 1 1
4 5 8 10 13 14 16 17 16 16 16 17 19 19 19 19 20 19 18 17 17 16 16 15 15 13 12 11 10 9 8 7 6 5 4 4 3 3 2 1 0 0 1 1 2 2 2 2 3
4 3 4 7 9 11 12 14 14 14 14 16 17 18 18 18 18 18 18 18 17 16 16 15 14 14 12 11 10 9 8 7 6 5 4 4 3 2 1 1 1 1 1 2 2 3 3 3 4
5 2 1 4 6 8 9 10 11 12 13 15 15 16 17 17 17 17 18 17 17 16 16 16 15 14 12 10 10 9 8 7 6 6 5 4 3 2 1 2 2 2 2 2 3 4 4 5 5
7 5 2 1 2 4 5 7 8 9 11 12 14 14 15 16 16 16 16 16 16 16 16 15 15 14 13 11 10 9 8 7 6 5 5 3 3 2 2 3 2 2 3 3 4 4 5 6 6
11 8 6 3 1 1 2 4 6 8 9 10 11 12 13 14 15 15 16 16 15 15 15 14 13 13 12 11 10 10 9 7 6 5 5 4 3 3 4 4 3 3 4 4 5 5 5 6 7
14 11 9 7 5 2 1 2 4 5 7 8 9 10 11 12 13 13 14 15 14 14 14 14 14 13 12 11 10 10 9 8 7 6 5 5 4 4 5 5 5 5 5 6 6 6 6 7 7
16 14 12 10 9 6 5 3 3 4 6 8 9 10 10 10 11 12 13 14 14 13 13 14 13 12 12 11 10 9 9 8 8 7 6 6 6 5 6 6 7 6 6 7 7 8 9 9 9
19 17 16 14 13 11 8 6 4 4 5 6 8 9 9 9 10 10 11 12 13 14 13 13 12 12 11 12 11 9 9 9 9 8 7 6 6 7 7 7 7 7 7 8 8 9 9 10 10
22 20 19 18 17 14 11 9 7 6 6 6 6 7 8 9 9 9 10 11 12 12 12 12 12 12 12 11 11 10 10 10 10 9 8 8 8 7 7 7 7 8 8 9 10 10 10 11 11
25 23 22 21 20 17 15 13 10 8 7 7 7 7 7 8 9 8 9 10 11 11 12 12 13 13 13 12 12 11 11 11 11 10 9 9 9 9 8 8 9 10 10 10 11 11 11 11 11
26 25 24 23 21 18 17 16 13 10 9 8 8 7 7 7 8 8 9 10 10 11 11 12 12 13 13 13 12 12 11 12 12 11 11 11 11 10 10 10 11 11 11 11 11 12 12 12 12
28 27 25 25 24 21 20 17 15 13 11 9 8 8 8 8 8 8 9 10 11 11 11 12 12 13 13 12 12 12 12 11 11 11 11 12 12 12 11 11 11 12 12 12 13 13 13 13 13
30 28 27 26 25 23 21 19 16 14 12 11 10 9 9 8 9 9 9 10 11 11 11 12 13 13 14 14 12 12 12 11 11 12 12 13 13 13 13 12 12 13 13 13 13 12 12 12 13
31 30 29 27 26 24 21 18 16 15 14 13 12 11 9 10 10 10 10 11 11 12 12 12 13 13 13 14 13 12 12 12 12 13 13 13 13 13 13 13 12 12 13 13 13 12 12 13 14
32 31 30 29 26 24 23 19 17 16 15 14 13 11 10 10 11 11 11 11 12 12 13 13 13 14 13 13 14 14 13 13 13 14 14 14 14 13 13 14 13 13 13 13 13 13 13 13 14

GEFSSGP_500_meanwind_234.txt.gz
Wind_Speed
20 20 19 18 19 17 16 17 17 17 17 16 15 14 13 12 12 11 11 11 10 10 10 10 11 10 11 11 11 12 12 12 12 13 13 13 12 13 13 14 13 13 12 12 12 12 12 12 12
20 20 18 18 18 16 17 18 18 18 18 17 17 15 14 12 12 12 11 11 10 9 10 10 10 10 11 11 11 12 12 12 12 13 13 12 12 13 12 12 12 13 12 12 12 13 12 12 11
20 19 18 18 17 17 17 18 19 19 18 18 17 16 15 13 13 12 11 10 9 9 9 9 9 10 10 11 11 12 12 13 13 14 13 12 13 12 11 12 12 12 12 12 12 12 11 11 11
20 19 19 18 17 18 18 19 20 20 19 19 18 17 16 14 14 12 11 10 9 9 9 9 9 10 10 11 12 12 12 12 13 13 13 12 13 12 11 12 12 12 12 12 11 11 11 11 10
19 20 19 18 19 19 19 20 20 21 21 20 19 18 17 16 14 13 12 10 10 9 8 8 9 10 10 11 11 12 12 12 12 13 13 12 12 12 12 11 12 11 11 11 11 11 10 10 10
20 19 19 20 21 21 21 21 22 22 21 21 20 20 18 17 15 14 13 11 10 9 8 8 8 9 10 10 11 11 11 12 12 12 12 12 11 12 11 11 11 11 11 11 11 10 9 9 9
20 19 20 20 21 22 22 22 23 23 22 22 21 20 19 17 16 14 13 12 11 10 9 9 9 9 9 10 11 11 11 11 11 11 11 11 10 11 11 10 10 10 10 10 9 9 9 9 8
18 19 20 21 21 22 22 22 23 23 23 22 21 21 19 17 16 15 14 13 12 11 10 10 10 9 9 9 10 10 10 10 10 10 10 10 10 10 10 9 9 9 9 9 8 8 8 9 8
17 17 18 19 21 21 21 22 22 23 23 23 22 21 20 18 16 15 14 13 12 12 12 10 10 9 10 9 9 10 10 10 9 9 8 9 9 9 9 8 8 8 8 8 8 7 8 8 8
15 15 17 18 20 20 21 22 22 22 23 22 22 21 20 19 18 16 15 14 13 12 12 11 11 10 10 10 9 10 9 9 9 8 7 7 7 7 8 8 7 7 7 7 7 7 7 7 7
14 15 16 17 19 20 20 21 21 21 22 22 21 20 20 19 18 17 16 15 14 13 12 11 11 10 9 9 9 9 9 8 8 8 7 7 7 7 7 7 6 7 7 6 6 7 6 6 6
12 14 15 16 17 18 19 20 20 20 21 21 20 20 20 18 18 17 16 15 14 14 13 12 11 11 10 9 9 9 8 8 7 7 7 7 7 6 6 6 5 6 6 6 6 5 5 4 4
10 12 14 15 16 17 18 19 19 19 20 20 20 20 20 19 17 16 16 16 15 14 13 13 12 11 11 9 8 8 8 7 6 6 6 6 6 5 4 4 4 4 4 4 4 4 4 3 2
9 10 12 13 14 15 16 17 18 19 19 19 19 20 19 19 17 16 15 15 15 14 14 13 12 12 11 10 9 7 7 7 7 6 5 5 4 3 3 3 3 3 4 3 3 3 3 2 2
8 8 10 11 12 13 14 15 16 17 17 18 19 19 19 18 18 16 15 15 14 14 14 13 13 12 12 11 10 8 7 6 7 6 5 4 3 2 2 1 2 2 3 3 3 2 2 2 2
6 6 7 8 10 11 13 13 14 14 16 17 17 17 17 17 17 17 16 15 14 13 13 13 13 13 12 12 11 10 8 6 6 5 4 3 3 2 2 1 0 0 1 2 2 2 3 2 2
4 4 5 6 8 10 12 11 12 13 14 15 16 16 16 16 16 16 16 15 14 13 13 12 12 12 12 12 11 9 8 7 5 5 3 3 2 2 1 1 1 0 1 2 2 3 3 3 3
5 4 3 3 5 8 10 10 10 11 13 14 14 14 15 15 15 15 15 15 15 14 13 12 11 11 11 11 10 9 8 7 6 4 4 3 2 2 2 2 1 2 2 2 2 3 3 3 4
7 5 4 2 3 4 6 8 8 10 11 13 13 13 13 14 14 13 14 14 14 14 13 13 12 11 10 10 9 8 8 7 6 5 4 3 3 3 3 3 3 3 3 3 3 4 4 5 5
8 6 4 3 2 2 3 5 6 8 9 10 12 12 12 12 13 13 13 13 14 14 13 13 12 12 11 10 9 8 8 7 6 5 4 4 4 4 4 4 4 3 3 4 5 5 5 5 6
10 8 6 5 3 1 1 3 4 5 7 8 9 11 11 11 11 11 12 12 12 13 13 13 12 12 11 10 9 9 9 8 7 6 5 5 5 5 5 4 5 5 5 6 6 6 6 7 7
13 11 8 7 5 4 2 2 4 3 5 6 7 9 10 10 10 10 11 11 11 11 12 12 12 12 11 10 9 9 9 9 8 8 7 7 7 7 6 6 6 6 6 7 7 7 7 8 8
17 13 11 9 8 6 5 3 4 4 4 5 6 7 8 9 8 9 9 10 10 10 11 11 12 12 12 11 9 9 9 9 9 9 8 8 8 7 7 7 7 7 8 8 8 8 9 9 9
18 16 13 11 10 10 8 5 6 5 4 5 6 6 7 7 8 8 8 9 10 10 10 10 11 11 12 11 10 10 10 10 10 10 10 9 8 8 8 8 8 8 8 9 9 10 10 10 11
20 18 15 13 13 12 10 9 8 7 5 5 5 6 6 6 7 7 8 8 9 10 10 10 11 11 12 12 11 11 11 10 11 11 10 10 9 9 9 9 10 10 10 10 11 11 11 12 12
22 20 19 16 14 13 13 11 9 8 6 5 5 5 5 5 6 7 7 8 9 10 10 11 11 11 12 12 11 11 11 11 11 11 11 11 10 10 10 10 10 11 11 11 11 12 13 13 13
23 23 20 18 16 14 15 13 10 9 7 6 6 6 5 5 6 7 8 8 9 10 11 11 12 12 12 13 12 12 11 11 11 12 11 11 11 11 11 11 11 12 12 12 13 13 14 14 14
26 24 22 20 18 17 16 15 12 10 9 8 7 7 7 7 7 7 8 9 10 11 12 12 12 12 13 13 13 12 11 11 12 12 12 13 13 12 12 12 12 12 13 13 13 13 14 14 14
28 26 25 23 21 18 16 16 15 13 11 10 10 9 9 8 8 9 9 10 11 11 12 13 13 13 13 13 14 13 12 12 11 12 13 13 13 13 12 12 12 12 13 13 12 12 12 13 13
30 28 26 25 24 21 18 17 17 15 13 12 11 10 10 9 10 10 10 11 11 12 12 13 13 13 13 13 14 14 13 12 13 12 13 13 13 13 13 12 12 12 12 12 12 12 12 12 12

GEFSSGP_500_meanwind_240.txt.gz
Wind_Speed
20 20 20 22 22 15 13 13 13 11 10 9 8 8 7 7 7 6 6 7 7 7 6 6 6 6 6 7 7 8 9 10 11 11 11 11 11 11 12 12 12 12 13 13 12 12 12 11 11
20 19 23 23 15 13 13 13 13 12 12 11 10 9 8 8 7 7 7 7 7 7 6 6 6 6 7 8 8 8 9 9 10 11 11 11 12 11 11 12 12 12 13 13 12 12 12 11 11
21 23 24 15 10 12 13 13 13 13 12 12 12 10 9 8 8 7 7 7 6 6 6 6 6 6 6 7 9 8 9 9 10 10 10 11 11 11 11 12 12 12 12 12 12 11 11 11 10
24 26 19 12 12 13 13 14 14 14 13 13 12 11 11 10 9 8 8 7 6 6 6 6 6 7 7 7 9 9 8 9 9 10 10 10 11 11 12 11 11 11 11 11 11 11 10 10 10
26 21 15 13 14 15 15 15 15 14 14 14 13 13 12 11 10 9 9 8 7 6 6 6 7 7 7 7 9 9 9 9 10 10 9 10 10 11 11 11 11 11 10 10 10 9 9 9 9
23 17 13 13 14 15 15 16 16 16 15 14 14 14 13 12 12 11 10 9 9 8 8 7 7 7 7 7 8 9 9 9 9 9 9 9 10 10 10 10 10 10 9 9 9 8 8 8 8
19 15 12 13 13 14 15 15 16 17 17 16 16 15 14 13 13 12 12 11 10 9 8 8 7 7 6 7 8 8 9 9 8 8 8 9 9 9 9 10 10 9 8 8 7 8 8 7 7
16 13 11 11 13 14 15 16 17 18 18 18 17 16 15 14 13 13 12 12 11 10 9 8 8 7 7 7 7 8 8 8 8 8 8 8 9 9 9 9 9 8 7 7 6 6 7 6 6
13 11 10 10 12 13 15 16 17 18 18 18 18 17 16 15 14 13 13 12 12 11 10 9 8 7 7 7 7 7 7 8 7 7 7 8 8 8 8 7 7 6 6 6 6 6 6 6 5
11 10 9 10 11 13 15 15 16 18 19 19 18 18 17 16 16 15 14 13 13 12 11 10 9 8 8 7 7 7 7 7 6 7 7 7 7 7 7 6 6 5 5 5 6 5 5 5 4
11 10 10 11 12 13 15 16 16 18 18 19 19 19 18 17 16 16 15 15 14 13 12 11 10 9 8 8 7 7 7 7 6 6 6 6 6 6 5 5 5 5 5 5 4 4 3 3 2
11 10 10 11 12 13 14 16 16 17 18 19 19 20 19 18 17 17 16 15 14 13 12 11 10 10 9 8 7 7 7 7 6 6 5 5 5 5 4 4 4 4 4 3 3 2 2 2 1
9 9 10 12 13 13 14 15 16 17 18 18 19 19 20 19 18 17 16 15 15 14 13 12 11 10 9 8 7 7 6 6 6 6 5 5 4 4 4 3 3 3 3 2 2 2 2 2 2
7 9 9 11 11 12 13 15 16 18 18 18 19 20 20 20 18 17 17 16 14 14 13 13 12 11 10 9 7 7 6 6 6 6 5 4 4 3 3 3 2 2 2 1 1 1 2 2 3
7 8 8 9 10 11 12 13 16 17 18 18 19 19 20 20 20 18 17 16 15 14 13 14 13 12 10 10 9 7 6 6 5 5 5 4 3 3 3 2 2 1 1 1 1 0 1 2 3
5 6 7 7 7 9 11 12 14 16 16 17 18 19 19 19 19 18 18 17 16 15 14 13 13 12 11 10 9 8 6 6 6 5 5 5 4 4 3 2 2 2 1 1 2 3 2 2 2
2 3 4 4 5 8 10 11 12 14 15 16 17 17 18 18 18 18 17 17 16 16 15 14 13 12 12 11 10 9 8 7 6 6 6 6 5 5 4 4 3 3 3 2 2 3 3 3 3
4 2 1 1 3 5 7 9 11 13 14 15 16 16 17 17 18 18 17 16 16 16 15 15 13 12 12 11 10 9 8 8 7 6 6 6 5 5 5 5 5 4 4 3 3 4 4 4 5
6 5 3 2 2 3 5 7 10 12 13 14 15 15 16 17 17 17 16 16 16 15 15 15 15 13 13 12 11 10 9 9 7 6 6 5 5 5 6 6 6 6 5 5 5 5 5 5 6
9 7 5 4 4 3 4 6 8 10 12 13 14 14 15 15 16 16 16 16 16 15 15 15 14 14 14 13 12 11 10 9 9 7 7 5 5 6 7 7 7 6 6 6 6 7 6 7 7
10 8 7 6 5 4 5 6 8 9 11 12 12 13 14 13 14 14 14 14 14 15 15 15 15 15 14 14 14 13 11 11 10 9 8 7 6 7 7 7 7 7 7 7 7 7 7 8 8
12 10 9 7 6 6 5 7 8 9 9 10 11 11 12 13 13 13 13 13 13 14 14 14 14 15 14 14 15 14 13 12 11 10 9 9 8 8 8 8 7 8 8 8 8 8 8 9 9
13 12 9 8 7 8 6 7 9 9 10 10 11 11 10 11 12 12 12 12 12 13 14 14 15 14 14 14 14 14 13 13 12 11 11 10 10 10 9 9 8 8 9 9 9 10 10 10 10
15 12 10 8 8 10 7 7 8 8 8 9 9 10 10 10 11 11 11 12 12 12 13 14 14 14 14 14 15 14 13 13 13 12 12 11 11 11 10 10 9 9 9 10 10 11 11 12 12
17 15 13 11 10 10 8 8 9 9 9 9 9 9 9 9 9 10 10 11 11 12 13 14 14 14 14 15 15 15 14 14 14 13 13 12 12 11 11 10 10 10 10 10 11 11 12 12 12
19 17 15 12 10 9 8 10 9 11 11 12 10 9 9 9 8 9 10 10 10 11 12 13 14 14 15 15 15 15 14 14 14 14 13 13 13 13 12 12 11 11 11 11 12 12 12 13 13
20 19 16 14 12 11 11 12 12 12 13 14 11 9 9 10 9 8 9 10 10 11 12 13 13 14 15 15 15 15 15 14 14 14 13 13 14 13 13 13 13 13 13 13 13 13 13 13 13
21 19 18 17 17 15 12 12 13 14 14 13 12 11 11 10 10 10 10 10 10 11 12 13 14 14 15 15 16 15 15 14 14 14 14 14 14 14 14 13 14 14 14 14 13 13 13 13 13
23 22 21 20 18 15 13 13 13 15 15 14 14 13 13 12 10 10 10 11 11 12 13 14 15 15 15 15 16 16 15 14 14 15 14 14 14 15 15 14 14 14 14 14 14 13 13 13 13
24 24 22 23 23 20 17 14 13 15 15 15 16 16 15 14 12 11 12 12 13 13 14 14 16 16 15 15 16 17 16 15 15 16 15 16 15 15 15 15 15 14 14 14 14 14 13 13 12

GEFSSGP_500_meanwind_246.txt.gz
Wind_Speed
20 20 20 19 21 21 21 21 19 18 16 14 13 12 11 10 9 8 8 8 9 9 9 8 9 9 8 8 8 8 9 9 9 9 10 10 11 12 12 12 13 13 13 12 12 12 12 11 11
20 21 20 20 22 22 22 21 19 18 17 16 14 13 12 11 10 9 8 8 9 9 8 8 9 9 8 8 9 9 9 9 9 10 11 11 11 12 12 12 12 12 12 12 12 11 11 11 10
21 21 22 22 23 22 22 21 20 19 18 17 15 13 11 11 10 9 9 8 8 8 8 8 8 9 9 9 9 9 9 9 10 11 11 11 11 11 12 12 12 12 12 12 11 11 10 10 10
20 21 22 23 23 23 23 23 21 20 18 17 16 13 11 11 11 11 10 9 9 9 9 9 8 10 10 10 10 10 9 10 10 11 11 10 11 11 11 12 12 11 11 11 11 10 10 10 10
19 20 22 22 22 23 23 23 22 20 19 18 17 14 13 13 12 12 11 11 10 10 9 9 10 11 11 10 10 10 9 9 10 10 10 10 10 10 11 11 11 10 10 10 10 9 9 9 9
18 19 20 21 21 22 23 23 21 20 19 19 18 16 15 14 13 13 12 12 11 10 10 10 11 11 11 11 10 10 10 10 10 10 10 10 9 9 9 10 10 9 9 9 9 9 9 9 8
16 17 18 20 20 21 22 22 21 20 19 19 18 16 15 15 14 14 13 13 12 11 11 11 11 11 11 11 11 11 10 10 9 10 10 9 9 8 9 8 8 8 8 7 8 8 8 7 7
16 17 17 18 19 20 21 21 21 21 19 19 19 17 16 16 15 15 15 14 13 12 11 12 11 11 11 11 11 10 10 10 10 10 10 9 8 8 8 8 8 7 7 6 6 6 6 6 6
16 15 17 18 19 20 21 21 21 22 21 20 20 18 17 17 17 17 16 15 14 13 12 12 12 11 11 10 11 10 10 10 9 9 8 8 8 7 7 7 7 6 6 5 5 5 5 5 5
15 15 17 19 20 20 21 21 22 22 22 22 21 20 19 19 18 17 17 16 15 14 13 12 12 11 11 10 10 10 10 9 9 8 7 7 7 7 6 6 6 5 5 4 4 4 4 4 4
14 15 18 20 21 20 21 22 22 21 22 22 22 21 21 20 19 18 17 16 16 15 14 13 12 12 11 10 10 10 10 9 9 8 7 7 6 6 6 5 5 4 4 3 2 2 3 3 3
13 15 18 20 20 21 21 22 22 21 22 22 22 22 21 20 19 19 18 17 17 16 14 13 12 12 11 10 10 9 9 8 8 7 7 7 6 5 5 5 4 3 3 2 2 1 1 1 1
12 14 16 18 19 20 21 21 21 21 21 22 22 22 21 20 20 19 19 19 17 16 15 14 12 11 10 10 9 9 8 8 7 7 6 6 5 5 5 3 3 2 2 2 1 1 1 1 1
11 13 14 15 17 19 19 20 20 21 21 21 21 22 22 20 19 18 18 18 18 16 15 14 13 12 10 9 9 8 7 6 7 6 5 5 4 4 4 3 3 2 1 2 2 1 1 0 1
10 11 12 13 15 17 18 18 19 20 21 21 21 21 21 21 20 19 18 18 18 17 16 15 14 13 12 10 9 8 7 6 6 6 5 4 3 3 3 3 2 2 1 0 1 1 1 1 1
9 10 9 10 13 15 17 17 18 19 19 20 20 21 21 21 20 20 19 18 17 17 16 15 14 13 12 11 9 8 7 6 6 6 5 4 3 3 3 2 2 2 1 2 1 1 1 2 2
7 8 9 9 11 13 14 15 16 17 18 19 19 20 20 20 20 19 19 18 17 17 16 15 14 13 12 11 9 9 8 7 6 6 5 4 3 3 3 2 2 2 2 2 2 2 2 3 3
6 7 6 7 9 10 12 13 15 15 16 17 18 19 19 19 19 18 18 18 17 16 16 15 14 13 13 12 10 9 8 7 6 6 5 4 3 3 3 2 2 3 3 2 3 3 3 4 4
6 6 6 6 6 7 9 11 13 14 14 15 16 17 17 18 18 17 18 18 17 16 16 15 15 15 14 13 12 10 9 7 7 6 5 4 4 4 3 3 3 3 3 3 4 5 5 5 5
8 6 4 3 3 5 7 8 10 11 12 13 14 15 16 16 17 16 16 17 17 17 16 16 15 15 14 13 12 11 10 9 8 7 6 5 5 4 4 4 4 4 4 4 5 5 6 6 6
11 9 6 4 2 3 4 5 7 9 10 11 12 13 14 15 15 15 15 15 16 16 15 15 15 15 14 13 13 12 11 10 9 8 8 7 7 6 5 5 5 5 5 5 6 6 6 7 8
13 11 8 7 5 5 5 4 4 6 7 9 10 11 12 13 14 13 13 14 15 15 15 15 15 15 14 13 13 12 11 10 9 8 8 8 8 7 7 6 6 6 6 6 6 7 7 8 9
14 13 12 10 8 7 7 7 4 4 5 7 8 10 10 11 12 12 12 12 13 13 14 14 14 14 14 13 12 12 11 11 11 10 10 9 9 8 8 7 7 7 7 7 8 8 9 9 10
15 16 15 13 11 9 7 6 5 5 6 7 7 8 9 9 10 11 11 11 11 12 12 13 13 13 13 13 12 11 12 12 11 11 11 10 10 9 8 8 8 8 8 8 9 10 10 11 12
18 19 18 16 13 10 8 8 6 6 5 6 7 7 8 8 9 10 10 10 10 11 11 12 12 12 13 13 13 12 12 12 12 11 11 11 11 10 9 9 9 9 9 10 10 10 11 12 12
21 20 19 17 15 12 10 8 6 4 4 4 5 6 6 7 8 8 9 10 10 10 11 11 11 12 13 13 13 12 12 12 12 12 12 11 11 11 10 10 10 10 11 11 11 11 12 12 13
23 21 19 17 16 14 13 9 7 6 5 5 5 5 6 6 7 8 8 9 9 10 10 11 11 11 12 13 13 13 12 12 11 11 11 12 12 12 12 11 11 11 11 12 12 11 11 11 12
23 21 21 20 18 16 14 12 9 8 8 7 6 6 7 7 7 8 8 8 8 9 10 10 11 12 12 13 13 12 12 11 11 12 11 12 12 13 13 13 12 12 12 13 12 11 11 12 12
24 23 22 21 20 18 17 15 11 10 9 8 7 8 9 8 8 8 7 7 8 9 10 11 12 13 12 13 13 12 12 12 12 12 12 12 12 13 13 13 13 13 13 13 13 12 12 11 11
25 25 24 23 22 21 20 17 15 13 11 10 9 9 9 10 9 9 8 8 9 9 9 11 12 13 13 13 13 13 13 13 13 12 12 12 12 13 13 13 13 13 13 13 13 13 12 12 12

GEFSSGP_500_meanwind_252.txt.gz
Wind_Speed
20 19 19 19 19 19 18 19 19 17 15 13 12 12 11 10 9 8 8 8 8 7 7 7 8 9 9 9 9 8 9 9 9 10 10 10 10 11 11 12 11 11 10 10 10 10 9 9 8
20 20 19 20 20 19 20 20 19 18 16 15 14 13 12 10 10 9 9 8 8 8 8 8 8 9 9 9 9 9 9 9 9 10 10 11 11 11 11 12 11 10 10 9 9 10 9 8 8
21 20 20 20 20 21 21 21 20 19 17 16 15 14 12 11 10 9 9 9 9 9 10 10 10 11 11 10 10 10 10 10 10 11 10 11 10 10 10 11 10 10 10 9 9 8 7 7 8
21 20 20 19 20 21 21 22 22 20 18 17 16 14 12 11 11 10 10 9 10 10 10 11 12 12 12 12 12 11 10 10 11 11 10 11 10 10 10 9 9 9 9 8 8 8 7 7 7
20 20 19 19 20 21 21 22 22 21 19 17 16 14 12 11 11 11 10 10 11 11 11 11 12 12 13 13 12 12 11 11 11 11 11 11 10 9 9 9 8 8 8 8 8 7 6 7 7
19 19 19 20 21 22 23 23 23 21 18 17 16 15 13 12 12 12 11 11 11 12 12 12 12 13 13 13 13 12 11 11 11 11 11 10 9 9 9 8 8 8 7 7 7 6 6 6 6
18 19 21 22 22 23 23 23 23 21 19 18 16 15 14 13 12 12 11 12 13 13 13 13 14 13 13 13 12 12 11 11 11 11 10 9 8 8 8 7 7 7 6 6 6 5 5 5 4
18 19 21 23 23 23 24 24 23 22 20 19 18 17 15 14 14 13 12 12 14 14 14 14 14 13 13 13 12 12 11 11 10 10 9 9 9 8 7 6 6 6 5 5 5 5 4 4 4
18 19 22 23 23 23 23 24 23 23 22 21 19 18 17 16 15 14 13 13 13 14 14 13 13 13 13 13 12 12 11 10 9 9 8 8 7 7 6 6 5 5 5 4 4 4 4 3 3
18 19 21 22 23 23 23 23 22 23 22 22 20 19 17 16 15 15 14 14 14 14 14 14 13 12 12 12 12 11 11 10 9 9 8 7 6 6 6 6 5 5 4 4 4 3 3 2 2
17 18 19 21 22 23 23 23 22 22 22 21 20 19 18 17 16 16 15 15 15 14 14 14 13 12 11 11 11 11 10 9 9 8 8 7 6 6 5 5 5 4 3 3 3 2 2 2 1
15 15 17 19 21 22 23 22 22 22 22 21 20 19 19 19 18 17 16 16 16 15 14 14 13 12 11 11 10 10 10 9 8 7 7 7 6 6 6 6 5 4 3 3 3 3 2 1 1
13 14 16 17 19 21 22 22 21 21 21 21 20 20 19 19 18 17 16 16 16 16 15 14 13 11 11 10 10 9 9 8 8 7 7 6 6 5 5 4 4 4 3 3 3 2 2 1 0
11 12 15 17 18 19 20 20 20 20 20 20 20 19 19 19 18 18 17 16 15 15 14 14 13 11 10 10 9 9 9 8 8 7 7 6 5 5 4 3 3 3 3 2 1 0 1 1 2
10 10 13 15 17 18 18 19 19 19 19 19 20 20 19 19 18 18 18 16 16 15 15 14 13 12 10 10 9 8 8 8 7 7 6 5 4 4 3 2 2 2 2 2 1 2 2 3 3
7 8 10 12 14 15 16 17 17 18 18 18 19 20 20 19 18 18 18 17 16 16 15 14 13 12 11 10 9 8 7 7 6 6 6 5 4 3 3 3 2 1 2 3 3 3 4 4 4
5 6 8 9 11 13 14 15 15 15 16 17 17 18 19 19 18 17 17 17 16 16 15 14 12 11 11 10 9 7 7 6 6 6 5 4 3 3 3 3 3 3 4 4 4 4 5 5 6
4 4 5 6 8 10 12 13 13 13 14 15 15 16 17 18 17 16 16 16 15 15 15 13 12 11 10 10 9 9 8 7 6 5 5 5 4 4 4 4 5 5 6 5 5 5 6 6 6
5 3 2 3 5 7 9 10 10 10 11 12 13 14 14 16 16 16 15 15 15 14 14 13 12 11 10 10 10 9 8 7 6 6 5 5 5 5 5 6 6 6 7 6 6 6 6 7 7
7 5 4 2 2 3 5 7 8 8 9 10 11 12 13 14 15 15 15 15 14 14 14 13 12 12 11 10 10 10 9 8 7 7 6 6 7 7 7 7 7 7 7 7 7 6 7 7 8
9 8 6 4 2 0 2 4 6 7 7 8 9 10 11 12 13 14 14 14 14 14 14 13 12 12 11 11 10 10 9 9 9 8 8 8 8 8 8 8 8 7 7 8 8 7 8 8 9
12 11 9 6 5 3 3 2 3 5 6 6 7 8 9 10 11 12 13 12 12 12 13 13 12 12 11 11 11 10 10 9 9 9 9 9 8 9 9 9 9 8 8 9 9 9 9 9 10
14 14 12 10 8 7 5 4 2 3 4 4 5 6 7 9 10 10 10 11 11 12 12 12 12 12 12 11 11 11 10 10 9 9 10 10 10 9 10 10 10 9 9 9 10 10 10 10 11
17 16 15 13 12 10 7 6 3 3 4 3 3 5 5 7 8 9 9 10 10 11 12 12 12 12 12 12 12 11 10 10 10 10 10 11 10 10 10 11 11 10 10 10 11 11 11 11 11
21 19 18 16 15 12 10 8 5 3 3 3 2 3 3 5 6 7 8 8 9 9 10 10 11 12 12 12 12 12 11 11 11 11 11 11 11 11 12 12 12 11 11 11 11 11 11 11 12
22 20 19 18 16 14 13 10 8 6 5 4 2 1 2 3 5 5 6 6 7 8 9 9 9 11 12 12 12 12 11 12 12 12 12 12 12 12 12 12 12 12 11 11 12 12 11 11 12
24 23 20 19 19 18 16 12 11 9 7 5 4 3 3 4 4 3 4 5 5 7 8 8 9 10 12 13 13 13 11 11 11 12 12 12 12 12 12 12 12 12 12 12 13 13 13 13 12
26 24 22 21 20 20 18 15 12 10 9 8 7 5 4 4 4 4 4 5 5 6 8 8 8 9 11 13 14 13 12 12 12 12 12 12 12 12 12 13 13 13 13 13 14 13 14 14 13
27 26 24 23 22 21 19 16 14 12 11 10 9 7 6 4 5 5 5 5 6 7 8 8 9 10 11 12 13 13 13 13 13 12 13 13 13 13 13 13 14 14 14 14 14 14 14 14 14
29 28 26 26 24 22 20 17 15 14 13 12 11 10 8 7 6 6 7 7 8 8 9 9 10 11 12 13 13 13 13 13 13 13 13 14 14 14 14 14 15 15 14 14 14 15 14 14 14

GEFSSGP_500_meanwind_258.txt.gz
Wind_Speed
19 19 18 18 19 16 13 12 12 12 11 10 10 9 9 9 8 9 9 8 8 7 7 8 9 9 9 10 10 11 12 11 11 11 12 12 13 13 12 12 12 12 12 11 10 10 9 8 8
19 19 18 19 18 15 15 14 14 13 12 11 11 11 11 10 10 10 10 9 8 8 7 8 9 9 10 10 10 11 12 11 11 12 12 12 13 12 12 12 11 11 11 10 9 9 8 9 9
19 18 18 19 18 17 16 16 15 14 13 12 12 12 11 11 10 10 10 10 9 8 8 8 9 9 10 10 11 11 11 11 12 12 12 12 12 12 11 11 10 10 10 9 8 8 7 8 8
19 19 19 19 18 18 17 17 17 15 14 13 13 12 12 11 11 10 10 11 10 9 9 9 10 10 10 11 11 12 12 12 12 12 12 12 12 10 10 10 10 10 9 8 8 7 7 8 8
19 19 19 18 18 19 18 18 17 16 14 14 14 13 13 12 11 11 11 12 12 11 11 11 12 12 12 11 11 12 12 13 12 12 11 11 11 10 9 9 9 9 8 8 7 7 7 7 7
19 20 18 17 19 20 19 18 17 16 16 14 14 14 13 12 12 12 13 12 13 12 12 13 13 13 12 12 12 12 12 12 12 13 12 11 10 9 9 8 8 7 7 7 6 6 6 6 6
19 19 18 19 20 20 20 19 18 17 17 16 15 15 14 13 13 13 13 13 13 12 12 13 13 13 13 13 12 12 12 12 12 11 11 11 10 9 8 8 7 7 7 7 6 6 5 5 5
19 19 19 20 20 21 21 20 20 19 18 17 16 15 14 14 14 13 13 13 13 12 13 13 13 12 12 12 12 12 11 11 11 11 10 10 9 8 8 7 6 6 6 6 6 5 5 5 5
18 18 18 20 20 20 21 21 20 20 18 18 17 15 15 15 15 14 14 13 13 13 13 13 12 12 11 11 11 11 10 10 10 10 9 8 8 8 7 6 6 5 5 5 5 5 5 4 4
17 17 18 19 20 20 20 21 21 20 20 18 17 16 15 15 15 14 14 14 14 14 14 14 13 13 12 12 11 11 11 10 9 9 9 8 8 7 6 5 5 5 5 5 5 4 4 4 3
15 16 17 18 19 19 20 20 20 20 20 19 18 17 16 16 15 15 14 14 15 14 14 14 14 13 13 12 11 11 11 11 10 9 9 9 8 7 6 5 4 5 5 4 4 4 4 3 3
14 15 16 17 18 19 19 20 20 19 19 19 18 18 17 16 15 15 14 14 14 14 14 13 13 12 12 12 11 10 10 10 9 9 8 8 8 7 6 5 4 4 4 4 3 3 3 3 3
12 13 14 15 16 17 19 19 19 19 19 19 18 17 17 17 16 15 14 14 14 13 13 13 12 12 11 11 11 10 9 9 9 8 8 7 7 7 6 5 4 3 3 3 3 3 3 3 3
10 11 13 14 15 16 17 18 18 18 18 18 19 18 17 17 16 15 14 13 13 12 12 12 11 11 11 11 10 9 8 8 7 7 6 6 6 5 5 5 4 3 3 2 1 1 2 2 2
9 10 11 12 13 14 16 17 17 17 17 18 18 17 17 16 16 15 15 14 13 13 12 12 11 11 11 10 9 9 8 7 6 6 6 5 4 4 3 4 3 3 2 1 0 1 1 2 3
8 9 9 10 11 12 14 14 15 16 16 16 16 15 15 15 15 14 14 13 12 12 12 11 11 10 10 10 9 8 7 7 6 6 5 5 4 3 3 3 2 2 2 1 1 1 1 3 3
5 6 6 7 8 10 12 12 13 14 14 15 15 14 14 14 14 14 14 13 12 11 11 11 10 10 10 9 8 8 7 6 6 6 5 5 5 4 3 4 3 3 3 2 3 3 3 4 4
3 3 4 4 6 8 10 10 11 12 13 13 14 13 13 13 13 13 12 12 12 11 11 10 10 9 9 9 8 8 8 7 6 6 6 6 5 5 4 4 4 3 3 3 4 4 4 4 5
5 3 2 2 4 6 7 8 9 10 10 11 12 12 12 12 12 12 11 11 11 11 11 10 10 9 9 9 8 8 8 8 7 6 6 6 6 6 5 5 4 4 3 4 4 4 5 5 6
6 5 3 1 1 3 4 6 7 7 8 9 10 11 11 10 11 11 11 11 10 10 10 10 9 9 9 9 8 8 7 7 7 7 7 7 7 7 7 6 5 4 4 5 5 5 5 6 7
8 7 5 3 1 1 2 4 4 5 6 7 8 8 9 9 10 10 10 10 10 10 9 9 9 9 9 8 8 8 7 7 8 8 8 8 8 8 8 7 6 5 5 6 6 6 7 7 8
10 9 8 5 3 2 1 0 2 3 4 5 5 6 7 8 9 9 9 9 9 9 9 9 9 9 9 9 8 8 8 8 8 8 8 9 8 8 8 8 7 7 7 7 7 7 7 8 9
13 11 9 8 6 5 3 2 3 2 2 3 4 4 5 6 7 8 8 8 8 9 9 9 8 9 9 9 9 9 9 9 9 9 9 9 9 9 9 9 9 8 8 8 8 8 8 9 9
16 14 11 9 8 8 6 5 4 3 1 2 3 3 3 4 5 6 6 7 7 8 8 8 8 8 9 9 9 9 9 9 9 10 10 10 9 9 9 10 10 9 9 10 9 10 10 9 10
19 16 13 10 10 10 9 8 6 5 3 2 2 2 2 2 3 4 4 5 6 6 7 8 7 7 8 8 9 9 9 10 10 10 10 10 10 10 10 11 11 11 11 11 11 11 10 10 10
21 19 16 14 12 11 11 10 8 6 4 3 3 3 3 2 2 2 3 3 5 6 6 6 6 7 7 8 9 9 9 10 10 10 10 10 10 10 10 11 11 11 12 11 11 11 11 11 11
23 21 19 16 14 12 12 11 9 8 6 5 5 5 4 4 3 3 3 3 4 5 6 6 6 7 7 8 9 9 10 11 11 10 10 10 10 10 11 11 12 12 12 12 12 13 12 11 11
25 22 21 19 16 14 13 12 11 9 8 7 7 6 6 5 4 4 4 4 5 5 6 6 7 7 8 9 10 10 11 12 11 11 10 10 11 11 11 12 13 13 14 13 13 14 13 12 11
27 25 23 21 18 15 14 14 13 12 10 9 8 8 7 6 6 6 6 6 6 6 6 7 7 8 8 9 10 11 12 12 12 11 11 11 11 12 12 13 13 14 14 14 14 14 13 13 13
29 27 25 23 22 19 16 15 15 14 12 11 10 9 8 8 7 8 7 7 7 7 8 8 8 8 9 9 10 11 12 12 12 12 12 12 12 12 13 13 14 14 14 15 14 14 14 14 14

GEFSSGP_500_meanwind_264.txt.gz
Wind_Speed
18 18 17 18 19 14 10 7 7 5 4 4 3 2 2 2 2 2 2 4 4 5 5 6 6 6 6 6 7 7 8 8 10 10 10 10 11 10 11 10 10 10 9 9 8 8 7 6 6
18 17 19 20 15 11 10 9 8 6 5 4 4 4 3 3 3 3 3 4 4 5 5 5 5 6 6 7 7 7 8 9 9 10 9 10 10 10 10 10 10 9 9 8 7 7 6 6 5
18 20 22 16 12 11 11 10 8 7 5 5 5 4 4 4 4 3 3 4 4 5 6 6 6 6 6 7 7 8 8 8 8 9 9 9 9 10 9 9 9 9 8 8 7 7 6 5 5
19 24 20 14 12 12 11 10 9 8 6 5 5 5 5 6 6 5 4 4 5 6 7 7 7 7 7 7 7 7 8 8 8 9 9 9 9 9 9 8 8 8 7 7 6 6 6 5 5
21 21 15 14 13 13 13 12 10 8 8 7 7 5 5 7 7 7 7 7 7 7 8 8 8 7 7 6 6 7 7 8 8 8 8 8 8 8 8 8 7 7 6 5 5 5 5 5 5
22 17 15 14 13 14 14 13 12 10 9 9 8 7 6 8 8 8 8 9 9 8 9 9 8 7 7 7 7 7 7 8 8 8 8 7 8 8 7 7 6 6 5 5 4 4 4 4 4
19 15 15 14 14 14 15 15 13 11 10 9 9 8 8 9 9 9 9 9 9 9 8 8 8 8 8 7 7 8 9 9 8 8 8 7 7 7 7 6 5 5 4 4 3 3 3 3 3
15 12 13 13 13 14 15 15 14 12 11 10 10 10 9 9 9 10 10 10 10 9 9 9 9 9 8 7 8 8 8 8 7 7 7 7 6 6 6 5 5 4 3 2 2 2 2 3 3
12 11 12 12 13 15 15 15 15 13 12 11 11 11 10 11 10 10 10 10 10 10 9 9 9 9 8 9 9 8 8 8 8 7 7 6 6 5 5 4 4 3 3 2 2 2 2 3 3
9 10 11 12 12 14 15 16 16 15 13 13 12 11 11 11 11 11 10 10 10 10 10 9 10 10 10 9 9 8 7 7 7 7 6 6 5 5 4 4 3 3 2 2 2 2 2 2 2
8 10 11 12 12 14 15 16 17 16 15 14 13 12 11 12 12 12 11 11 11 11 11 10 10 10 10 9 9 7 7 7 7 7 6 6 5 5 4 4 3 2 1 1 2 1 1 1 1
8 10 11 13 13 14 15 16 16 16 16 15 13 13 13 13 13 13 12 12 11 11 10 10 10 10 10 9 9 8 7 7 7 7 6 5 5 5 4 4 4 3 2 1 2 1 1 1 1
8 10 11 13 14 15 14 15 16 15 16 15 14 14 14 14 14 14 13 13 12 11 11 10 9 9 9 8 8 8 8 7 6 5 5 5 4 4 4 4 4 3 3 1 1 1 0 1 2
8 10 10 13 13 14 14 15 16 15 15 14 14 14 14 14 14 13 13 13 13 12 11 10 10 9 9 8 8 8 8 8 7 6 6 5 5 4 4 4 4 3 2 2 1 1 1 2 3
8 9 9 11 12 13 13 14 14 15 14 13 13 14 14 14 13 13 13 13 12 12 11 11 10 10 9 9 9 9 8 8 7 7 7 6 5 4 4 4 4 3 3 2 2 2 2 3 4
5 4 5 8 10 12 12 12 13 13 13 13 13 13 13 13 13 12 12 12 12 11 11 11 10 10 9 9 9 8 8 7 7 7 7 6 6 5 5 4 4 3 4 3 3 3 4 4 4
4 2 3 5 8 9 10 11 12 13 12 12 12 12 13 12 12 12 11 11 11 11 10 10 10 9 9 8 8 8 7 7 7 7 7 7 6 6 5 4 4 4 4 4 4 4 5 5 5
3 0 1 1 3 6 8 9 11 12 12 11 11 12 12 12 12 12 11 11 10 10 10 9 9 9 8 8 8 8 8 8 8 8 8 8 7 7 6 5 4 4 4 4 5 5 6 5 5
4 4 3 2 1 3 6 8 10 10 11 11 10 10 11 11 11 11 11 11 10 10 9 9 9 9 8 8 9 9 9 9 8 8 8 8 8 8 7 6 5 5 5 5 5 5 6 6 6
8 6 4 2 2 3 5 7 9 9 9 10 10 9 9 10 10 10 10 10 9 9 9 9 9 9 9 8 9 9 9 9 9 8 8 8 9 9 8 7 6 6 6 6 7 7 7 8 8
9 7 6 4 5 6 5 5 7 8 8 8 8 8 8 8 9 9 9 10 9 8 8 8 8 8 8 8 9 9 9 9 9 9 9 9 10 10 9 8 8 8 8 8 9 8 8 8 8
10 9 7 6 6 7 7 6 6 8 8 7 7 7 7 7 7 8 8 9 9 8 8 8 8 8 9 9 9 9 9 9 9 9 9 9 10 10 10 10 9 9 9 9 9 10 10 10 10
13 11 9 8 8 9 8 7 9 7 7 7 7 7 6 6 7 7 8 8 8 8 9 9 8 8 9 9 9 9 10 10 10 9 9 9 10 10 10 10 10 10 10 10 10 10 11 11 11
13 12 12 11 10 10 8 7 8 8 8 7 7 6 5 5 6 7 6 7 7 8 8 9 9 8 8 8 9 9 10 10 10 10 9 9 9 9 10 10 10 11 11 11 11 12 12 12 11
16 14 12 13 13 11 9 10 11 10 10 8 7 5 4 4 5 6 6 6 6 7 8 8 8 8 8 8 9 9 10 10 10 10 10 10 10 10 10 10 11 11 12 12 12 12 12 12 12
19 17 15 13 11 10 11 12 12 12 10 8 8 6 5 5 5 5 6 6 5 6 7 8 8 9 9 9 10 10 10 11 11 11 10 11 11 10 10 11 11 12 12 12 12 12 12 13 13
20 19 17 16 15 14 15 13 11 12 11 8 8 7 6 6 6 6 6 6 6 6 7 7 8 9 10 10 10 10 11 11 11 11 11 11 11 11 10 11 12 12 13 13 13 13 13 13 13
21 20 19 18 16 16 15 13 13 15 14 10 9 10 8 7 7 7 7 7 7 7 8 8 9 9 10 10 11 11 12 12 11 11 12 12 11 11 11 12 12 13 14 14 13 13 13 14 14
22 21 20 19 18 17 16 14 14 14 14 12 10 11 9 9 9 9 8 8 8 8 9 9 10 10 11 11 11 12 12 12 12 12 12 12 12 11 12 13 14 14 14 14 14 14 14 14 14
22 23 21 21 21 21 19 16 15 15 14 13 12 11 12 11 11 11 10 9 8 9 10 11 11 11 11 11 11 12 12 12 12 13 14 14 13 13 14 14 15 15 15 15 15 14 15 15 16

GEFSSGP_500_meanwind_270.txt.gz
Wind_Speed
18 17 17 17 17 15 14 14 13 12 10 9 8 8 8 7 6 6 6 6 5 6 6 6 6 7 7 8 8 7 8 8 8 9 9 10 11 11 11 10 10 10 9 9 8 8 8 8 8
18 17 17 17 18 17 16 16 14 12 10 10 9 8 8 7 6 6 6 6 7 7 7 6 6 7 7 8 8 7 8 8 8 9 10 10 10 10 10 9 9 9 8 8 8 8 7 7 7
19 18 18 18 19 18 18 17 15 13 11 10 9 9 8 8 7 7 6 6 7 7 8 8 7 7 7 7 7 7 8 8 8 9 9 9 9 9 9 8 9 8 8 8 8 7 7 6 6
18 19 19 19 19 19 19 18 16 14 12 11 10 9 8 8 8 7 7 7 8 8 8 7 8 7 7 7 8 8 9 9 10 9 9 9 9 9 9 8 8 8 8 7 6 6 5 5 5
19 20 21 20 20 20 20 18 16 14 12 11 11 10 9 9 9 9 9 8 9 9 9 9 9 8 8 8 8 9 9 9 9 9 9 9 9 9 8 8 8 8 7 6 6 4 4 4 4
20 21 21 20 20 20 20 20 18 15 13 12 12 11 10 11 11 10 10 9 9 10 10 10 10 9 9 9 8 8 7 7 8 8 7 7 7 8 8 8 7 6 6 5 4 4 4 4 4
20 20 20 19 20 20 20 20 19 16 15 14 13 12 12 12 12 11 11 11 11 10 10 10 11 11 10 9 9 8 8 8 7 7 6 6 6 6 6 6 5 4 4 4 4 4 4 4 4
21 20 18 19 20 21 20 20 19 17 16 15 14 13 12 13 13 12 11 11 12 11 10 11 11 11 10 10 9 9 8 8 7 7 7 6 6 6 5 4 4 3 3 3 3 3 3 4 3
20 17 17 19 20 20 20 20 19 18 17 16 15 14 13 13 14 13 12 11 12 11 11 11 11 11 10 10 9 9 8 8 8 7 7 6 5 5 4 3 2 2 2 3 3 3 3 3 3
17 16 18 19 20 20 20 19 20 19 18 17 16 15 15 14 14 13 13 12 12 12 11 11 11 12 11 10 10 9 8 7 7 7 6 6 5 4 4 3 2 2 2 3 2 2 1 1 2
15 16 17 19 20 19 19 19 19 20 19 18 17 17 16 16 15 14 14 13 13 12 12 12 12 12 12 11 10 9 9 8 7 7 6 6 5 5 4 3 3 3 2 2 1 1 1 1 1
13 15 17 18 20 20 19 19 20 19 19 18 18 17 16 15 15 15 14 14 13 13 13 13 14 13 12 11 10 10 9 8 8 8 7 6 5 5 4 4 4 3 2 1 1 0 0 1 1
11 14 16 17 19 18 18 19 19 19 19 18 17 17 17 16 16 15 15 14 14 13 13 13 13 13 12 11 10 10 10 9 9 8 7 5 5 4 4 3 3 3 2 2 1 1 1 2 2
9 12 14 16 17 17 17 18 18 18 18 17 17 16 16 17 16 16 15 15 14 13 12 13 12 12 11 11 11 10 10 9 9 8 7 6 5 3 3 2 2 2 2 2 3 2 2 2 2
7 8 11 13 15 16 16 16 17 17 17 16 15 16 15 16 16 16 15 14 13 13 13 13 12 12 11 11 10 10 9 8 7 7 6 6 5 4 3 3 2 2 2 2 2 2 2 2 2
5 6 7 9 12 13 14 15 16 15 16 15 15 14 14 14 14 15 15 15 14 13 13 13 13 12 11 11 10 10 9 8 7 6 6 6 6 5 4 4 3 3 2 3 3 3 3 3 3
3 5 6 8 10 12 12 13 13 14 14 14 14 13 13 13 13 13 13 13 13 13 12 12 12 12 11 11 10 10 9 8 8 7 6 6 6 6 5 4 3 3 3 4 3 4 4 4 4
2 2 3 5 8 10 11 11 12 12 13 13 13 13 13 13 13 13 12 12 12 12 11 11 12 11 11 10 10 9 8 8 8 8 7 7 7 6 5 5 5 4 4 4 3 4 4 5 5
2 1 2 4 5 7 8 9 10 10 10 11 12 12 12 12 12 12 12 11 11 11 11 11 11 11 10 10 10 9 8 8 8 8 8 8 7 7 7 6 5 6 5 5 4 4 5 5 5
6 3 1 2 2 4 7 7 8 8 9 9 10 10 10 10 10 11 11 11 11 11 10 10 10 10 9 9 9 9 9 8 7 7 7 8 8 7 7 6 6 7 6 6 5 5 5 5 5
9 7 3 2 1 3 5 5 5 7 7 8 8 9 9 9 9 9 9 10 10 10 10 10 10 9 9 9 9 9 9 8 8 7 7 7 7 7 6 6 7 7 7 7 7 6 6 6 6
12 10 7 5 4 4 5 5 3 4 5 6 6 7 8 8 8 9 9 9 9 9 9 9 9 9 9 8 8 8 8 8 7 7 7 7 7 6 6 7 7 8 8 8 8 7 7 7 7
14 13 12 11 9 7 7 7 4 3 5 5 4 5 6 6 7 7 7 7 8 8 8 8 9 8 8 8 8 8 8 8 7 7 7 7 7 6 7 7 8 8 8 9 8 8 8 8 8
17 16 15 14 12 10 8 9 6 4 4 5 4 4 3 4 4 5 6 6 6 6 7 7 7 7 7 7 7 8 8 8 7 7 7 7 7 7 7 7 8 9 9 9 9 8 9 9 9
18 18 17 17 15 12 11 11 8 5 5 6 5 4 3 2 3 4 5 5 5 5 6 6 6 7 7 7 7 7 7 8 7 8 7 7 7 7 7 8 8 9 9 9 9 9 9 9 10
18 19 18 17 15 13 14 14 9 6 6 6 5 4 4 3 2 3 4 4 5 6 7 6 6 6 7 7 7 6 7 8 7 8 8 8 7 7 7 8 8 9 9 9 9 9 9 9 10
20 19 18 18 17 17 16 14 11 8 7 7 5 5 5 4 2 3 3 4 5 6 6 7 7 7 7 7 7 6 7 8 7 9 9 9 8 7 7 8 8 9 9 10 10 10 9 10 10
23 20 18 20 20 19 17 16 13 11 8 8 7 5 4 3 4 3 4 4 5 5 6 7 8 8 8 9 9 8 7 7 8 9 9 9 9 9 9 9 9 10 10 11 11 10 10 10 11
24 22 20 20 19 18 18 17 13 12 9 8 8 7 5 5 4 4 5 5 6 7 7 8 8 9 9 10 10 10 9 9 10 10 10 10 10 10 10 10 10 11 12 12 12 11 12 12 12
24 23 22 21 19 17 18 17 14 13 11 10 9 9 8 6 5 5 5 6 7 7 8 9 10 11 11 11 11 11 10 10 11 11 11 11 11 11 11 11 12 13 13 13 13 13 13 13 13

GEFSSGP_500_meanwind_276.txt.gz
Wind_Speed
16 16 14 14 14 13 12 11 11 11 9 8 8 8 8 7 7 7 7 7 7 7 7 7 7 8 9 9 9 10 9 9 8 9 9 9 9 9 9 9 9 9 9 8 8 7 7 7 7
16 16 15 15 16 14 14 13 12 11 10 9 9 9 9 9 8 8 8 8 8 7 8 7 7 7 8 9 9 9 9 8 8 8 9 9 9 9 9 9 9 9 9 8 7 7 6 6 6
17 16 16 16 16 16 15 14 13 13 11 10 10 10 10 9 9 9 9 9 8 8 8 8 7 7 8 9 9 9 9 8 9 9 9 9 9 9 9 9 9 9 8 8 7 6 6 6 6
17 17 17 17 17 17 16 15 14 13 13 12 12 12 11 10 10 9 9 10 10 10 10 9 9 9 9 9 10 9 9 9 9 8 8 8 9 9 8 8 8 8 7 7 6 7 7 6 6
17 17 18 18 19 18 18 17 16 15 14 13 12 12 12 11 10 10 10 11 11 11 11 11 10 10 10 10 11 10 9 9 8 8 8 8 8 8 7 7 7 7 6 6 6 6 6 6 5
16 17 18 19 20 20 19 18 17 16 14 13 12 12 12 11 10 10 11 12 12 11 10 11 11 12 11 10 10 10 10 9 9 8 8 8 8 8 7 6 6 6 5 5 5 5 5 5 4
18 18 19 19 20 20 20 19 19 17 15 13 12 12 12 12 11 11 11 10 11 11 11 11 12 12 12 11 10 9 9 9 9 8 8 8 7 6 6 5 6 5 6 6 5 5 4 3 3
18 19 20 20 20 20 20 20 19 18 15 13 13 12 12 12 11 11 11 10 10 11 11 11 11 12 11 11 10 9 8 8 7 7 8 8 7 7 6 6 5 5 5 4 3 3 2 2 2
18 19 20 20 20 21 20 20 20 18 16 14 13 12 12 12 11 11 11 11 11 11 11 11 12 11 11 10 10 9 9 8 7 7 7 7 7 7 6 6 5 5 4 3 2 2 1 1 1
17 19 19 18 19 20 20 20 20 18 17 15 13 13 12 12 12 12 11 11 11 11 11 12 11 11 11 10 10 10 9 9 8 7 6 7 7 6 6 6 5 4 3 2 2 2 1 1 0
16 17 17 17 18 19 20 20 19 18 17 16 15 15 15 13 13 12 12 12 12 12 11 11 11 11 10 10 10 10 10 10 8 8 7 7 7 6 5 5 4 4 2 1 1 1 1 0 2
14 15 15 16 17 18 19 20 19 18 18 17 16 16 16 15 14 13 13 13 12 12 11 12 12 11 11 10 10 10 9 8 8 7 7 6 6 6 5 5 4 4 3 2 1 1 1 1 2
12 14 15 15 15 17 18 19 18 19 18 17 16 16 16 16 16 15 14 13 12 12 12 11 12 12 11 11 10 10 9 8 8 7 7 6 5 5 4 4 4 4 3 3 3 2 2 2 3
9 11 12 14 15 16 18 18 17 18 18 17 16 16 16 16 16 15 14 13 13 12 12 11 12 12 11 11 10 9 9 8 8 7 7 7 6 5 4 4 4 4 4 4 4 4 3 2 3
7 8 10 12 13 14 15 16 16 16 16 16 15 15 15 15 14 14 13 12 13 12 12 11 11 11 11 11 10 9 9 8 8 7 7 7 6 6 5 4 3 3 3 3 4 4 4 3 2
5 6 7 9 11 11 12 14 14 15 14 15 14 13 13 13 13 13 13 12 12 12 12 11 10 9 9 9 9 9 9 8 8 8 8 7 6 6 5 4 4 3 3 3 4 4 4 4 4
3 3 5 6 8 9 10 11 12 12 12 12 12 12 11 12 12 12 12 12 12 11 10 10 10 9 9 9 8 8 8 8 8 8 8 7 6 6 5 4 4 4 4 4 4 5 5 4 5
1 1 3 4 6 7 8 9 9 9 9 10 10 10 10 11 11 11 11 10 10 10 10 10 9 9 8 8 8 8 8 8 8 8 8 8 7 6 5 4 4 5 5 4 4 5 5 4 5
3 1 1 3 3 5 6 7 7 7 7 8 9 9 9 9 9 9 9 9 9 9 9 8 8 8 8 8 7 7 8 8 8 7 7 8 7 7 6 6 5 5 5 5 5 5 5 5 5
5 3 1 0 1 2 3 4 5 5 5 5 6 6 7 8 8 8 8 8 8 8 7 7 7 7 7 7 7 7 8 8 7 7 7 7 7 6 6 6 5 5 5 5 5 5 5 6 6
8 6 4 3 3 2 2 3 3 3 3 4 4 4 4 6 6 7 7 6 6 6 7 7 7 7 6 6 6 7 7 7 7 7 6 6 6 5 5 5 6 6 6 6 6 6 6 7 7
11 9 8 6 5 5 4 3 2 2 2 2 2 3 4 3 4 5 5 5 5 5 5 6 6 6 6 6 5 5 6 6 6 6 6 5 5 6 6 6 7 7 7 7 7 7 7 7 8
13 13 11 9 8 8 7 5 4 3 2 1 2 2 2 2 3 3 3 4 4 4 5 5 5 5 5 5 5 5 5 5 5 5 6 6 6 6 7 7 7 8 8 8 8 7 8 8 8
17 15 14 13 12 11 9 8 5 4 2 2 2 1 2 2 2 2 3 4 4 4 5 5 6 5 4 4 4 4 4 5 5 5 6 6 6 7 7 8 8 8 8 9 9 9 9 10 10
19 18 17 16 15 14 12 11 8 5 4 3 3 2 3 3 2 2 2 3 3 3 4 5 5 5 4 4 4 5 5 5 6 6 7 7 7 8 8 8 8 9 9 10 10 10 10 10 10
21 20 20 19 18 16 15 14 10 7 5 5 5 4 5 5 3 2 2 2 3 3 3 4 5 5 5 5 5 6 7 7 8 8 8 8 9 9 8 8 9 9 10 10 10 10 11 11 12
23 22 21 21 20 19 17 15 12 9 7 7 7 6 5 5 5 4 4 4 4 3 4 4 5 5 5 5 6 7 7 8 8 9 10 10 9 10 9 10 10 10 10 10 10 11 12 12 12
24 23 24 23 22 21 19 16 13 10 9 9 9 8 6 6 6 6 5 5 5 5 5 5 5 6 6 6 6 7 8 8 8 9 11 10 10 10 11 11 11 11 11 11 12 12 12 13 13
24 24 25 24 23 22 20 17 14 12 10 10 10 10 8 8 8 7 7 7 7 7 7 6 6 7 7 7 7 8 8 8 9 10 11 11 11 11 12 12 12 13 13 12 13 13 13 14 15
25 25 24 25 24 23 22 19 16 14 12 11 11 11 10 10 10 9 8 8 8 8 8 8 8 8 8 8 9 9 9 10 11 12 12 12 12 12 13 13 13 14 14 14 14 15 15 15 16

GEFSSGP_500_meanwind_282.txt.gz
Wind_Speed
14 13 13 12 13 11 9 8 9 9 9 9 9 9 9 9 9 9 10 10 9 9 8 8 7 8 8 9 10 10 9 9 10 11 11 10 10 9 9 8 9 10 9 9 8 8 9 9 8
15 15 14 14 13 11 9 9 9 10 10 10 10 10 10 10 10 10 10 10 10 9 9 8 8 9 9 9 9 9 9 10 10 10 10 9 9 9 9 9 9 9 9 9 9 9 9 9 9
16 15 15 15 12 11 11 10 11 12 11 11 11 11 11 11 11 11 11 11 11 10 9 8 9 9 10 10 10 9 10 11 11 10 9 9 10 9 9 9 9 9 9 9 9 9 9 8 8
16 16 16 14 13 12 12 11 11 12 12 12 12 12 12 11 11 11 11 11 11 10 9 9 10 10 10 10 10 11 10 10 10 10 10 9 10 10 10 9 9 9 9 8 9 8 8 7 7
15 17 16 14 14 13 13 13 12 13 13 13 13 12 12 11 11 11 11 11 11 10 10 10 11 11 10 10 10 10 11 11 10 9 9 9 9 9 9 9 9 9 9 8 8 8 7 7 5
17 17 15 14 14 14 14 14 13 13 13 13 12 12 11 11 11 10 11 11 11 9 9 10 11 11 11 10 10 9 10 10 10 9 8 8 8 9 9 9 8 8 8 8 8 8 7 6 5
17 17 16 15 15 15 14 14 14 14 13 12 11 10 10 10 10 10 10 10 10 10 10 10 10 10 11 10 10 10 9 9 9 9 8 8 8 9 8 8 8 8 7 7 7 7 6 5 5
16 16 16 16 16 16 15 14 14 14 13 12 11 11 10 10 9 9 9 9 9 9 10 9 9 9 9 9 10 10 10 10 9 9 8 8 8 8 8 8 8 8 7 6 5 5 5 5 5
16 16 15 16 16 16 15 14 14 14 13 12 11 11 10 9 10 10 9 9 9 9 10 9 9 8 8 8 9 9 10 10 9 9 8 7 7 8 7 7 6 6 6 5 4 4 4 3 3
15 15 14 15 16 16 16 15 15 14 13 12 12 11 11 10 10 10 10 9 9 10 10 9 9 9 9 8 8 8 8 8 8 8 8 7 7 7 6 5 5 4 4 4 4 3 3 3 3
14 14 14 14 15 16 16 16 15 14 14 13 13 12 12 11 11 10 10 10 9 8 9 9 9 9 8 8 8 8 8 8 8 7 7 7 6 6 5 4 4 3 3 2 2 1 1 2 2
13 12 12 13 15 15 15 15 15 15 15 14 13 13 12 12 12 11 10 10 9 9 8 9 9 8 8 9 9 8 8 7 7 7 7 7 6 6 5 5 4 3 3 2 1 1 0 0 1
10 10 11 12 12 13 14 15 14 15 15 15 14 13 13 12 12 11 11 11 10 10 9 9 9 9 9 8 8 8 8 7 7 7 7 7 6 6 5 5 4 4 4 3 2 2 1 1 1
8 9 10 10 11 12 14 14 14 14 14 14 14 13 13 13 12 11 11 10 10 9 9 9 9 9 9 8 8 8 7 7 7 7 7 6 5 5 4 4 4 4 4 4 3 3 2 1 1
7 8 9 10 10 10 12 12 13 13 13 13 13 13 12 13 12 11 10 10 9 9 8 9 8 8 9 8 8 8 8 7 7 7 6 5 5 4 4 3 3 3 3 3 3 3 3 2 2
6 7 6 7 8 9 10 10 10 11 11 12 11 11 11 11 11 11 10 9 8 8 8 7 7 7 7 7 8 8 8 7 7 6 7 7 6 5 5 4 3 3 3 3 2 2 2 2 2
4 4 4 4 6 7 8 9 8 9 9 10 10 10 10 10 9 9 9 9 8 8 8 7 7 6 6 6 7 7 7 7 6 6 6 7 6 6 5 5 4 4 3 3 2 2 2 3 4
0 1 2 2 3 5 6 7 7 8 7 7 8 9 9 8 8 8 8 8 8 7 7 6 6 6 5 5 5 6 6 6 6 6 6 6 6 6 5 5 4 4 3 3 3 3 3 4 4
3 1 0 1 1 3 4 4 5 6 5 5 5 6 7 7 7 6 6 6 6 6 6 6 5 5 4 5 5 5 5 5 4 4 4 5 5 5 4 4 4 4 4 4 3 4 4 5 5
4 2 1 1 0 2 2 2 3 3 3 3 3 4 5 5 5 5 5 5 5 5 5 6 5 4 4 4 4 4 4 4 4 4 4 4 4 4 4 4 5 5 5 5 5 5 6 6 6
5 4 3 3 1 0 1 2 2 2 1 2 2 3 3 3 4 4 4 4 4 4 5 5 5 4 4 3 3 3 3 3 4 4 4 4 4 4 4 5 5 6 6 6 5 6 6 6 7
8 7 6 4 2 3 1 1 2 1 0 1 1 1 2 2 2 3 3 3 3 4 4 4 5 5 4 3 3 3 3 3 3 3 3 4 4 5 5 6 7 7 7 7 7 7 7 7 8
11 10 9 7 5 4 4 2 3 2 2 1 0 0 0 1 1 2 2 3 3 3 3 4 4 4 3 3 3 3 4 3 3 4 4 5 5 6 6 7 7 8 7 8 8 8 8 8 8
12 11 11 9 8 8 7 5 4 3 3 2 2 2 2 2 2 3 3 4 4 4 4 4 3 3 3 4 4 5 4 4 4 5 5 6 6 7 7 7 8 8 8 9 9 9 9 9 9
14 12 11 11 11 11 9 8 6 5 4 4 4 4 4 4 4 4 5 4 4 5 4 4 4 4 4 5 5 5 5 5 5 6 6 7 7 8 9 8 8 9 9 10 10 10 9 9 10
17 15 14 13 12 12 11 11 8 7 6 5 5 5 6 6 6 6 6 5 5 5 5 5 5 5 5 5 6 5 6 6 6 7 7 7 8 9 9 9 9 10 10 11 11 11 11 11 11
20 19 16 15 14 13 13 13 10 9 8 7 7 8 7 8 8 8 7 7 7 7 7 7 6 6 6 6 6 6 6 6 7 7 8 8 9 9 9 10 10 11 11 12 12 12 12 12 13
22 21 18 18 17 16 16 14 13 11 10 9 9 9 9 10 10 10 9 9 9 8 8 8 8 7 7 7 8 7 7 7 7 8 8 9 9 10 10 11 11 12 12 12 12 12 12 13 13
22 21 21 19 19 17 17 17 14 13 12 11 11 10 11 11 11 11 11 11 10 9 9 9 9 9 9 9 9 9 9 9 9 9 9 10 10 11 11 12 13 14 14 13 13 13 13 13 14
22 21 20 20 19 19 18 18 16 15 14 13 13 12 12 12 12 12 12 12 11 10 10 10 10 10 10 10 10 10 10 10 10 10 11 11 11 12 12 13 13 14 15 15 14 15 15 15 15

GEFSSGP_500_meanwind_288.txt.gz
Wind_Speed
14 14 13 14 13 8 5 5 4 5 4 3 3 3 3 3 3 2 3 4 4 4 5 6 5 5 5 5 6 6 7 7 6 6 6 6 6 5 5 4 4 5 5 5 4 5 5 7 8
14 13 15 14 10 7 6 6 5 5 4 4 4 4 3 3 3 3 3 3 4 5 5 6 6 6 6 6 6 7 7 6 6 6 6 6 6 5 4 4 4 5 5 5 5 6 5 6 7
15 15 17 13 8 7 7 6 6 6 5 4 4 4 4 4 4 4 4 3 3 4 5 5 6 6 6 6 6 7 7 6 6 6 6 6 6 5 4 4 4 4 5 5 6 5 5 6 6
16 18 16 11 9 8 8 7 7 6 5 5 4 4 4 4 4 4 4 4 4 5 5 6 5 6 6 6 6 6 6 6 6 6 5 6 6 5 5 5 5 4 5 5 6 5 5 6 6
18 18 13 10 9 9 8 8 7 6 6 5 5 5 5 5 5 5 5 5 4 4 5 6 6 7 7 7 7 7 6 7 6 5 5 5 6 5 4 4 5 6 6 6 6 5 5 4 3
19 15 10 9 8 9 9 8 8 7 7 6 6 6 6 6 5 5 5 5 5 5 5 6 7 7 7 8 8 7 7 6 6 6 5 5 5 4 4 5 5 5 5 6 5 4 3 3 3
17 13 10 8 8 9 9 9 9 9 8 7 6 6 6 6 6 6 6 6 6 6 6 7 7 7 7 7 7 7 6 6 5 6 6 6 6 6 6 6 6 5 5 5 4 4 3 3 2
14 12 9 7 9 9 10 10 9 9 8 8 7 6 6 6 6 6 6 6 6 6 7 7 7 7 7 6 6 7 6 6 5 6 6 6 6 6 6 6 6 5 5 4 4 3 3 2 1
13 10 8 7 9 10 10 10 10 9 9 9 8 7 7 6 6 6 6 6 6 6 6 6 6 5 6 6 6 6 6 6 5 5 5 5 5 5 5 5 5 4 4 4 3 3 2 1 0
10 8 8 8 9 11 10 9 10 9 9 9 9 8 7 7 6 6 6 6 5 6 6 6 6 6 6 6 6 6 6 6 6 5 5 5 5 5 4 3 3 3 3 2 2 2 0 0 0
7 8 8 8 10 10 10 11 11 10 9 9 9 9 8 7 7 7 7 7 6 6 6 6 6 6 6 6 6 6 7 6 6 6 5 5 5 5 4 3 2 2 3 3 3 3 1 0 1
6 8 9 9 10 10 11 12 12 11 10 9 9 9 8 8 7 7 8 7 7 7 7 6 7 6 6 6 7 7 6 7 6 6 6 5 5 5 4 3 3 3 3 3 3 3 3 2 1
6 7 8 9 10 9 10 11 11 11 10 10 10 10 9 8 8 7 7 8 8 7 7 6 6 6 5 6 6 7 7 6 6 6 6 5 4 4 4 4 4 4 4 4 4 4 4 3 3
4 5 6 7 9 9 10 11 11 12 10 9 9 9 9 10 9 8 7 7 8 8 8 8 7 6 6 6 7 7 6 6 6 6 5 5 5 4 4 4 4 5 5 4 4 4 4 4 3
4 4 5 5 6 7 7 8 10 10 10 9 8 9 9 9 9 8 8 9 9 8 8 7 6 7 6 6 6 6 6 6 6 5 6 5 5 5 4 4 4 4 4 4 4 4 4 4 4
3 2 3 4 6 6 6 7 8 9 9 9 9 9 9 9 9 8 8 9 9 8 8 7 6 6 6 6 6 6 6 6 6 6 7 7 5 5 5 4 4 4 4 4 4 4 4 5 5
3 1 2 3 4 5 6 6 7 8 8 8 8 8 8 9 9 8 8 8 9 9 8 8 7 6 6 5 6 6 6 6 6 6 7 7 6 6 6 5 5 4 4 5 5 6 6 6 6
2 1 2 3 4 4 4 5 6 7 7 7 7 7 7 8 8 8 8 9 9 9 9 8 8 7 6 5 6 6 6 6 6 6 6 6 6 6 6 6 5 5 6 6 6 7 7 7 7
2 2 1 1 3 3 3 5 7 6 7 6 6 7 7 7 8 8 8 8 8 8 9 9 8 8 7 6 6 6 6 6 6 6 6 6 6 7 6 6 6 7 7 8 8 8 8 8 8
4 4 1 0 2 3 3 3 6 6 5 6 6 6 6 6 7 7 7 7 7 8 9 9 9 8 7 7 6 6 7 6 6 7 6 6 7 7 7 7 7 8 9 9 9 9 9 9 9
6 4 4 4 1 4 4 4 5 4 6 6 6 5 5 5 5 7 6 6 7 7 8 8 8 8 8 7 7 7 7 7 7 6 6 7 8 7 7 7 8 9 9 10 10 10 10 9 9
8 6 7 6 5 6 4 5 6 5 5 6 5 5 5 5 6 6 6 7 7 7 7 7 7 7 8 7 7 7 7 7 7 7 7 7 7 8 8 8 9 10 10 10 10 10 10 10 10
9 8 8 8 7 7 6 6 5 7 7 7 6 6 5 5 6 6 7 7 7 7 7 7 7 7 7 7 7 7 7 7 8 8 7 7 8 8 8 9 10 10 11 12 12 11 11 11 11
11 11 10 8 6 7 7 7 7 7 7 7 8 8 7 6 6 7 8 7 7 7 7 7 7 7 7 7 7 7 7 7 8 8 8 8 8 8 9 10 11 12 12 13 12 12 12 12 11
13 12 11 10 9 8 8 8 9 9 8 8 9 9 8 8 7 8 8 8 8 8 7 7 7 7 7 7 7 7 7 8 8 8 9 9 9 10 10 11 12 13 13 13 13 12 12 12 12
14 13 12 11 8 8 9 10 11 11 10 10 10 11 10 9 8 8 8 9 9 8 8 8 8 7 7 8 8 8 8 8 8 9 10 10 10 10 11 12 13 13 13 14 14 13 13 13 13
15 15 14 13 11 11 11 12 13 12 10 10 10 11 10 9 8 9 9 10 10 9 9 9 9 8 8 8 9 9 9 9 9 10 10 11 11 12 12 12 13 14 14 14 14 14 13 13 13
16 15 14 14 14 14 13 12 13 12 12 13 12 12 11 10 8 10 10 10 11 11 10 10 10 9 9 9 9 9 10 10 10 10 11 11 12 13 13 14 14 14 15 15 15 15 14 14 14
16 16 16 16 15 14 15 13 14 12 13 14 13 13 12 11 9 11 11 11 11 12 11 11 12 11 11 11 10 10 10 11 11 12 12 12 13 14 14 15 16 15 15 15 15 15 15 16 16
17 17 18 18 17 17 17 16 15 15 15 15 15 15 14 13 13 13 13 12 13 13 13 12 12 12 12 12 12 12 12 12 13 13 13 14 14 15 16 17 17 16 16 17 17 16 16 17 17

GEFSSGP_500_meanwind_294.txt.gz
Wind_Speed
15 15 14 12 12 13 12 12 12 12 11 10 9 9 10 9 8 7 7 7 7 8 7 7 7 6 6 6 5 5 5 4 3 3 3 4 4 4 3 3 4 4 4 4 5 6 7 7 8
15 14 13 13 13 13 13 13 13 12 11 10 9 9 9 9 9 8 7 7 7 8 7 7 7 6 6 6 6 6 6 6 5 4 4 4 4 4 4 4 4 4 4 4 4 6 6 7 7
16 14 14 14 15 14 14 14 13 12 12 10 9 9 9 10 10 9 7 7 8 8 7 8 7 6 6 7 7 7 7 6 6 5 4 4 4 4 4 4 4 4 4 4 4 6 6 5 4
16 15 15 16 16 16 15 14 13 12 11 10 10 9 9 10 10 9 8 8 8 8 8 8 7 7 7 8 7 7 7 6 6 5 4 4 4 4 4 4 3 3 4 4 4 5 5 4 4
15 16 17 17 16 16 15 15 13 13 11 10 10 9 10 10 10 10 10 9 9 9 8 7 8 8 8 7 7 6 6 6 6 5 5 4 5 5 4 4 4 4 4 3 4 4 4 4 4
15 15 16 15 15 16 16 16 14 13 13 12 11 10 10 10 10 10 10 10 9 9 9 9 8 8 8 7 7 6 6 6 6 5 5 6 6 6 5 5 4 4 4 3 3 4 4 4 4
14 15 16 15 15 16 17 16 15 13 13 12 12 11 11 11 10 10 10 10 10 10 10 10 9 8 7 7 7 6 6 6 6 6 6 7 7 6 6 5 4 3 4 4 4 4 3 3 3
13 14 15 15 15 16 16 16 15 14 13 12 13 13 12 11 11 10 10 9 9 9 9 9 9 9 8 7 7 6 7 7 7 6 6 7 7 6 6 5 4 4 4 4 3 2 2 2 2
13 14 15 15 14 14 15 15 14 14 13 13 13 13 12 12 11 10 10 10 10 10 10 10 9 9 9 8 8 8 8 7 7 7 6 7 7 7 6 6 5 4 4 4 3 2 2 2 2
12 13 13 14 13 14 15 15 14 15 14 14 14 13 12 12 11 11 10 10 10 10 10 11 10 9 10 10 10 10 9 8 7 7 7 7 7 7 6 6 5 5 4 4 4 3 3 2 2
10 13 13 14 14 15 16 16 15 15 15 14 14 13 12 12 11 11 10 10 10 10 10 10 10 10 9 10 11 11 10 10 9 8 8 7 7 7 6 6 5 5 5 4 4 5 4 3 2
10 12 12 13 14 14 15 17 16 16 14 14 14 13 12 12 12 11 11 10 9 9 10 10 10 9 9 10 11 10 10 9 9 9 8 7 6 5 5 5 6 6 5 5 4 4 4 4 3
9 11 11 12 12 13 13 15 15 15 14 14 14 13 12 12 12 12 11 11 10 10 10 10 10 10 10 9 9 9 9 9 9 9 9 8 7 6 6 6 5 5 4 4 5 5 5 4 3
8 9 9 9 11 11 12 13 14 14 14 13 12 12 12 12 13 12 12 11 11 10 10 10 9 9 9 9 9 8 8 8 8 8 8 8 7 6 6 7 6 5 5 5 5 5 5 5 4
7 9 8 8 8 9 10 11 13 13 13 13 12 12 13 13 13 12 12 11 11 11 10 10 10 9 9 8 8 8 7 7 8 8 8 8 7 7 6 6 6 6 5 5 5 5 5 4 3
6 7 7 6 6 7 8 10 11 12 12 11 12 12 12 12 12 12 12 11 11 10 10 10 9 8 9 9 8 8 7 7 7 7 8 8 8 7 6 6 6 6 5 5 6 5 5 4 4
4 5 5 5 5 6 7 9 10 11 10 10 11 11 12 12 12 11 11 11 11 11 9 9 9 9 8 8 8 7 6 6 7 7 7 7 7 7 6 5 5 5 5 5 5 5 5 5 4
3 4 3 2 3 4 6 7 8 9 8 8 9 10 10 10 10 10 10 10 10 11 10 9 8 8 7 7 7 7 6 6 6 6 6 6 6 5 5 4 5 5 5 5 5 5 5 6 5
3 3 2 0 2 3 4 5 6 6 6 7 7 8 8 8 9 9 10 10 9 10 10 9 9 8 8 7 7 7 7 7 6 6 6 6 5 5 5 5 6 6 6 6 6 6 6 7 6
5 4 3 3 1 2 2 3 4 4 6 5 6 6 6 7 7 7 8 8 8 8 8 8 9 8 7 7 7 7 7 7 7 7 7 6 6 5 5 5 5 6 6 7 7 7 7 7 7
5 5 5 4 3 1 2 2 3 3 5 4 5 5 5 5 6 6 6 7 7 7 7 7 7 7 6 6 7 7 7 6 7 7 7 7 6 6 6 6 6 6 7 7 8 8 8 8 8
4 5 5 6 4 3 4 4 3 3 3 4 5 5 4 4 5 5 5 6 7 7 7 7 7 6 6 6 6 6 5 6 6 6 6 6 7 7 8 8 7 7 8 8 8 8 8 8 8
6 5 5 6 6 5 5 5 3 3 3 4 5 4 3 4 3 4 4 5 6 6 6 7 6 6 5 5 5 6 5 6 6 5 6 6 7 8 9 9 8 8 8 9 9 8 9 8 8
9 9 9 8 9 8 6 6 4 4 3 5 6 5 5 4 3 3 3 3 4 5 5 6 6 6 5 5 5 5 5 6 6 6 5 6 7 8 8 9 8 9 9 9 10 10 10 9 9
12 11 11 11 11 10 8 8 5 4 5 5 5 5 5 4 3 3 3 3 3 4 5 6 5 5 5 5 5 5 5 5 6 6 6 6 7 8 8 9 9 9 9 10 10 10 11 10 10
11 12 12 12 12 10 9 8 6 5 6 6 6 5 6 6 4 3 3 4 3 4 5 6 5 5 5 5 4 5 5 5 5 6 6 7 8 8 9 9 10 10 10 11 11 11 11 11 11
13 13 14 14 13 13 11 9 8 8 8 7 7 7 7 6 5 5 4 3 4 5 5 6 6 5 5 5 5 5 6 6 7 7 8 8 9 9 10 10 11 12 12 12 12 12 12 12 12
15 14 15 15 16 15 14 11 9 10 10 8 9 8 8 8 6 5 5 5 4 5 6 6 6 6 6 6 6 7 7 7 8 8 8 9 10 10 11 11 12 13 13 13 13 13 12 12 12
16 16 16 16 17 16 16 13 12 11 10 10 10 10 9 8 6 6 7 7 6 6 7 7 7 7 7 7 8 8 8 9 9 9 10 10 11 12 13 13 14 14 14 14 14 14 14 14 14
18 18 18 18 18 17 17 15 13 13 12 13 12 11 10 8 6 8 9 9 9 9 8 9 9 9 9 9 10 10 10 11 11 11 11 11 12 13 14 15 15 15 15 15 14 15 15 15 15

GEFSSGP_500_meanwind_300.txt.gz
Wind_Speed
13 13 12 11 11 11 11 11 11 11 12 11 10 10 11 10 10 10 10 9 8 7 7 7 7 8 8 7 7 7 7 7 6 5 5 5 5 5 5 5 5 4 4 3 3 1 1 3 6
13 13 12 12 12 12 12 12 12 13 12 11 11 11 11 11 10 10 10 9 9 8 8 7 8 8 8 8 8 8 7 6 6 6 5 6 6 5 5 5 4 4 3 3 2 1 1 3 5
14 13 13 13 13 12 12 13 13 13 12 11 11 11 11 11 10 10 10 9 8 8 8 8 8 8 8 8 8 8 7 7 6 6 6 6 6 5 5 4 4 4 4 4 3 2 2 3 4
14 14 14 14 13 13 13 14 14 14 12 12 11 11 11 10 10 10 10 10 9 8 9 9 9 8 8 8 8 7 7 7 6 6 5 5 6 5 5 4 4 4 4 3 2 3 3 3 5
14 14 15 15 15 14 14 15 15 14 13 12 11 11 11 10 10 10 10 9 9 9 9 10 9 8 8 7 7 7 7 7 6 6 5 5 6 5 5 5 5 5 4 3 3 3 4 4 4
13 13 14 15 15 15 15 15 15 14 13 12 12 12 11 11 10 10 10 9 8 8 9 9 9 8 8 8 7 7 7 7 6 6 6 5 6 6 6 5 5 4 3 3 3 3 4 4 3
13 13 14 15 15 15 15 15 14 14 12 12 11 11 11 11 11 10 10 10 10 9 9 9 8 9 8 8 7 7 7 7 7 7 6 6 6 6 6 5 5 5 4 4 3 3 3 4 4
13 13 14 15 16 15 15 15 14 13 12 12 11 11 11 11 11 11 10 10 10 10 9 9 9 9 8 8 7 7 7 7 7 7 7 7 6 6 6 6 6 5 5 5 4 3 4 4 4
13 13 14 16 16 15 15 15 14 14 13 12 11 11 11 11 11 10 10 10 9 9 10 10 9 9 8 9 8 8 8 7 8 8 7 7 7 7 6 6 6 6 5 5 5 4 4 4 4
13 13 14 15 15 15 15 15 15 15 14 12 12 12 11 11 11 11 10 10 10 10 10 10 10 10 9 9 8 8 8 8 8 7 8 7 7 7 6 6 6 7 6 5 5 5 4 4 3
12 12 13 14 14 14 15 15 14 15 14 13 12 12 12 11 11 11 11 11 11 10 10 10 10 10 10 9 9 8 8 8 8 7 8 8 7 7 7 7 7 7 6 5 5 5 4 4 3
11 11 12 13 14 14 15 15 14 14 15 13 12 12 12 12 12 11 10 10 10 10 10 9 10 9 9 9 9 9 8 8 8 7 7 7 7 7 8 7 7 6 5 5 4 4 4 4 4
9 9 10 12 13 14 14 14 14 14 13 13 11 10 11 12 12 12 11 9 9 9 9 9 8 8 8 8 8 7 8 8 7 8 8 7 6 7 7 7 6 5 4 4 3 3 3 4 3
7 7 8 10 11 12 12 13 13 13 13 12 11 10 10 11 11 11 11 10 9 9 9 9 8 8 8 8 7 7 7 7 7 7 7 7 6 6 6 6 5 5 4 4 4 5 4 3 3
6 6 7 8 9 10 10 10 11 12 11 11 11 11 10 10 10 11 10 10 9 9 9 9 8 8 8 7 7 7 7 7 7 6 6 6 6 5 5 5 5 5 5 5 4 4 4 4 4
5 6 6 7 8 8 8 8 8 9 9 9 10 10 10 10 10 10 10 10 9 9 9 8 8 8 7 7 7 7 6 5 5 6 6 6 6 6 5 5 5 5 4 4 4 4 4 4 4
2 4 4 5 6 6 6 6 6 6 6 7 8 8 9 9 9 9 9 9 9 8 8 8 8 7 7 6 7 7 6 5 4 4 5 5 6 6 6 5 5 5 5 4 4 5 5 5 5
2 2 1 2 3 3 3 4 4 5 5 5 6 6 7 7 8 8 8 8 8 7 7 7 7 7 6 6 7 7 6 5 5 5 4 4 5 5 5 6 5 5 5 5 5 5 5 5 6
4 3 2 1 1 0 1 2 1 3 4 4 5 5 6 6 7 7 7 7 7 7 6 6 6 6 7 6 6 6 6 6 5 5 5 4 4 5 5 5 5 5 6 6 6 6 6 6 6
6 5 4 3 3 2 1 0 1 1 2 3 4 4 4 5 6 7 6 7 6 6 5 5 5 6 6 6 6 6 5 5 5 5 5 5 5 5 6 6 6 6 6 6 7 7 7 7 7
6 6 6 6 5 4 3 2 1 0 0 1 2 3 3 3 5 5 5 6 6 5 5 4 4 5 4 5 5 5 5 5 5 5 5 5 5 6 6 6 7 7 7 7 8 8 8 8 8
9 8 8 7 7 6 6 4 3 3 2 1 2 2 2 3 4 4 4 5 5 5 5 4 4 4 4 4 4 4 4 5 5 5 5 5 5 6 6 7 7 7 8 8 9 9 9 9 9
9 9 9 9 8 8 8 7 5 5 3 2 2 3 2 2 3 4 3 3 4 4 4 4 4 4 4 4 4 4 5 5 5 5 5 5 6 6 7 7 8 8 8 8 9 10 10 11 11
11 10 10 10 10 10 9 9 7 6 5 4 4 4 4 3 3 3 3 3 3 4 3 3 3 3 3 3 4 4 5 5 5 5 5 6 6 6 7 8 9 9 9 10 10 11 11 11 11
13 12 11 12 11 11 11 11 9 8 8 7 5 5 5 5 4 4 3 2 2 2 2 2 3 3 3 3 4 5 5 5 5 6 6 6 7 7 8 8 9 10 10 11 11 12 12 12 12
14 14 14 14 13 13 12 12 11 10 10 9 8 7 7 6 6 5 4 3 2 2 2 2 3 3 3 4 5 5 6 5 6 7 7 7 8 9 9 9 10 10 11 12 12 13 13 13 14
15 15 15 16 15 15 13 13 12 11 12 11 10 9 8 7 7 6 5 6 4 4 3 3 4 4 4 4 5 6 6 6 7 8 8 8 9 10 10 10 11 12 12 13 14 14 14 14 15
17 17 17 17 17 17 15 14 13 13 13 13 11 11 10 9 9 7 7 6 6 5 4 4 5 5 5 5 5 6 7 7 8 9 9 10 10 11 11 11 13 13 13 14 15 15 15 15 16
18 17 17 17 17 18 17 16 14 13 12 13 12 11 10 9 9 9 8 7 7 7 7 6 7 7 7 7 7 7 8 9 9 10 11 11 11 12 13 13 14 15 15 15 16 16 17 17 17
19 18 18 18 18 18 18 17 16 15 14 14 12 11 10 10 10 10 9 8 8 8 8 8 8 8 9 9 9 9 10 10 11 12 12 13 12 13 14 15 16 16 16 17 17 18 19 18 18

GEFSSGP_500_meanwind_306.txt.gz
Wind_Speed
13 13 13 12 13 12 10 10 10 11 11 11 10 10 10 10 10 10 10 9 8 8 8 7 6 6 6 6 5 5 6 6 6 6 5 5 5 5 6 6 6 5 4 4 4 5 6 7 7
13 13 13 13 14 11 11 11 11 11 11 11 11 11 10 10 10 10 10 10 9 8 7 7 6 6 6 6 5 5 6 6 6 5 6 5 5 5 5 5 5 4 4 3 4 4 5 6 7
13 13 13 14 12 12 11 11 12 12 11 12 12 11 11 10 11 10 10 10 9 8 7 7 7 7 6 6 6 6 6 6 5 6 6 6 5 5 5 5 5 4 3 3 3 3 4 5 6
13 12 13 13 11 11 12 12 12 12 12 12 12 11 11 10 10 10 9 9 8 8 7 7 7 7 7 7 6 6 5 5 5 5 6 6 5 5 5 5 5 4 3 3 2 2 3 3 4
13 14 13 11 11 11 11 12 12 12 12 11 11 10 11 11 10 10 9 9 8 8 7 7 7 7 7 6 6 6 5 5 5 5 5 6 6 5 4 5 5 5 3 2 2 2 3 3 5
14 15 13 11 11 11 11 11 11 11 11 10 10 11 10 10 10 10 9 8 8 7 7 6 7 7 7 6 6 6 6 5 5 5 5 5 5 5 5 5 5 4 3 2 3 4 4 3 3
14 14 13 12 11 11 11 10 10 10 10 10 10 10 10 9 9 9 8 8 8 8 7 7 6 6 6 6 6 6 6 6 6 5 5 5 5 5 5 5 4 4 4 4 4 4 4 3 2
13 13 13 13 12 11 10 10 10 10 10 10 10 10 9 9 9 8 8 8 8 8 7 7 7 7 7 6 6 6 6 6 6 6 5 5 5 5 5 5 5 5 5 5 4 3 3 3 2
12 12 11 11 11 11 11 11 11 10 10 10 10 10 10 9 8 8 8 8 8 7 7 7 7 7 7 7 7 6 5 5 6 6 5 5 5 5 5 5 5 5 5 4 4 4 4 3 3
11 11 11 10 10 10 10 11 12 12 11 10 10 10 10 10 9 8 8 8 8 8 8 7 7 7 7 7 7 6 6 6 5 5 5 5 5 5 6 6 5 4 4 3 3 3 3 3 3
10 10 10 9 9 10 10 11 11 12 12 11 10 10 10 10 9 9 8 8 7 7 7 7 7 7 7 7 7 7 6 6 5 6 6 6 5 5 6 5 5 4 3 3 3 2 2 3 3
9 8 8 8 8 10 10 11 11 11 11 10 10 10 10 10 9 9 8 8 8 7 7 8 8 7 7 6 6 6 7 6 6 6 7 7 6 6 5 4 4 3 4 3 3 3 3 3 3
8 7 7 7 8 8 10 10 10 10 10 9 9 9 10 10 9 9 8 8 8 7 7 7 7 7 7 7 6 6 5 5 5 5 7 6 6 5 5 4 4 4 4 4 3 2 2 2 2
7 7 6 6 7 7 8 9 9 9 9 9 9 9 9 9 9 9 9 8 8 7 7 6 6 6 6 5 5 6 5 5 5 5 6 5 5 5 5 4 4 4 4 3 2 2 2 3 3
5 6 5 5 5 6 7 7 7 8 8 8 8 8 8 8 8 8 9 9 8 7 6 6 6 6 5 5 5 5 4 5 5 5 6 5 5 5 3 3 3 3 3 2 2 3 3 3 3
3 4 3 3 4 4 5 6 6 6 7 7 7 7 7 7 7 7 8 8 8 7 6 6 6 6 6 5 5 5 4 4 4 5 5 5 5 5 4 3 2 2 2 2 2 3 3 3 3
2 2 2 1 2 3 4 4 5 5 6 6 6 7 7 7 7 7 7 7 7 6 6 6 6 6 6 6 5 5 4 4 4 4 4 5 5 5 5 4 4 3 3 3 2 2 3 3 4
1 2 1 0 1 2 2 3 4 4 5 5 5 6 6 6 7 7 7 7 6 6 5 5 6 6 5 5 5 5 5 5 5 4 4 5 5 5 4 4 4 4 3 3 3 3 3 4 5
3 2 1 1 0 0 1 2 3 3 4 4 4 5 5 5 6 6 7 7 6 6 5 5 5 5 5 5 5 5 6 5 5 5 4 5 5 5 4 5 5 4 3 3 3 4 4 5 6
3 2 2 2 1 0 1 2 3 3 3 3 4 4 4 5 5 5 6 6 6 5 5 4 4 4 4 4 5 5 5 5 5 5 5 5 5 5 5 5 5 5 4 4 5 5 6 6 7
4 4 3 2 2 1 1 3 3 2 3 3 4 4 4 4 4 5 5 5 5 5 4 4 3 3 4 4 4 4 5 5 5 5 5 5 5 5 5 5 5 5 5 5 6 6 6 7 8
5 5 4 3 3 3 2 3 4 4 3 4 4 5 5 4 4 5 5 5 5 4 4 4 3 3 3 3 3 4 4 4 4 4 5 5 5 4 4 5 5 5 5 6 6 7 7 8 8
7 7 6 5 4 5 5 4 5 5 4 4 5 5 5 5 4 4 5 5 4 4 4 3 3 2 1 2 3 3 4 4 4 4 5 5 5 5 5 5 6 6 6 7 7 8 8 9 9
9 8 7 7 6 7 7 5 5 6 5 4 5 6 5 5 5 5 5 5 4 4 4 4 3 3 2 2 2 3 4 4 4 5 6 6 6 6 6 6 7 7 7 8 9 9 10 10 11
10 8 8 8 8 9 8 7 7 7 6 6 6 7 6 6 6 6 6 5 5 5 5 5 5 5 4 3 3 3 4 4 5 5 6 7 7 7 7 7 8 9 9 9 10 11 11 11 11
11 10 10 9 9 9 10 9 9 8 7 7 7 7 7 7 7 7 7 7 7 7 7 6 6 5 4 4 4 4 5 5 6 6 7 7 8 8 8 9 9 10 11 11 11 12 12 12 13
13 12 11 10 11 10 10 11 10 11 9 8 7 7 8 8 9 9 9 8 8 8 8 8 8 7 7 6 6 6 6 6 7 7 8 8 9 9 10 10 10 11 12 12 13 13 13 13 14
15 13 12 12 12 11 11 11 11 11 10 9 9 9 9 9 9 9 9 9 10 10 10 10 10 9 8 7 6 7 7 8 8 8 9 10 11 10 11 12 12 13 14 14 15 14 15 15 16
16 15 14 13 13 11 11 11 12 12 11 10 9 9 10 10 10 10 10 11 11 12 12 11 11 10 10 9 8 8 8 10 9 9 10 11 11 12 12 13 14 14 15 16 16 16 16 16 16
18 17 16 15 15 13 12 13 13 12 12 12 11 11 11 11 11 12 12 13 13 13 13 12 12 11 11 11 11 11 11 11 11 11 11 12 13 13 14 15 16 16 17 17 18 18 18 18 18

GEFSSGP_500_meanwind_312.txt.gz
Wind_Speed
13 13 13 14 14 12 7 7 6 6 5 5 4 5 5 5 5 6 5 4 4 4 4 4 5 4 3 2 2 1 1 1 1 1 1 0 1 2 3 3 3 3 3 3 4 5 6 6 7
13 12 13 15 12 8 7 7 7 6 6 6 6 6 5 5 6 6 5 5 5 5 5 5 5 5 4 3 2 2 2 1 2 1 1 0 0 1 2 3 3 3 2 3 4 4 4 5 6
13 13 15 14 9 7 7 7 7 7 6 6 6 7 6 6 7 7 6 6 6 6 7 6 5 5 5 4 3 2 2 2 2 1 0 0 1 1 1 1 2 2 2 3 3 3 3 4 5
12 15 16 11 8 7 7 7 7 7 6 6 7 7 8 6 7 7 7 7 7 7 7 7 6 6 6 5 4 3 3 3 3 2 1 1 1 2 2 2 2 2 2 2 1 2 2 3 4
14 16 14 8 7 7 7 7 7 7 7 7 7 8 8 8 7 8 8 8 7 7 7 8 7 6 6 5 4 4 4 3 3 3 3 2 1 2 2 2 2 1 2 2 1 1 2 2 3
14 14 11 7 8 7 7 7 7 7 7 7 7 8 8 9 8 8 8 8 8 7 8 8 7 7 6 6 5 4 4 3 3 4 4 4 3 2 1 1 1 1 1 0 1 1 2 2 3
13 14 10 7 8 7 7 7 7 7 8 8 9 8 8 9 9 9 8 8 8 7 8 8 8 7 6 6 5 5 4 4 4 4 4 5 4 3 1 1 0 1 1 1 1 2 1 2 2
12 12 9 7 7 7 7 7 7 7 8 8 9 9 9 9 9 9 8 8 8 7 7 7 7 8 7 6 5 5 5 5 4 4 5 4 4 3 2 2 1 1 1 1 1 1 2 2 1
11 10 8 8 8 7 7 7 7 7 7 8 10 10 9 9 9 10 9 9 8 8 7 7 8 8 7 7 6 6 6 6 5 4 4 5 4 4 3 3 1 1 1 1 2 2 2 2 2
8 7 7 7 7 7 8 7 7 8 8 8 9 10 10 10 10 9 9 10 10 8 8 8 8 8 8 7 7 7 6 6 6 5 4 5 5 5 4 3 3 3 2 2 3 2 2 2 2
7 7 6 7 7 7 8 8 8 8 8 8 9 10 10 10 11 10 9 10 10 9 8 8 8 8 8 7 7 8 8 7 7 7 7 6 5 5 5 5 4 4 4 3 3 3 3 2 2
6 5 5 6 6 6 7 8 8 8 8 8 9 10 10 10 11 11 10 10 9 9 9 9 8 8 8 7 7 8 8 7 6 7 7 6 5 5 5 5 4 4 4 4 3 4 3 2 2
5 5 5 6 7 7 7 7 8 8 8 8 9 9 10 10 11 11 11 10 10 9 9 9 9 8 8 8 7 7 7 7 6 7 6 6 5 4 5 4 4 3 3 3 3 2 2 3 3
5 5 5 6 7 7 7 7 8 8 8 8 9 9 10 10 11 11 11 11 10 10 9 8 8 8 8 8 8 7 7 7 7 6 6 6 6 5 4 4 4 3 2 2 2 2 3 4 4
6 6 6 7 7 8 7 7 8 9 9 9 9 10 10 10 11 11 11 11 10 10 9 8 8 8 7 8 8 8 8 8 8 7 7 6 5 5 4 3 3 2 2 4 4 5 4 5 5
6 6 5 6 7 8 8 8 7 8 8 9 9 10 10 10 10 10 11 11 11 10 10 9 9 8 8 8 8 8 8 9 8 7 7 6 5 5 5 4 4 5 3 4 6 5 5 5 5
3 4 5 5 6 7 8 8 9 8 8 9 9 10 10 9 10 10 10 11 11 11 10 9 9 8 8 8 8 9 8 8 9 8 8 8 8 7 6 6 6 6 6 6 6 6 6 6 6
1 3 3 4 5 5 6 8 8 8 8 9 10 10 10 9 10 10 10 11 10 10 10 9 9 8 8 8 8 8 8 8 8 8 8 8 8 8 8 7 7 6 6 7 7 6 6 6 6
2 1 2 2 3 4 6 8 8 7 7 8 10 10 9 9 9 10 10 10 10 10 10 9 8 8 8 8 8 8 8 8 8 8 8 8 8 8 8 8 7 7 6 7 8 7 8 8 8
3 2 2 2 2 5 6 8 8 10 9 7 9 10 9 9 9 10 10 10 10 10 9 9 8 8 8 8 8 7 8 8 8 9 8 8 8 8 8 8 7 7 7 8 8 8 8 8 8
3 4 4 3 3 5 7 9 7 8 9 7 9 10 9 8 9 9 9 9 10 10 9 9 8 8 8 8 8 7 8 8 8 8 8 8 8 8 8 8 8 8 8 8 8 8 8 8 9
5 4 4 4 5 7 8 10 8 9 11 9 8 9 9 8 9 9 9 9 9 9 9 9 8 8 8 8 7 8 8 8 8 8 8 8 8 8 9 8 8 8 9 9 8 9 10 10 10
8 6 6 6 6 6 7 10 10 10 11 11 9 9 9 7 8 8 9 9 9 9 9 9 9 9 8 8 7 8 8 8 8 8 8 8 9 9 9 9 9 10 10 10 10 10 11 11 11
8 7 7 5 6 8 7 10 11 12 13 11 10 10 9 8 9 8 8 9 9 9 9 9 9 9 9 8 8 8 8 8 9 9 8 9 9 10 10 10 11 11 11 11 11 11 12 12 12
9 8 6 5 7 8 7 10 11 11 12 11 12 11 10 10 10 9 8 8 9 10 10 10 10 10 10 9 9 9 9 10 10 9 9 9 9 11 11 11 12 12 12 12 12 12 13 13 13
10 9 8 7 7 7 7 10 10 10 11 12 12 12 11 11 11 11 10 9 9 10 10 10 10 10 10 10 10 10 11 11 10 11 10 10 10 11 11 12 13 13 14 13 13 14 13 14 14
10 11 10 9 9 10 10 11 10 12 13 12 12 12 11 12 12 11 11 11 11 11 10 10 10 10 11 11 11 11 11 11 11 11 11 11 11 11 12 13 13 14 14 15 15 15 14 15 15
12 12 11 11 11 11 10 10 11 13 13 14 13 11 11 12 12 13 13 11 11 12 12 12 12 11 11 12 12 12 12 12 12 12 12 12 12 12 13 14 15 15 15 15 15 15 16 16 16
13 12 12 11 12 11 10 9 11 13 15 14 14 14 13 13 13 14 13 11 11 12 13 13 13 13 14 13 13 13 13 13 12 13 14 14 14 14 14 14 15 16 16 16 16 16 16 17 17
15 14 14 13 13 12 12 12 13 13 14 15 15 14 14 13 13 15 15 14 13 14 14 14 15 16 16 15 15 14 14 14 14 15 15 16 16 16 16 16 17 17 18 17 17 17 17 18 18

GEFSSGP_500_meanwind_318.txt.gz
Wind_Speed
14 14 12 12 13 13 13 14 14 14 13 12 10 10 10 10 10 9 9 8 8 8 8 8 6 6 6 5 4 4 3 2 2 1 1 1 1 1 3 5 5 5 5 6 6 6 7 7 7
13 14 13 13 14 14 14 14 14 14 13 13 11 10 10 10 10 9 9 9 9 8 8 8 7 6 6 5 4 4 3 2 1 1 1 1 1 1 2 2 4 4 4 5 4 5 5 7 7
14 14 13 14 14 14 15 15 15 14 13 13 12 11 11 11 10 9 10 9 9 8 8 8 8 7 6 6 4 3 3 2 1 1 1 1 1 1 2 2 3 4 4 4 4 5 5 5 6
14 14 13 13 14 15 15 15 16 15 13 13 13 12 12 11 11 10 10 10 9 9 9 9 8 8 7 6 5 3 3 2 2 1 1 1 1 1 2 2 3 4 3 3 4 4 4 4 5
13 13 14 13 14 14 14 14 15 15 13 12 12 12 12 12 12 11 11 10 10 10 9 9 8 8 8 7 6 4 3 3 3 2 1 1 0 1 2 2 3 3 3 2 3 3 3 3 4
12 13 13 14 15 14 14 14 14 14 13 13 12 12 12 13 12 11 11 10 10 10 10 9 9 8 8 8 7 6 5 4 4 3 2 2 1 0 1 2 3 2 2 2 2 2 2 3 3
11 12 13 14 15 14 14 14 14 14 13 13 13 12 12 12 12 12 12 11 10 10 10 9 9 9 8 8 8 7 6 5 5 5 4 3 2 1 1 1 1 2 2 1 1 2 3 3 3
10 12 13 14 15 15 14 14 14 14 14 13 13 12 12 12 12 12 12 11 10 10 10 10 9 9 9 8 8 7 7 6 6 6 6 6 5 4 3 2 1 1 2 1 1 2 2 1 2
10 11 13 14 14 14 13 13 14 14 14 14 14 14 13 12 12 12 12 12 10 10 10 10 10 10 9 10 9 9 7 7 7 7 7 7 6 6 5 3 2 1 2 1 1 1 1 1 1
11 11 12 13 13 14 13 13 14 13 13 14 14 14 14 13 12 12 12 12 11 11 11 10 10 10 10 10 10 10 9 8 8 8 8 8 7 7 6 5 4 3 3 2 3 3 2 2 2
12 12 12 12 13 13 13 12 13 13 13 13 13 14 14 13 13 13 12 11 11 11 11 11 10 10 10 10 10 10 9 9 9 8 8 8 8 7 7 6 5 5 4 3 3 3 3 2 2
12 12 12 12 12 13 13 13 13 13 14 13 13 14 13 13 13 12 12 12 11 11 11 11 11 11 11 11 10 10 10 9 9 8 8 9 9 8 7 7 6 6 5 5 4 3 4 3 2
10 11 12 11 11 12 12 12 12 12 13 14 13 14 13 12 13 12 12 12 12 11 11 11 11 11 12 11 10 10 9 8 8 8 8 8 7 7 7 7 6 5 5 5 4 4 3 3 1
8 9 9 10 9 10 11 11 11 12 12 13 13 13 13 13 12 12 12 12 12 12 12 11 11 11 11 11 11 10 10 9 8 8 8 7 7 6 6 6 6 5 4 4 4 4 4 3 2
6 6 7 9 8 8 8 9 10 12 12 12 12 12 12 13 13 12 12 12 11 12 12 12 12 12 11 11 11 11 10 10 9 9 9 8 8 8 7 7 6 7 5 5 5 5 3 3 2
6 6 7 7 6 7 7 10 10 11 12 12 11 11 12 12 13 13 12 12 11 11 12 12 11 11 11 11 11 11 11 10 9 9 9 9 8 8 9 8 7 7 6 5 5 4 4 4 4
7 6 6 6 6 7 7 9 11 12 11 11 11 11 12 12 12 12 12 12 11 11 11 11 11 11 11 11 11 11 10 10 10 9 9 9 9 8 8 8 7 7 6 5 6 5 5 5 5
5 3 4 4 6 6 7 7 9 10 10 9 10 10 11 11 11 11 12 12 11 11 11 11 11 11 11 10 10 10 10 10 10 10 9 9 8 7 8 7 7 7 7 6 7 6 5 5 5
3 1 2 3 3 4 5 6 8 9 9 9 9 9 10 10 10 10 10 10 11 10 10 10 10 10 11 10 10 10 10 10 10 9 10 9 8 8 8 8 8 8 7 7 7 6 5 5 5
2 1 1 1 1 2 3 5 7 8 8 9 10 11 9 9 8 9 9 9 10 10 9 9 10 10 10 10 10 9 10 10 10 9 9 9 8 8 8 8 8 8 7 8 7 6 5 5 5
4 2 1 1 3 4 5 5 6 7 8 9 9 10 9 9 8 7 8 8 9 9 9 9 9 9 9 10 10 9 9 9 10 10 8 8 8 8 8 8 9 8 8 8 8 7 7 6 6
6 4 4 4 4 4 6 7 6 7 8 8 9 9 8 8 7 7 7 7 8 8 8 8 8 8 8 8 9 8 8 9 9 10 9 8 8 8 8 8 9 8 8 9 9 8 8 8 7
6 7 7 7 7 6 6 7 6 7 7 8 8 8 8 7 6 7 7 7 7 8 8 8 8 8 7 7 7 8 8 8 9 9 9 9 8 8 8 8 8 8 8 9 10 10 10 9 9
8 9 9 8 8 7 6 7 7 7 8 8 7 7 8 7 7 7 7 7 7 7 8 8 8 7 7 7 6 7 7 8 8 9 9 9 9 9 9 8 9 9 9 10 11 11 11 10 10
9 10 10 10 10 8 7 7 6 6 6 8 8 8 9 8 8 7 6 7 7 7 8 8 7 7 7 7 7 7 7 8 9 9 10 10 10 9 10 10 10 9 9 10 11 11 11 11 11
9 10 11 12 12 11 10 8 7 5 6 7 8 9 9 9 9 7 7 7 7 7 7 7 8 8 7 7 7 7 7 8 9 9 10 10 10 11 11 11 10 10 10 11 11 12 12 11 11
10 11 11 12 12 12 11 10 8 6 6 6 7 8 9 9 8 7 7 7 8 8 8 8 9 8 8 7 7 7 7 8 9 9 10 11 10 11 11 11 11 10 10 11 12 12 13 12 12
12 12 12 12 12 12 10 9 9 8 7 7 7 7 8 9 9 8 7 7 9 9 9 9 10 9 9 8 8 8 8 9 10 11 11 11 11 12 12 12 11 11 11 12 13 13 14 14 13
13 14 13 13 13 13 12 10 9 9 9 8 8 8 8 10 11 10 9 9 10 11 10 10 10 10 10 10 10 10 10 11 11 12 12 12 13 13 13 12 12 13 13 14 15 15 15 15 15
14 14 14 14 15 13 13 11 9 10 10 10 10 11 10 10 11 12 12 12 12 11 12 12 12 12 12 12 12 12 12 12 12 12 13 14 14 14 14 15 15 15 15 16 16 16 16 16 16

GEFSSGP_500_meanwind_324.txt.gz
Wind_Speed
13 13 12 12 12 12 13 13 14 14 13 12 12 12 12 11 10 10 9 9 9 8 8 8 7 7 6 6 6 5 4 4 3 1 0 1 2 5 5 4 4 4 5 5 6 6 5 5 5
12 13 12 12 12 12 13 13 13 14 14 13 12 12 12 12 11 10 10 9 9 8 8 8 8 7 7 6 5 5 5 5 4 3 1 1 2 4 5 4 4 4 4 4 4 5 5 5 6
12 12 11 12 12 13 14 14 14 13 13 13 13 13 12 11 10 10 9 9 9 8 9 8 8 8 7 7 6 5 5 5 5 4 3 2 2 2 3 3 3 3 3 3 3 4 5 5 5
11 11 11 12 13 13 13 14 14 13 13 13 13 13 12 11 10 10 10 10 9 9 10 9 8 9 8 7 6 6 6 5 5 4 4 3 2 2 2 3 3 3 3 4 4 4 5 4 5
12 11 11 11 13 13 13 13 13 14 14 13 13 13 12 11 10 10 10 10 9 10 10 10 10 9 9 8 7 6 6 6 5 4 3 3 3 2 2 1 2 2 2 3 4 4 4 4 4
12 11 11 12 13 13 13 14 15 15 15 14 14 13 12 11 10 10 10 10 10 10 10 10 11 11 10 9 8 7 7 6 6 5 4 3 3 3 2 2 2 1 1 2 2 3 4 4 5
12 12 12 12 13 13 14 14 15 15 15 14 14 13 13 12 11 11 11 11 11 10 10 10 11 12 11 10 9 8 7 7 7 7 6 4 4 3 2 2 1 1 0 1 2 2 3 4 3
12 12 12 14 14 14 14 15 15 14 15 14 13 13 13 12 12 11 11 11 11 11 10 11 11 12 12 10 10 9 8 8 8 8 7 6 5 5 3 3 2 1 0 1 2 2 3 3 3
12 11 12 13 14 14 14 14 15 14 14 13 12 12 13 13 12 11 11 11 11 11 11 12 12 12 12 11 10 9 9 9 9 8 8 6 6 5 4 3 2 2 2 2 1 2 2 3 4
11 12 12 13 14 13 13 14 14 13 13 13 13 12 12 12 12 11 11 10 11 11 11 11 11 11 11 11 9 9 9 9 9 9 8 7 7 6 5 4 4 4 4 2 2 2 2 2 3
10 11 11 12 12 12 13 13 13 13 13 13 13 13 12 11 11 11 10 10 10 10 11 11 11 11 11 11 10 10 10 10 9 9 8 8 8 7 6 5 5 5 4 3 3 2 1 0 2
10 10 10 10 10 11 12 13 13 13 13 13 13 13 12 11 11 11 11 11 11 10 11 11 11 11 11 11 10 10 10 10 9 8 7 8 8 7 7 6 5 5 5 5 4 2 3 1 1
8 9 10 9 9 10 11 12 13 13 13 13 13 13 12 11 11 11 11 11 11 11 10 11 12 11 12 12 11 10 10 9 9 9 8 7 7 6 5 5 5 5 4 4 4 4 3 2 2
7 9 9 9 9 9 10 11 11 12 13 13 13 12 12 11 11 11 11 12 11 11 10 11 11 11 12 12 11 11 10 9 9 9 8 7 7 5 5 7 6 5 5 5 5 4 4 3 3
6 7 8 8 8 9 9 10 10 11 11 12 12 12 12 11 11 11 11 11 11 11 11 11 11 11 11 12 12 11 11 10 10 9 8 8 7 7 7 7 6 5 5 5 4 4 4 4 3
5 5 6 6 7 7 8 9 10 10 10 10 11 11 11 11 11 11 10 10 10 10 11 10 11 11 11 11 11 12 11 11 10 9 9 8 8 8 8 7 7 6 6 5 5 5 4 4 3
3 4 5 5 5 7 7 8 9 8 9 9 9 10 10 10 10 10 10 9 9 9 9 9 10 10 10 10 10 10 10 10 10 9 9 8 8 8 8 8 8 7 6 5 5 5 5 5 5
3 3 3 3 3 5 6 7 7 7 7 7 7 8 9 9 9 9 9 9 8 8 8 9 9 9 9 9 9 9 9 9 9 9 9 8 8 8 8 8 7 7 6 6 6 5 5 6 6
2 1 0 1 1 2 4 5 5 6 6 6 6 7 7 7 8 8 8 9 8 7 8 8 9 9 8 9 8 8 8 8 8 8 9 8 8 8 8 8 8 7 6 6 6 6 7 7 6
3 2 2 2 1 1 2 3 4 5 5 6 5 6 6 6 6 7 8 8 8 7 7 7 8 8 8 8 8 8 8 8 8 7 7 8 8 8 8 8 7 7 6 7 6 7 7 7 7
5 4 4 5 4 3 3 3 3 4 4 5 4 5 5 5 6 7 6 6 7 8 7 7 7 7 7 7 7 7 7 7 7 7 7 7 7 8 8 7 7 6 6 6 6 7 7 8 8
7 6 6 6 6 5 5 4 4 5 5 5 5 5 5 5 6 7 6 5 6 7 6 6 7 7 6 6 6 6 6 6 7 7 7 7 7 7 8 8 8 7 7 7 7 7 8 8 9
8 8 7 7 7 5 5 6 5 5 5 5 5 5 5 5 5 6 6 5 5 5 6 6 6 6 6 5 6 6 6 6 7 7 7 7 8 8 8 9 9 8 9 9 9 9 9 10 10
10 10 9 8 7 7 6 7 5 5 6 6 6 5 5 5 5 5 5 5 5 5 5 5 5 5 5 5 6 6 6 7 8 8 8 8 8 8 9 9 9 9 10 10 10 11 11 11 11
12 11 10 9 9 9 9 8 7 6 8 8 7 7 6 5 5 4 4 5 6 5 6 6 6 6 6 6 6 7 7 7 8 9 9 9 9 9 9 10 10 10 10 11 12 12 12 12 12
13 12 12 12 11 11 11 10 8 8 8 8 8 8 7 6 6 5 5 5 5 5 6 7 7 7 7 7 8 8 9 9 10 10 10 10 10 11 10 10 10 11 11 12 13 14 14 14 14
14 14 14 14 12 12 11 10 9 8 8 9 9 9 9 8 7 6 6 6 6 6 7 8 8 8 9 9 9 10 11 12 12 12 11 12 12 12 11 11 12 12 13 13 14 14 14 15 15
15 15 15 14 14 14 12 10 9 9 9 10 10 10 10 8 7 6 6 7 7 8 8 9 9 10 10 11 11 11 12 13 13 13 13 13 13 12 13 13 13 13 13 14 15 16 16 17 17
16 16 16 15 15 15 13 11 10 11 11 11 11 11 10 9 9 8 8 9 9 9 9 10 10 11 12 13 12 12 13 14 14 15 14 14 14 14 15 15 15 15 16 16 17 17 18 18 19
18 17 17 17 16 16 15 12 12 12 11 11 12 11 11 11 11 11 11 11 11 11 11 11 12 13 14 14 14 14 14 14 15 16 16 16 16 16 17 17 17 18 18 18 19 19 19 20 20